Wetterdaten: Donnerstag, 28.04.2016
Datum Zeit Temp. A. Feuchte A. Luftdruck Regen Wind Richtung Richtung Sonnenschein ET UV Solar Taupunkt Windchill Windben Empfang
28.04.2016 00:00 1,0 C 91 % 1015,3 hPa 0,0 l/m 4,1 km/h (1 Bft) W-SW 252 0 min 0,000 mm 0,0 UV-I 0 W/m -0,3 C 1,0 C 4,8 km/h (1 Bft) 100,00 %
28.04.2016 00:02 1,0 C 91 % 1015,3 hPa 0,0 l/m 4,8 km/h (1 Bft) W-SW 252 0 min 0,000 mm 0,0 UV-I 0 W/m -0,3 C 1,0 C 4,8 km/h (1 Bft) 97,83 %
28.04.2016 00:03 1,0 C 90 % 1015,4 hPa 0,0 l/m 3,4 km/h (1 Bft) W-SW 253 0 min 0,000 mm 0,0 UV-I 0 W/m -0,5 C 1,0 C 4,8 km/h (1 Bft) 95,65 %
28.04.2016 00:04 0,9 C 90 % 1015,4 hPa 0,0 l/m 2,9 km/h (1 Bft) W-SW 253 0 min 0,000 mm 0,0 UV-I 0 W/m -0,6 C 0,9 C 3,2 km/h (1 Bft) 100,00 %
28.04.2016 00:05 0,9 C 90 % 1015,4 hPa 0,0 l/m 2,1 km/h (1 Bft) W-SW 253 0 min 0,000 mm 0,0 UV-I 0 W/m -0,6 C 0,9 C 3,2 km/h (1 Bft) 100,00 %
28.04.2016 00:06 0,9 C 90 % 1015,4 hPa 0,0 l/m 2,5 km/h (1 Bft) W-SW 253 0 min 0,000 mm 0,0 UV-I 0 W/m -0,6 C 0,9 C 3,2 km/h (1 Bft) 100,00 %
28.04.2016 00:07 0,9 C 90 % 1015,4 hPa 0,0 l/m 1,7 km/h (1 Bft) W-SW 253 0 min 0,000 mm 0,0 UV-I 0 W/m -0,6 C 0,9 C 3,2 km/h (1 Bft) 100,00 %
28.04.2016 00:08 0,9 C 90 % 1015,4 hPa 0,0 l/m 2,0 km/h (1 Bft) W-SW 253 0 min 0,000 mm 0,0 UV-I 0 W/m -0,6 C 0,9 C 3,2 km/h (1 Bft) 100,00 %
28.04.2016 00:09 0,9 C 90 % 1015,4 hPa 0,0 l/m 2,7 km/h (1 Bft) W-SW 253 0 min 0,000 mm 0,0 UV-I 0 W/m -0,6 C 0,9 C 4,8 km/h (1 Bft) 100,00 %
28.04.2016 00:10 0,8 C 90 % 1015,4 hPa 0,0 l/m 1,7 km/h (1 Bft) W-SW 253 0 min 0,000 mm 0,0 UV-I 0 W/m -0,6 C 0,8 C 3,2 km/h (1 Bft) 100,00 %
28.04.2016 00:11 0,8 C 91 % 1015,4 hPa 0,0 l/m 1,5 km/h (1 Bft) W-SW 253 0 min 0,000 mm 0,0 UV-I 0 W/m -0,5 C 0,8 C 3,2 km/h (1 Bft) 95,65 %
28.04.2016 00:12 0,8 C 91 % 1015,4 hPa 0,0 l/m 1,5 km/h (1 Bft) W-SW 253 0 min 0,000 mm 0,0 UV-I 0 W/m -0,5 C 0,8 C 3,2 km/h (1 Bft) 95,83 %
28.04.2016 00:13 0,7 C 91 % 1015,4 hPa 0,0 l/m 2,7 km/h (1 Bft) W-SW 253 0 min 0,000 mm 0,0 UV-I 0 W/m -0,6 C 0,7 C 3,2 km/h (1 Bft) 95,65 %
28.04.2016 00:14 0,7 C 91 % 1015,4 hPa 0,0 l/m 2,6 km/h (1 Bft) W-SW 253 0 min 0,000 mm 0,0 UV-I 0 W/m -0,6 C 0,7 C 3,2 km/h (1 Bft) 100,00 %
28.04.2016 00:15 0,7 C 91 % 1015,4 hPa 0,0 l/m 2,2 km/h (1 Bft) W-SW 253 0 min 0,000 mm 0,0 UV-I 0 W/m -0,6 C 0,7 C 3,2 km/h (1 Bft) 100,00 %
28.04.2016 00:16 0,7 C 91 % 1015,5 hPa 0,0 l/m 1,4 km/h (1 Bft) W-SW 253 0 min 0,000 mm 0,0 UV-I 0 W/m -0,6 C 0,7 C 3,2 km/h (1 Bft) 96,30 %
28.04.2016 00:17 0,7 C 91 % 1015,4 hPa 0,0 l/m 2,1 km/h (1 Bft) W-SW 247 0 min 0,000 mm 0,0 UV-I 0 W/m -0,6 C 0,7 C 3,2 km/h (1 Bft) 95,83 %
28.04.2016 00:18 0,7 C 91 % 1015,4 hPa 0,0 l/m 0,9 km/h (0 Bft) W-SW 247 0 min 0,000 mm 0,0 UV-I 0 W/m -0,6 C 0,7 C 1,6 km/h (1 Bft) 100,00 %
28.04.2016 00:19 0,6 C 91 % 1015,4 hPa 0,0 l/m 0,5 km/h (0 Bft) W-SW 247 0 min 0,000 mm 0,0 UV-I 0 W/m -0,7 C 0,6 C 1,6 km/h (1 Bft) 96,15 %
28.04.2016 00:20 0,6 C 91 % 1015,4 hPa 0,0 l/m 0,6 km/h (0 Bft) W-SW 247 0 min 0,000 mm 0,0 UV-I 0 W/m -0,7 C 0,6 C 1,6 km/h (1 Bft) 100,00 %
28.04.2016 00:21 0,6 C 92 % 1015,4 hPa 0,0 l/m 1,6 km/h (1 Bft) W-SW 246 0 min 0,000 mm 0,0 UV-I 0 W/m -0,5 C 0,6 C 3,2 km/h (1 Bft) 100,00 %
28.04.2016 00:22 0,5 C 91 % 1015,4 hPa 0,0 l/m 1,5 km/h (1 Bft) W-SW 246 0 min 0,000 mm 0,0 UV-I 0 W/m -0,8 C 0,5 C 1,6 km/h (1 Bft) 96,15 %
28.04.2016 00:23 0,5 C 91 % 1015,4 hPa 0,0 l/m 1,6 km/h (1 Bft) W-SW 246 0 min 0,000 mm 0,0 UV-I 0 W/m -0,8 C 0,5 C 3,2 km/h (1 Bft) 100,00 %
28.04.2016 00:24 0,4 C 91 % 1015,4 hPa 0,0 l/m 1,0 km/h (0 Bft) W-SW 246 0 min 0,000 mm 0,0 UV-I 0 W/m -0,9 C 0,4 C 1,6 km/h (1 Bft) 91,30 %
28.04.2016 00:25 0,4 C 91 % 1015,4 hPa 0,0 l/m 0,7 km/h (0 Bft) W-SW 246 0 min 0,000 mm 0,0 UV-I 0 W/m -0,9 C 0,4 C 1,6 km/h (1 Bft) 100,00 %
28.04.2016 00:26 0,4 C 91 % 1015,4 hPa 0,0 l/m 0,9 km/h (0 Bft) W-SW 246 0 min 0,000 mm 0,0 UV-I 0 W/m -0,9 C 0,4 C 3,2 km/h (1 Bft) 100,00 %
28.04.2016 00:27 0,4 C 91 % 1015,4 hPa 0,0 l/m 2,1 km/h (1 Bft) W-SW 246 0 min 0,000 mm 0,0 UV-I 0 W/m -0,9 C 0,4 C 3,2 km/h (1 Bft) 100,00 %
28.04.2016 00:28 0,4 C 92 % 1015,4 hPa 0,0 l/m 2,1 km/h (1 Bft) W-SW 246 0 min 0,000 mm 0,0 UV-I 0 W/m -0,7 C 0,4 C 3,2 km/h (1 Bft) 95,65 %
28.04.2016 00:29 0,3 C 92 % 1015,4 hPa 0,0 l/m 2,4 km/h (1 Bft) W-SW 246 0 min 0,000 mm 0,0 UV-I 0 W/m -0,8 C 0,3 C 4,8 km/h (1 Bft) 100,00 %
28.04.2016 00:30 0,3 C 92 % 1015,4 hPa 0,0 l/m 2,7 km/h (1 Bft) W-SW 246 0 min 0,000 mm 0,0 UV-I 0 W/m -0,8 C 0,3 C 3,2 km/h (1 Bft) 100,00 %
28.04.2016 00:31 0,3 C 92 % 1015,4 hPa 0,0 l/m 2,2 km/h (1 Bft) W-SW 246 0 min 0,000 mm 0,0 UV-I 0 W/m -0,8 C 0,3 C 3,2 km/h (1 Bft) 100,00 %
28.04.2016 00:32 0,3 C 92 % 1015,4 hPa 0,0 l/m 1,8 km/h (1 Bft) W-SW 243 0 min 0,000 mm 0,0 UV-I 0 W/m -0,8 C 0,3 C 3,2 km/h (1 Bft) 100,00 %
28.04.2016 00:33 0,3 C 92 % 1015,4 hPa 0,0 l/m 2,5 km/h (1 Bft) W-SW 243 0 min 0,000 mm 0,0 UV-I 0 W/m -0,8 C 0,3 C 3,2 km/h (1 Bft) 100,00 %
28.04.2016 00:34 0,3 C 92 % 1015,5 hPa 0,0 l/m 2,3 km/h (1 Bft) W-SW 243 0 min 0,000 mm 0,0 UV-I 0 W/m -0,8 C 0,3 C 3,2 km/h (1 Bft) 100,00 %
28.04.2016 00:35 0,3 C 92 % 1015,4 hPa 0,0 l/m 1,2 km/h (1 Bft) W-SW 243 0 min 0,000 mm 0,0 UV-I 0 W/m -0,8 C 0,3 C 3,2 km/h (1 Bft) 100,00 %
28.04.2016 00:36 0,3 C 92 % 1015,4 hPa 0,0 l/m 1,2 km/h (1 Bft) W-SW 243 0 min 0,000 mm 0,0 UV-I 0 W/m -0,8 C 0,3 C 1,6 km/h (1 Bft) 100,00 %
28.04.2016 00:37 0,3 C 92 % 1015,4 hPa 0,0 l/m 0,6 km/h (0 Bft) W-SW 243 0 min 0,000 mm 0,0 UV-I 0 W/m -0,8 C 0,3 C 3,2 km/h (1 Bft) 91,30 %
28.04.2016 00:38 0,2 C 92 % 1015,4 hPa 0,0 l/m 1,0 km/h (0 Bft) W-SW 243 0 min 0,000 mm 0,0 UV-I 0 W/m -0,9 C 0,2 C 1,6 km/h (1 Bft) 96,30 %
28.04.2016 00:39 0,2 C 91 % 1015,4 hPa 0,0 l/m 1,6 km/h (1 Bft) W-SW 243 0 min 0,000 mm 0,0 UV-I 0 W/m -1,1 C 0,2 C 3,2 km/h (1 Bft) 95,65 %
28.04.2016 00:40 0,1 C 92 % 1015,4 hPa 0,0 l/m 2,6 km/h (1 Bft) W-SW 243 0 min 0,000 mm 0,0 UV-I 0 W/m -1,0 C 0,1 C 3,2 km/h (1 Bft) 95,83 %
28.04.2016 00:41 0,1 C 92 % 1015,4 hPa 0,0 l/m 1,7 km/h (1 Bft) W-SW 243 0 min 0,000 mm 0,0 UV-I 0 W/m -1,0 C 0,1 C 3,2 km/h (1 Bft) 96,15 %
28.04.2016 00:42 0,0 C 92 % 1015,4 hPa 0,0 l/m 1,7 km/h (1 Bft) W-SW 243 0 min 0,000 mm 0,0 UV-I 0 W/m -1,1 C 0,0 C 3,2 km/h (1 Bft) 95,83 %
28.04.2016 00:43 -0,1 C 92 % 1015,4 hPa 0,0 l/m 2,2 km/h (1 Bft) W-SW 243 0 min 0,000 mm 0,0 UV-I 0 W/m -1,2 C -0,1 C 3,2 km/h (1 Bft) 100,00 %
28.04.2016 00:44 -0,2 C 92 % 1015,4 hPa 0,0 l/m 2,2 km/h (1 Bft) W-SW 243 0 min 0,000 mm 0,0 UV-I 0 W/m -1,3 C -0,2 C 3,2 km/h (1 Bft) 96,30 %
28.04.2016 00:45 -0,1 C 93 % 1015,4 hPa 0,0 l/m 2,1 km/h (1 Bft) W-SW 243 0 min 0,000 mm 0,0 UV-I 0 W/m -1,1 C -0,1 C 3,2 km/h (1 Bft) 100,00 %
28.04.2016 00:46 -0,1 C 93 % 1015,4 hPa 0,0 l/m 2,1 km/h (1 Bft) W-SW 243 0 min 0,000 mm 0,0 UV-I 0 W/m -1,1 C -0,1 C 3,2 km/h (1 Bft) 95,83 %
28.04.2016 00:47 -0,1 C 93 % 1015,3 hPa 0,0 l/m 3,0 km/h (1 Bft) W-SW 237 0 min 0,000 mm 0,0 UV-I 0 W/m -1,1 C -0,1 C 4,8 km/h (1 Bft) 100,00 %
28.04.2016 00:48 -0,1 C 93 % 1015,4 hPa 0,0 l/m 2,5 km/h (1 Bft) SW 234 0 min 0,000 mm 0,0 UV-I 0 W/m -1,1 C -0,1 C 4,8 km/h (1 Bft) 95,83 %
28.04.2016 00:49 0,0 C 93 % 1015,4 hPa 0,0 l/m 1,4 km/h (1 Bft) SW 232 0 min 0,000 mm 0,0 UV-I 0 W/m -1,0 C 0,0 C 3,2 km/h (1 Bft) 100,00 %
28.04.2016 00:50 0,1 C 93 % 1015,4 hPa 0,0 l/m 1,0 km/h (0 Bft) SW 227 0 min 0,000 mm 0,0 UV-I 0 W/m -0,9 C 0,1 C 3,2 km/h (1 Bft) 95,83 %
28.04.2016 00:51 0,1 C 93 % 1015,4 hPa 0,0 l/m 2,2 km/h (1 Bft) S-SW 213 0 min 0,000 mm 0,0 UV-I 0 W/m -0,9 C 0,1 C 4,8 km/h (1 Bft) 100,00 %
28.04.2016 00:52 0,1 C 93 % 1015,4 hPa 0,0 l/m 3,1 km/h (1 Bft) S-SW 205 0 min 0,000 mm 0,0 UV-I 0 W/m -0,9 C 0,1 C 4,8 km/h (1 Bft) 95,83 %
28.04.2016 00:53 0,2 C 93 % 1015,4 hPa 0,0 l/m 3,2 km/h (1 Bft) S-SW 197 0 min 0,000 mm 0,0 UV-I 0 W/m -0,8 C 0,2 C 4,8 km/h (1 Bft) 86,96 %
28.04.2016 00:54 0,2 C 93 % 1015,4 hPa 0,0 l/m 3,6 km/h (1 Bft) S-SW 197 0 min 0,000 mm 0,0 UV-I 0 W/m -0,8 C 0,2 C 4,8 km/h (1 Bft) 95,83 %
28.04.2016 00:55 0,1 C 92 % 1015,4 hPa 0,0 l/m 2,8 km/h (1 Bft) S-SW 197 0 min 0,000 mm 0,0 UV-I 0 W/m -1,0 C 0,1 C 3,2 km/h (1 Bft) 100,00 %
28.04.2016 00:56 0,1 C 92 % 1015,4 hPa 0,0 l/m 2,6 km/h (1 Bft) S-SW 197 0 min 0,000 mm 0,0 UV-I 0 W/m -1,0 C 0,1 C 3,2 km/h (1 Bft) 97,37 %
28.04.2016 00:57 0,1 C 92 % 1015,5 hPa 0,0 l/m 2,8 km/h (1 Bft) S-SW 197 0 min 0,000 mm 0,0 UV-I 0 W/m -1,0 C 0,1 C 3,2 km/h (1 Bft) 95,65 %
28.04.2016 00:58 0,1 C 93 % 1015,5 hPa 0,0 l/m 3,0 km/h (1 Bft) S-SW 196 0 min 0,000 mm 0,0 UV-I 0 W/m -0,9 C 0,1 C 4,8 km/h (1 Bft) 100,00 %
28.04.2016 00:59 0,1 C 93 % 1015,5 hPa 0,0 l/m 3,2 km/h (1 Bft) S-SW 196 0 min 0,000 mm 0,0 UV-I 0 W/m -0,9 C 0,1 C 4,8 km/h (1 Bft) 95,83 %
28.04.2016 01:00 0,1 C 93 % 1015,4 hPa 0,0 l/m 3,2 km/h (1 Bft) S-SW 196 0 min 0,000 mm 0,0 UV-I 0 W/m -0,9 C 0,1 C 4,8 km/h (1 Bft) 95,65 %
28.04.2016 01:02 0,1 C 93 % 1015,5 hPa 0,0 l/m 3,0 km/h (1 Bft) S 175 0 min 0,000 mm 0,0 UV-I 0 W/m -0,9 C 0,1 C 4,8 km/h (1 Bft) 97,87 %
28.04.2016 01:03 0,2 C 93 % 1015,5 hPa 0,0 l/m 3,0 km/h (1 Bft) S 172 0 min 0,000 mm 0,0 UV-I 0 W/m -0,8 C 0,2 C 4,8 km/h (1 Bft) 100,00 %
28.04.2016 01:04 0,2 C 93 % 1015,5 hPa 0,0 l/m 3,2 km/h (1 Bft) S 172 0 min 0,000 mm 0,0 UV-I 0 W/m -0,8 C 0,2 C 4,8 km/h (1 Bft) 95,65 %
28.04.2016 01:05 0,2 C 92 % 1015,5 hPa 0,0 l/m 2,7 km/h (1 Bft) S 171 0 min 0,000 mm 0,0 UV-I 0 W/m -0,9 C 0,2 C 4,8 km/h (1 Bft) 100,00 %
28.04.2016 01:06 0,2 C 92 % 1015,5 hPa 0,0 l/m 4,1 km/h (1 Bft) S 171 0 min 0,000 mm 0,0 UV-I 0 W/m -0,9 C 0,2 C 6,4 km/h (2 Bft) 95,65 %
28.04.2016 01:07 0,2 C 92 % 1015,5 hPa 0,0 l/m 3,8 km/h (1 Bft) S 173 0 min 0,000 mm 0,0 UV-I 0 W/m -0,9 C 0,2 C 8,0 km/h (2 Bft) 100,00 %
28.04.2016 01:08 0,2 C 92 % 1015,5 hPa 0,0 l/m 2,5 km/h (1 Bft) S 173 0 min 0,000 mm 0,0 UV-I 0 W/m -0,9 C 0,2 C 4,8 km/h (1 Bft) 91,30 %
28.04.2016 01:09 0,2 C 93 % 1015,5 hPa 0,0 l/m 3,2 km/h (1 Bft) S 172 0 min 0,000 mm 0,0 UV-I 0 W/m -0,8 C 0,2 C 4,8 km/h (1 Bft) 100,00 %
28.04.2016 01:10 0,2 C 92 % 1015,5 hPa 0,0 l/m 3,9 km/h (1 Bft) S-SO 166 0 min 0,000 mm 0,0 UV-I 0 W/m -0,9 C 0,2 C 4,8 km/h (1 Bft) 95,65 %
28.04.2016 01:11 0,2 C 92 % 1015,5 hPa 0,0 l/m 3,6 km/h (1 Bft) S-SO 161 0 min 0,000 mm 0,0 UV-I 0 W/m -0,9 C 0,2 C 8,0 km/h (2 Bft) 95,83 %
28.04.2016 01:12 0,2 C 93 % 1015,5 hPa 0,0 l/m 1,7 km/h (1 Bft) S-SO 162 0 min 0,000 mm 0,0 UV-I 0 W/m -0,8 C 0,2 C 3,2 km/h (1 Bft) 100,00 %
28.04.2016 01:13 0,3 C 93 % 1015,4 hPa 0,0 l/m 1,5 km/h (1 Bft) S-SO 163 0 min 0,000 mm 0,0 UV-I 0 W/m -0,7 C 0,3 C 3,2 km/h (1 Bft) 100,00 %
28.04.2016 01:14 0,3 C 93 % 1015,4 hPa 0,0 l/m 1,9 km/h (1 Bft) S-SO 163 0 min 0,000 mm 0,0 UV-I 0 W/m -0,7 C 0,3 C 3,2 km/h (1 Bft) 100,00 %
28.04.2016 01:15 0,3 C 92 % 1015,4 hPa 0,0 l/m 1,3 km/h (1 Bft) S-SO 163 0 min 0,000 mm 0,0 UV-I 0 W/m -0,8 C 0,3 C 1,6 km/h (1 Bft) 100,00 %
28.04.2016 01:16 0,4 C 92 % 1015,5 hPa 0,0 l/m 1,5 km/h (1 Bft) S-SO 163 0 min 0,000 mm 0,0 UV-I 0 W/m -0,7 C 0,4 C 3,2 km/h (1 Bft) 100,00 %
28.04.2016 01:17 0,4 C 92 % 1015,5 hPa 0,0 l/m 2,4 km/h (1 Bft) S-SO 163 0 min 0,000 mm 0,0 UV-I 0 W/m -0,7 C 0,4 C 6,4 km/h (2 Bft) 100,00 %
28.04.2016 01:18 0,4 C 92 % 1015,4 hPa 0,0 l/m 3,2 km/h (1 Bft) S-SO 163 0 min 0,000 mm 0,0 UV-I 0 W/m -0,7 C 0,4 C 6,4 km/h (2 Bft) 100,00 %
28.04.2016 01:19 0,3 C 92 % 1015,4 hPa 0,0 l/m 3,6 km/h (1 Bft) S-SO 163 0 min 0,000 mm 0,0 UV-I 0 W/m -0,8 C 0,3 C 6,4 km/h (2 Bft) 95,65 %
28.04.2016 01:20 0,3 C 92 % 1015,4 hPa 0,0 l/m 3,6 km/h (1 Bft) S-SO 163 0 min 0,000 mm 0,0 UV-I 0 W/m -0,8 C 0,3 C 6,4 km/h (2 Bft) 95,83 %
28.04.2016 01:21 0,3 C 92 % 1015,3 hPa 0,0 l/m 4,2 km/h (1 Bft) S-SO 163 0 min 0,000 mm 0,0 UV-I 0 W/m -0,8 C 0,3 C 6,4 km/h (2 Bft) 95,65 %
28.04.2016 01:22 0,3 C 92 % 1015,4 hPa 0,0 l/m 5,4 km/h (1 Bft) S-SO 164 0 min 0,000 mm 0,0 UV-I 0 W/m -0,8 C 0,3 C 6,4 km/h (2 Bft) 100,00 %
28.04.2016 01:23 0,2 C 92 % 1015,3 hPa 0,0 l/m 4,6 km/h (1 Bft) S-SO 164 0 min 0,000 mm 0,0 UV-I 0 W/m -0,9 C 0,2 C 6,4 km/h (2 Bft) 100,00 %
28.04.2016 01:24 0,2 C 92 % 1015,3 hPa 0,0 l/m 3,6 km/h (1 Bft) S-SO 164 0 min 0,000 mm 0,0 UV-I 0 W/m -0,9 C 0,2 C 6,4 km/h (2 Bft) 100,00 %
28.04.2016 01:25 0,2 C 92 % 1015,3 hPa 0,0 l/m 3,9 km/h (1 Bft) S-SO 164 0 min 0,000 mm 0,0 UV-I 0 W/m -0,9 C 0,2 C 6,4 km/h (2 Bft) 96,15 %
28.04.2016 01:26 0,1 C 92 % 1015,3 hPa 0,0 l/m 3,6 km/h (1 Bft) S-SO 164 0 min 0,000 mm 0,0 UV-I 0 W/m -1,0 C 0,1 C 6,4 km/h (2 Bft) 100,00 %
28.04.2016 01:27 0,1 C 92 % 1015,3 hPa 0,0 l/m 4,7 km/h (1 Bft) S-SO 164 0 min 0,000 mm 0,0 UV-I 0 W/m -1,0 C 0,1 C 6,4 km/h (2 Bft) 100,00 %
28.04.2016 01:28 -0,1 C 92 % 1015,3 hPa 0,0 l/m 3,9 km/h (1 Bft) S-SO 164 0 min 0,000 mm 0,0 UV-I 0 W/m -1,2 C -0,1 C 6,4 km/h (2 Bft) 95,83 %
28.04.2016 01:29 -0,1 C 92 % 1015,3 hPa 0,0 l/m 2,9 km/h (1 Bft) S-SO 164 0 min 0,000 mm 0,0 UV-I 0 W/m -1,2 C -0,1 C 3,2 km/h (1 Bft) 100,00 %
28.04.2016 01:30 -0,2 C 92 % 1015,3 hPa 0,0 l/m 2,3 km/h (1 Bft) S-SO 164 0 min 0,000 mm 0,0 UV-I 0 W/m -1,3 C -0,2 C 3,2 km/h (1 Bft) 100,00 %
28.04.2016 01:31 -0,2 C 92 % 1015,3 hPa 0,0 l/m 3,3 km/h (1 Bft) S-SO 164 0 min 0,000 mm 0,0 UV-I 0 W/m -1,3 C -0,2 C 6,4 km/h (2 Bft) 100,00 %
28.04.2016 01:32 -0,3 C 93 % 1015,3 hPa 0,0 l/m 3,9 km/h (1 Bft) S-SO 164 0 min 0,000 mm 0,0 UV-I 0 W/m -1,3 C -0,3 C 6,4 km/h (2 Bft) 100,00 %
28.04.2016 01:33 -0,3 C 93 % 1015,2 hPa 0,0 l/m 2,7 km/h (1 Bft) S-SO 164 0 min 0,000 mm 0,0 UV-I 0 W/m -1,3 C -0,3 C 3,2 km/h (1 Bft) 91,30 %
28.04.2016 01:34 -0,4 C 93 % 1015,2 hPa 0,0 l/m 3,0 km/h (1 Bft) S-SO 164 0 min 0,000 mm 0,0 UV-I 0 W/m -1,4 C -0,4 C 3,2 km/h (1 Bft) 100,00 %
28.04.2016 01:35 -0,4 C 93 % 1015,2 hPa 0,0 l/m 3,1 km/h (1 Bft) S-SO 164 0 min 0,000 mm 0,0 UV-I 0 W/m -1,4 C -0,4 C 3,2 km/h (1 Bft) 100,00 %
28.04.2016 01:36 -0,4 C 93 % 1015,2 hPa 0,0 l/m 3,3 km/h (1 Bft) S-SO 164 0 min 0,000 mm 0,0 UV-I 0 W/m -1,4 C -0,4 C 6,4 km/h (2 Bft) 95,65 %
28.04.2016 01:37 -0,5 C 93 % 1015,2 hPa 0,0 l/m 2,9 km/h (1 Bft) S-SO 164 0 min 0,000 mm 0,0 UV-I 0 W/m -1,5 C -0,5 C 3,2 km/h (1 Bft) 100,00 %
28.04.2016 01:38 -0,5 C 93 % 1015,2 hPa 0,0 l/m 3,2 km/h (1 Bft) S-SO 164 0 min 0,000 mm 0,0 UV-I 0 W/m -1,5 C -0,5 C 6,4 km/h (2 Bft) 100,00 %
28.04.2016 01:39 -0,5 C 93 % 1015,3 hPa 0,0 l/m 3,6 km/h (1 Bft) S-SO 164 0 min 0,000 mm 0,0 UV-I 0 W/m -1,5 C -0,5 C 6,4 km/h (2 Bft) 100,00 %
28.04.2016 01:40 -0,5 C 94 % 1015,3 hPa 0,0 l/m 3,4 km/h (1 Bft) S-SO 164 0 min 0,000 mm 0,0 UV-I 0 W/m -1,3 C -0,5 C 6,4 km/h (2 Bft) 100,00 %
28.04.2016 01:41 -0,5 C 94 % 1015,2 hPa 0,0 l/m 3,4 km/h (1 Bft) S-SO 164 0 min 0,000 mm 0,0 UV-I 0 W/m -1,3 C -0,5 C 6,4 km/h (2 Bft) 100,00 %
28.04.2016 01:42 -0,5 C 94 % 1015,2 hPa 0,0 l/m 3,5 km/h (1 Bft) S-SO 164 0 min 0,000 mm 0,0 UV-I 0 W/m -1,3 C -0,5 C 6,4 km/h (2 Bft) 100,00 %
28.04.2016 01:43 -0,5 C 94 % 1015,2 hPa 0,0 l/m 3,6 km/h (1 Bft) S-SO 164 0 min 0,000 mm 0,0 UV-I 0 W/m -1,3 C -0,5 C 6,4 km/h (2 Bft) 95,83 %
28.04.2016 01:44 -0,5 C 94 % 1015,2 hPa 0,0 l/m 3,0 km/h (1 Bft) S-SO 164 0 min 0,000 mm 0,0 UV-I 0 W/m -1,3 C -0,5 C 6,4 km/h (2 Bft) 100,00 %
28.04.2016 01:45 -0,5 C 94 % 1015,2 hPa 0,0 l/m 2,7 km/h (1 Bft) S-SO 164 0 min 0,000 mm 0,0 UV-I 0 W/m -1,3 C -0,5 C 3,2 km/h (1 Bft) 100,00 %
28.04.2016 01:46 -0,6 C 94 % 1015,2 hPa 0,0 l/m 2,5 km/h (1 Bft) S-SO 164 0 min 0,000 mm 0,0 UV-I 0 W/m -1,4 C -0,6 C 3,2 km/h (1 Bft) 100,00 %
28.04.2016 01:47 -0,5 C 94 % 1015,2 hPa 0,0 l/m 2,0 km/h (1 Bft) S-SO 164 0 min 0,000 mm 0,0 UV-I 0 W/m -1,3 C -0,5 C 3,2 km/h (1 Bft) 95,83 %
28.04.2016 01:48 -0,5 C 94 % 1015,2 hPa 0,0 l/m 1,1 km/h (1 Bft) S-SO 164 0 min 0,000 mm 0,0 UV-I 0 W/m -1,3 C -0,5 C 1,6 km/h (1 Bft) 95,65 %
28.04.2016 01:49 -0,5 C 94 % 1015,2 hPa 0,0 l/m 1,5 km/h (1 Bft) S-SO 164 0 min 0,000 mm 0,0 UV-I 0 W/m -1,3 C -0,5 C 3,2 km/h (1 Bft) 100,00 %
28.04.2016 01:50 -0,5 C 94 % 1015,2 hPa 0,0 l/m 1,1 km/h (1 Bft) S-SO 164 0 min 0,000 mm 0,0 UV-I 0 W/m -1,3 C -0,5 C 1,6 km/h (1 Bft) 95,65 %
28.04.2016 01:51 -0,5 C 94 % 1015,2 hPa 0,0 l/m 0,1 km/h (0 Bft) S-SO 164 0 min 0,000 mm 0,0 UV-I 0 W/m -1,3 C -0,5 C 1,6 km/h (1 Bft) 100,00 %
28.04.2016 01:52 -0,6 C 94 % 1015,2 hPa 0,0 l/m 0,0 km/h (0 Bft) S-SO 164 0 min 0,000 mm 0,0 UV-I 0 W/m -1,4 C -0,6 C 0,0 km/h (0 Bft) 95,65 %
28.04.2016 01:53 -0,6 C 94 % 1015,2 hPa 0,0 l/m 0,0 km/h (0 Bft) S-SO 164 0 min 0,000 mm 0,0 UV-I 0 W/m -1,4 C -0,6 C 0,0 km/h (0 Bft) 100,00 %
28.04.2016 01:54 -0,5 C 94 % 1015,3 hPa 0,0 l/m 0,0 km/h (0 Bft) S-SO 164 0 min 0,000 mm 0,0 UV-I 0 W/m -1,3 C -0,5 C 0,0 km/h (0 Bft) 100,00 %
28.04.2016 01:55 -0,5 C 94 % 1015,3 hPa 0,0 l/m 0,3 km/h (0 Bft) S-SO 164 0 min 0,000 mm 0,0 UV-I 0 W/m -1,3 C -0,5 C 1,6 km/h (1 Bft) 95,83 %
28.04.2016 01:56 -0,6 C 94 % 1015,3 hPa 0,0 l/m 3,1 km/h (1 Bft) SO 142 0 min 0,000 mm 0,0 UV-I 0 W/m -1,4 C -0,6 C 6,4 km/h (2 Bft) 95,65 %
28.04.2016 01:57 -0,6 C 94 % 1015,3 hPa 0,0 l/m 4,9 km/h (1 Bft) NO 51 0 min 0,000 mm 0,0 UV-I 0 W/m -1,4 C -0,6 C 6,4 km/h (2 Bft) 100,00 %
28.04.2016 01:58 -0,7 C 94 % 1015,3 hPa 0,0 l/m 5,9 km/h (2 Bft) NO 47 0 min 0,000 mm 0,0 UV-I 0 W/m -1,5 C -0,7 C 8,0 km/h (2 Bft) 92,59 %
28.04.2016 01:59 -0,8 C 93 % 1015,3 hPa 0,0 l/m 5,9 km/h (2 Bft) NO 44 0 min 0,000 mm 0,0 UV-I 0 W/m -1,8 C -0,8 C 6,4 km/h (2 Bft) 100,00 %
28.04.2016 02:00 -0,8 C 94 % 1015,3 hPa 0,0 l/m 5,8 km/h (2 Bft) NO 40 0 min 0,000 mm 0,0 UV-I 0 W/m -1,6 C -0,8 C 6,4 km/h (2 Bft) 95,83 %
28.04.2016 02:02 -0,9 C 94 % 1015,3 hPa 0,0 l/m 6,0 km/h (2 Bft) NO 46 0 min 0,000 mm 0,0 UV-I 0 W/m -1,7 C -0,9 C 6,4 km/h (2 Bft) 100,00 %
28.04.2016 02:03 -1,1 C 94 % 1015,3 hPa 0,0 l/m 5,7 km/h (1 Bft) NO 48 0 min 0,000 mm 0,0 UV-I 0 W/m -1,9 C -1,1 C 6,4 km/h (2 Bft) 100,00 %
28.04.2016 02:04 -1,1 C 94 % 1015,3 hPa 0,0 l/m 5,7 km/h (1 Bft) NO 48 0 min 0,000 mm 0,0 UV-I 0 W/m -1,9 C -1,1 C 6,4 km/h (2 Bft) 96,30 %
28.04.2016 02:05 -1,0 C 94 % 1015,3 hPa 0,0 l/m 4,7 km/h (1 Bft) NO 48 0 min 0,000 mm 0,0 UV-I 0 W/m -1,8 C -1,0 C 6,4 km/h (2 Bft) 100,00 %
28.04.2016 02:06 -0,9 C 95 % 1015,3 hPa 0,0 l/m 4,6 km/h (1 Bft) NO 48 0 min 0,000 mm 0,0 UV-I 0 W/m -1,6 C -0,9 C 6,4 km/h (2 Bft) 95,83 %
28.04.2016 02:07 -0,9 C 95 % 1015,3 hPa 0,0 l/m 5,1 km/h (1 Bft) NO 48 0 min 0,000 mm 0,0 UV-I 0 W/m -1,6 C -0,9 C 6,4 km/h (2 Bft) 91,30 %
28.04.2016 02:08 -0,9 C 95 % 1015,3 hPa 0,0 l/m 4,5 km/h (1 Bft) NO 48 0 min 0,000 mm 0,0 UV-I 0 W/m -1,6 C -0,9 C 4,8 km/h (1 Bft) 100,00 %
28.04.2016 02:09 -0,8 C 95 % 1015,3 hPa 0,0 l/m 4,6 km/h (1 Bft) NO 51 0 min 0,000 mm 0,0 UV-I 0 W/m -1,5 C -0,8 C 4,8 km/h (1 Bft) 88,46 %
28.04.2016 02:10 -0,7 C 95 % 1015,3 hPa 0,0 l/m 4,3 km/h (1 Bft) NO 51 0 min 0,000 mm 0,0 UV-I 0 W/m -1,4 C -0,7 C 4,8 km/h (1 Bft) 100,00 %
28.04.2016 02:11 -0,6 C 95 % 1015,3 hPa 0,0 l/m 4,4 km/h (1 Bft) NO 51 0 min 0,000 mm 0,0 UV-I 0 W/m -1,3 C -0,6 C 4,8 km/h (1 Bft) 100,00 %
28.04.2016 02:12 -0,6 C 95 % 1015,3 hPa 0,0 l/m 3,8 km/h (1 Bft) NO 51 0 min 0,000 mm 0,0 UV-I 0 W/m -1,3 C -0,6 C 4,8 km/h (1 Bft) 100,00 %
28.04.2016 02:13 -0,6 C 95 % 1015,3 hPa 0,0 l/m 3,0 km/h (1 Bft) NO 51 0 min 0,000 mm 0,0 UV-I 0 W/m -1,3 C -0,6 C 4,8 km/h (1 Bft) 100,00 %
28.04.2016 02:14 -0,6 C 95 % 1015,3 hPa 0,0 l/m 1,9 km/h (1 Bft) NO 51 0 min 0,000 mm 0,0 UV-I 0 W/m -1,3 C -0,6 C 3,2 km/h (1 Bft) 95,65 %
28.04.2016 02:15 -0,6 C 95 % 1015,3 hPa 0,0 l/m 0,7 km/h (0 Bft) NO 51 0 min 0,000 mm 0,0 UV-I 0 W/m -1,3 C -0,6 C 1,6 km/h (1 Bft) 95,83 %
28.04.2016 02:16 -0,6 C 95 % 1015,3 hPa 0,0 l/m 0,3 km/h (0 Bft) NO 51 0 min 0,000 mm 0,0 UV-I 0 W/m -1,3 C -0,6 C 1,6 km/h (1 Bft) 100,00 %
28.04.2016 02:17 -0,6 C 95 % 1015,3 hPa 0,0 l/m 0,0 km/h (0 Bft) NO 51 0 min 0,000 mm 0,0 UV-I 0 W/m -1,3 C -0,6 C 0,0 km/h (0 Bft) 95,83 %
28.04.2016 02:18 -0,6 C 94 % 1015,3 hPa 0,0 l/m 0,0 km/h (0 Bft) NO 51 0 min 0,000 mm 0,0 UV-I 0 W/m -1,4 C -0,6 C 0,0 km/h (0 Bft) 100,00 %
28.04.2016 02:19 -0,6 C 95 % 1015,3 hPa 0,0 l/m 0,7 km/h (0 Bft) NO 51 0 min 0,000 mm 0,0 UV-I 0 W/m -1,3 C -0,6 C 1,6 km/h (1 Bft) 100,00 %
28.04.2016 02:20 -0,7 C 94 % 1015,3 hPa 0,0 l/m 2,7 km/h (1 Bft) NO 51 0 min 0,000 mm 0,0 UV-I 0 W/m -1,5 C -0,7 C 4,8 km/h (1 Bft) 100,00 %
28.04.2016 02:21 -0,7 C 94 % 1015,2 hPa 0,0 l/m 3,1 km/h (1 Bft) NO 51 0 min 0,000 mm 0,0 UV-I 0 W/m -1,5 C -0,7 C 4,8 km/h (1 Bft) 100,00 %
28.04.2016 02:22 -0,7 C 94 % 1015,3 hPa 0,0 l/m 4,4 km/h (1 Bft) O 84 0 min 0,000 mm 0,0 UV-I 0 W/m -1,5 C -0,7 C 4,8 km/h (1 Bft) 100,00 %
28.04.2016 02:23 -0,7 C 94 % 1015,3 hPa 0,0 l/m 4,8 km/h (1 Bft) O 93 0 min 0,000 mm 0,0 UV-I 0 W/m -1,5 C -0,7 C 6,4 km/h (2 Bft) 100,00 %
28.04.2016 02:24 -0,8 C 95 % 1015,3 hPa 0,0 l/m 4,6 km/h (1 Bft) O 93 0 min 0,000 mm 0,0 UV-I 0 W/m -1,5 C -0,8 C 4,8 km/h (1 Bft) 91,30 %
28.04.2016 02:25 -0,8 C 94 % 1015,3 hPa 0,0 l/m 3,8 km/h (1 Bft) O 93 0 min 0,000 mm 0,0 UV-I 0 W/m -1,6 C -0,8 C 4,8 km/h (1 Bft) 100,00 %
28.04.2016 02:26 -0,8 C 94 % 1015,2 hPa 0,0 l/m 3,8 km/h (1 Bft) O 93 0 min 0,000 mm 0,0 UV-I 0 W/m -1,6 C -0,8 C 4,8 km/h (1 Bft) 100,00 %
28.04.2016 02:27 -0,8 C 94 % 1015,3 hPa 0,0 l/m 4,7 km/h (1 Bft) O 93 0 min 0,000 mm 0,0 UV-I 0 W/m -1,6 C -0,8 C 4,8 km/h (1 Bft) 100,00 %
28.04.2016 02:28 -0,8 C 95 % 1015,2 hPa 0,0 l/m 4,9 km/h (1 Bft) O 93 0 min 0,000 mm 0,0 UV-I 0 W/m -1,5 C -0,8 C 6,4 km/h (2 Bft) 100,00 %
28.04.2016 02:29 -0,8 C 95 % 1015,2 hPa 0,0 l/m 4,4 km/h (1 Bft) O 93 0 min 0,000 mm 0,0 UV-I 0 W/m -1,5 C -0,8 C 4,8 km/h (1 Bft) 100,00 %
28.04.2016 02:30 -0,8 C 95 % 1015,2 hPa 0,0 l/m 4,7 km/h (1 Bft) O 93 0 min 0,000 mm 0,0 UV-I 0 W/m -1,5 C -0,8 C 4,8 km/h (1 Bft) 100,00 %
28.04.2016 02:31 -0,8 C 95 % 1015,2 hPa 0,0 l/m 4,0 km/h (1 Bft) O 93 0 min 0,000 mm 0,0 UV-I 0 W/m -1,5 C -0,8 C 4,8 km/h (1 Bft) 100,00 %
28.04.2016 02:32 -0,8 C 95 % 1015,2 hPa 0,0 l/m 3,9 km/h (1 Bft) O 93 0 min 0,000 mm 0,0 UV-I 0 W/m -1,5 C -0,8 C 4,8 km/h (1 Bft) 100,00 %
28.04.2016 02:33 -0,8 C 95 % 1015,2 hPa 0,0 l/m 3,8 km/h (1 Bft) O 93 0 min 0,000 mm 0,0 UV-I 0 W/m -1,5 C -0,8 C 4,8 km/h (1 Bft) 100,00 %
28.04.2016 02:34 -0,8 C 95 % 1015,2 hPa 0,0 l/m 3,8 km/h (1 Bft) O 93 0 min 0,000 mm 0,0 UV-I 0 W/m -1,5 C -0,8 C 4,8 km/h (1 Bft) 100,00 %
28.04.2016 02:35 -0,8 C 95 % 1015,3 hPa 0,0 l/m 2,6 km/h (1 Bft) O 93 0 min 0,000 mm 0,0 UV-I 0 W/m -1,5 C -0,8 C 3,2 km/h (1 Bft) 95,83 %
28.04.2016 02:36 -0,8 C 95 % 1015,3 hPa 0,0 l/m 2,3 km/h (1 Bft) O 93 0 min 0,000 mm 0,0 UV-I 0 W/m -1,5 C -0,8 C 3,2 km/h (1 Bft) 95,65 %
28.04.2016 02:37 -0,8 C 95 % 1015,3 hPa 0,0 l/m 2,3 km/h (1 Bft) O 93 0 min 0,000 mm 0,0 UV-I 0 W/m -1,5 C -0,8 C 3,2 km/h (1 Bft) 100,00 %
28.04.2016 02:38 -0,8 C 95 % 1015,3 hPa 0,0 l/m 2,4 km/h (1 Bft) O 93 0 min 0,000 mm 0,0 UV-I 0 W/m -1,5 C -0,8 C 3,2 km/h (1 Bft) 91,30 %
28.04.2016 02:39 -0,8 C 95 % 1015,3 hPa 0,0 l/m 2,8 km/h (1 Bft) O 93 0 min 0,000 mm 0,0 UV-I 0 W/m -1,5 C -0,8 C 4,8 km/h (1 Bft) 95,83 %
28.04.2016 02:40 -0,8 C 95 % 1015,3 hPa 0,0 l/m 2,1 km/h (1 Bft) O 93 0 min 0,000 mm 0,0 UV-I 0 W/m -1,5 C -0,8 C 3,2 km/h (1 Bft) 100,00 %
28.04.2016 02:41 -0,9 C 95 % 1015,3 hPa 0,0 l/m 0,6 km/h (0 Bft) O 93 0 min 0,000 mm 0,0 UV-I 0 W/m -1,6 C -0,9 C 1,6 km/h (1 Bft) 85,71 %
28.04.2016 02:42 -0,8 C 95 % 1015,3 hPa 0,0 l/m 0,1 km/h (0 Bft) O 93 0 min 0,000 mm 0,0 UV-I 0 W/m -1,5 C -0,8 C 1,6 km/h (1 Bft) 100,00 %
28.04.2016 02:43 -0,9 C 95 % 1015,4 hPa 0,0 l/m 1,5 km/h (1 Bft) N 5 0 min 0,000 mm 0,0 UV-I 0 W/m -1,6 C -0,9 C 3,2 km/h (1 Bft) 95,65 %
28.04.2016 02:44 -0,9 C 95 % 1015,4 hPa 0,0 l/m 0,9 km/h (0 Bft) N 5 0 min 0,000 mm 0,0 UV-I 0 W/m -1,6 C -0,9 C 1,6 km/h (1 Bft) 95,83 %
28.04.2016 02:45 -0,9 C 95 % 1015,3 hPa 0,0 l/m 0,0 km/h (0 Bft) N 5 0 min 0,000 mm 0,0 UV-I 0 W/m -1,6 C -0,9 C 0,0 km/h (0 Bft) 95,65 %
28.04.2016 02:46 -0,9 C 95 % 1015,3 hPa 0,0 l/m 1,4 km/h (1 Bft) O-NO 78 0 min 0,000 mm 0,0 UV-I 0 W/m -1,6 C -0,9 C 1,6 km/h (1 Bft) 92,59 %
28.04.2016 02:47 -0,9 C 95 % 1015,3 hPa 0,0 l/m 2,7 km/h (1 Bft) O 101 0 min 0,000 mm 0,0 UV-I 0 W/m -1,6 C -0,9 C 4,8 km/h (1 Bft) 100,00 %
28.04.2016 02:48 -0,9 C 95 % 1015,3 hPa 0,0 l/m 3,4 km/h (1 Bft) O 101 0 min 0,000 mm 0,0 UV-I 0 W/m -1,6 C -0,9 C 4,8 km/h (1 Bft) 96,30 %
28.04.2016 02:49 -0,9 C 95 % 1015,3 hPa 0,0 l/m 2,9 km/h (1 Bft) O 101 0 min 0,000 mm 0,0 UV-I 0 W/m -1,6 C -0,9 C 4,8 km/h (1 Bft) 100,00 %
28.04.2016 02:50 -0,9 C 95 % 1015,3 hPa 0,0 l/m 0,3 km/h (0 Bft) O 101 0 min 0,000 mm 0,0 UV-I 0 W/m -1,6 C -0,9 C 1,6 km/h (1 Bft) 95,83 %
28.04.2016 02:51 -0,9 C 95 % 1015,4 hPa 0,0 l/m 1,7 km/h (1 Bft) O 101 0 min 0,000 mm 0,0 UV-I 0 W/m -1,6 C -0,9 C 3,2 km/h (1 Bft) 100,00 %
28.04.2016 02:52 -0,9 C 95 % 1015,3 hPa 0,0 l/m 0,7 km/h (0 Bft) O 101 0 min 0,000 mm 0,0 UV-I 0 W/m -1,6 C -0,9 C 1,6 km/h (1 Bft) 91,67 %
28.04.2016 02:53 -0,9 C 95 % 1015,3 hPa 0,0 l/m 0,2 km/h (0 Bft) O 101 0 min 0,000 mm 0,0 UV-I 0 W/m -1,6 C -0,9 C 1,6 km/h (1 Bft) 91,30 %
28.04.2016 02:54 -1,0 C 95 % 1015,4 hPa 0,0 l/m 1,0 km/h (0 Bft) O-SO 111 0 min 0,000 mm 0,0 UV-I 0 W/m -1,7 C -1,0 C 3,2 km/h (1 Bft) 100,00 %
28.04.2016 02:55 -1,0 C 95 % 1015,3 hPa 0,0 l/m 2,0 km/h (1 Bft) O-SO 119 0 min 0,000 mm 0,0 UV-I 0 W/m -1,7 C -1,0 C 3,2 km/h (1 Bft) 100,00 %
28.04.2016 02:56 -1,0 C 95 % 1015,3 hPa 0,0 l/m 2,4 km/h (1 Bft) O-SO 121 0 min 0,000 mm 0,0 UV-I 0 W/m -1,7 C -1,0 C 3,2 km/h (1 Bft) 96,15 %
28.04.2016 02:57 -1,0 C 95 % 1015,4 hPa 0,0 l/m 0,9 km/h (0 Bft) O-SO 121 0 min 0,000 mm 0,0 UV-I 0 W/m -1,7 C -1,0 C 1,6 km/h (1 Bft) 95,83 %
28.04.2016 02:58 -1,0 C 95 % 1015,4 hPa 0,0 l/m 0,3 km/h (0 Bft) O-SO 121 0 min 0,000 mm 0,0 UV-I 0 W/m -1,7 C -1,0 C 1,6 km/h (1 Bft) 100,00 %
28.04.2016 02:59 -1,0 C 95 % 1015,4 hPa 0,0 l/m 0,5 km/h (0 Bft) O-SO 121 0 min 0,000 mm 0,0 UV-I 0 W/m -1,7 C -1,0 C 1,6 km/h (1 Bft) 91,67 %
28.04.2016 03:00 -1,1 C 95 % 1015,4 hPa 0,0 l/m 1,2 km/h (1 Bft) O-SO 121 0 min 0,000 mm 0,0 UV-I 0 W/m -1,8 C -1,1 C 1,6 km/h (1 Bft) 95,65 %
28.04.2016 03:02 -1,1 C 95 % 1015,3 hPa 0,0 l/m 0,6 km/h (0 Bft) O-SO 121 0 min 0,000 mm 0,0 UV-I 0 W/m -1,8 C -1,1 C 1,6 km/h (1 Bft) 95,74 %
28.04.2016 03:03 -1,2 C 95 % 1015,3 hPa 0,0 l/m 1,2 km/h (1 Bft) O-SO 121 0 min 0,000 mm 0,0 UV-I 0 W/m -1,9 C -1,2 C 1,6 km/h (1 Bft) 95,83 %
28.04.2016 03:04 -1,2 C 95 % 1015,3 hPa 0,0 l/m 1,1 km/h (1 Bft) O-SO 121 0 min 0,000 mm 0,0 UV-I 0 W/m -1,9 C -1,2 C 1,6 km/h (1 Bft) 86,96 %
28.04.2016 03:05 -1,2 C 95 % 1015,4 hPa 0,0 l/m 0,2 km/h (0 Bft) O-SO 121 0 min 0,000 mm 0,0 UV-I 0 W/m -1,9 C -1,2 C 1,6 km/h (1 Bft) 100,00 %
28.04.2016 03:06 -1,2 C 95 % 1015,4 hPa 0,0 l/m 0,0 km/h (0 Bft) O-SO 121 0 min 0,000 mm 0,0 UV-I 0 W/m -1,9 C -1,2 C 0,0 km/h (0 Bft) 91,30 %
28.04.2016 03:07 -1,2 C 95 % 1015,4 hPa 0,0 l/m 0,0 km/h (0 Bft) O-SO 121 0 min 0,000 mm 0,0 UV-I 0 W/m -1,9 C -1,2 C 0,0 km/h (0 Bft) 100,00 %
28.04.2016 03:08 -1,2 C 95 % 1015,4 hPa 0,0 l/m 0,0 km/h (0 Bft) O-SO 121 0 min 0,000 mm 0,0 UV-I 0 W/m -1,9 C -1,2 C 0,0 km/h (0 Bft) 95,65 %
28.04.2016 03:09 -1,2 C 95 % 1015,4 hPa 0,0 l/m 0,0 km/h (0 Bft) O-SO 121 0 min 0,000 mm 0,0 UV-I 0 W/m -1,9 C -1,2 C 0,0 km/h (0 Bft) 100,00 %
28.04.2016 03:10 -1,2 C 95 % 1015,4 hPa 0,0 l/m 0,1 km/h (0 Bft) O-SO 121 0 min 0,000 mm 0,0 UV-I 0 W/m -1,9 C -1,2 C 1,6 km/h (1 Bft) 100,00 %
28.04.2016 03:11 -1,2 C 95 % 1015,4 hPa 0,0 l/m 0,9 km/h (0 Bft) O-SO 121 0 min 0,000 mm 0,0 UV-I 0 W/m -1,9 C -1,2 C 1,6 km/h (1 Bft) 100,00 %
28.04.2016 03:12 -1,2 C 95 % 1015,3 hPa 0,0 l/m 0,2 km/h (0 Bft) O-SO 121 0 min 0,000 mm 0,0 UV-I 0 W/m -1,9 C -1,2 C 1,6 km/h (1 Bft) 95,65 %
28.04.2016 03:13 -1,2 C 95 % 1015,4 hPa 0,0 l/m 0,0 km/h (0 Bft) O-SO 121 0 min 0,000 mm 0,0 UV-I 0 W/m -1,9 C -1,2 C 0,0 km/h (0 Bft) 100,00 %
28.04.2016 03:14 -1,2 C 95 % 1015,3 hPa 0,0 l/m 0,8 km/h (0 Bft) O-SO 121 0 min 0,000 mm 0,0 UV-I 0 W/m -1,9 C -1,2 C 1,6 km/h (1 Bft) 100,00 %
28.04.2016 03:15 -1,2 C 95 % 1015,3 hPa 0,0 l/m 1,0 km/h (0 Bft) O-SO 121 0 min 0,000 mm 0,0 UV-I 0 W/m -1,9 C -1,2 C 1,6 km/h (1 Bft) 95,83 %
28.04.2016 03:16 -1,2 C 95 % 1015,3 hPa 0,0 l/m 0,6 km/h (0 Bft) O-SO 121 0 min 0,000 mm 0,0 UV-I 0 W/m -1,9 C -1,2 C 1,6 km/h (1 Bft) 95,83 %
28.04.2016 03:17 -1,2 C 95 % 1015,3 hPa 0,0 l/m 0,0 km/h (0 Bft) O-SO 121 0 min 0,000 mm 0,0 UV-I 0 W/m -1,9 C -1,2 C 0,0 km/h (0 Bft) 100,00 %
28.04.2016 03:18 -1,2 C 95 % 1015,3 hPa 0,0 l/m 0,0 km/h (0 Bft) O-SO 121 0 min 0,000 mm 0,0 UV-I 0 W/m -1,9 C -1,2 C 0,0 km/h (0 Bft) 100,00 %
28.04.2016 03:19 -1,2 C 95 % 1015,3 hPa 0,0 l/m 0,0 km/h (0 Bft) O-SO 121 0 min 0,000 mm 0,0 UV-I 0 W/m -1,9 C -1,2 C 0,0 km/h (0 Bft) 100,00 %
28.04.2016 03:20 -1,2 C 95 % 1015,3 hPa 0,0 l/m 0,1 km/h (0 Bft) O-SO 121 0 min 0,000 mm 0,0 UV-I 0 W/m -1,9 C -1,2 C 1,6 km/h (1 Bft) 100,00 %
28.04.2016 03:21 -1,2 C 95 % 1015,4 hPa 0,0 l/m 0,8 km/h (0 Bft) O-SO 121 0 min 0,000 mm 0,0 UV-I 0 W/m -1,9 C -1,2 C 1,6 km/h (1 Bft) 100,00 %
28.04.2016 03:22 -1,3 C 95 % 1015,4 hPa 0,0 l/m 0,2 km/h (0 Bft) O-SO 121 0 min 0,000 mm 0,0 UV-I 0 W/m -2,0 C -1,3 C 1,6 km/h (1 Bft) 100,00 %
28.04.2016 03:23 -1,3 C 95 % 1015,4 hPa 0,0 l/m 0,0 km/h (0 Bft) O-SO 121 0 min 0,000 mm 0,0 UV-I 0 W/m -2,0 C -1,3 C 0,0 km/h (0 Bft) 100,00 %
28.04.2016 03:24 -1,3 C 95 % 1015,4 hPa 0,0 l/m 0,8 km/h (0 Bft) O-SO 121 0 min 0,000 mm 0,0 UV-I 0 W/m -2,0 C -1,3 C 1,6 km/h (1 Bft) 100,00 %
28.04.2016 03:25 -1,3 C 95 % 1015,4 hPa 0,0 l/m 1,9 km/h (1 Bft) O-SO 121 0 min 0,000 mm 0,0 UV-I 0 W/m -2,0 C -1,3 C 3,2 km/h (1 Bft) 100,00 %
28.04.2016 03:26 -1,3 C 95 % 1015,4 hPa 0,0 l/m 1,8 km/h (1 Bft) O-SO 121 0 min 0,000 mm 0,0 UV-I 0 W/m -2,0 C -1,3 C 3,2 km/h (1 Bft) 100,00 %
28.04.2016 03:27 -1,2 C 96 % 1015,4 hPa 0,0 l/m 1,5 km/h (1 Bft) O-SO 121 0 min 0,000 mm 0,0 UV-I 0 W/m -1,8 C -1,2 C 1,6 km/h (1 Bft) 91,30 %
28.04.2016 03:28 -1,2 C 96 % 1015,5 hPa 0,0 l/m 1,5 km/h (1 Bft) O-SO 121 0 min 0,000 mm 0,0 UV-I 0 W/m -1,8 C -1,2 C 1,6 km/h (1 Bft) 100,00 %
28.04.2016 03:29 -1,2 C 96 % 1015,4 hPa 0,0 l/m 1,0 km/h (0 Bft) O-SO 121 0 min 0,000 mm 0,0 UV-I 0 W/m -1,8 C -1,2 C 1,6 km/h (1 Bft) 100,00 %
28.04.2016 03:30 -1,2 C 96 % 1015,4 hPa 0,0 l/m 0,0 km/h (0 Bft) O-SO 121 0 min 0,000 mm 0,0 UV-I 0 W/m -1,8 C -1,2 C 0,0 km/h (0 Bft) 100,00 %
28.04.2016 03:31 -1,2 C 96 % 1015,4 hPa 0,0 l/m 0,1 km/h (0 Bft) O-SO 121 0 min 0,000 mm 0,0 UV-I 0 W/m -1,8 C -1,2 C 1,6 km/h (1 Bft) 100,00 %
28.04.2016 03:32 -1,2 C 96 % 1015,3 hPa 0,0 l/m 0,1 km/h (0 Bft) O-SO 121 0 min 0,000 mm 0,0 UV-I 0 W/m -1,8 C -1,2 C 1,6 km/h (1 Bft) 100,00 %
28.04.2016 03:33 -1,2 C 96 % 1015,4 hPa 0,0 l/m 0,1 km/h (0 Bft) O-SO 121 0 min 0,000 mm 0,0 UV-I 0 W/m -1,8 C -1,2 C 1,6 km/h (1 Bft) 100,00 %
28.04.2016 03:34 -1,2 C 96 % 1015,4 hPa 0,0 l/m 0,0 km/h (0 Bft) O-SO 121 0 min 0,000 mm 0,0 UV-I 0 W/m -1,8 C -1,2 C 0,0 km/h (0 Bft) 100,00 %
28.04.2016 03:35 -1,2 C 96 % 1015,3 hPa 0,0 l/m 1,3 km/h (1 Bft) O-SO 121 0 min 0,000 mm 0,0 UV-I 0 W/m -1,8 C -1,2 C 3,2 km/h (1 Bft) 100,00 %
28.04.2016 03:36 -1,2 C 96 % 1015,3 hPa 0,0 l/m 2,4 km/h (1 Bft) O-SO 121 0 min 0,000 mm 0,0 UV-I 0 W/m -1,8 C -1,2 C 3,2 km/h (1 Bft) 95,83 %
28.04.2016 03:37 -1,2 C 96 % 1015,3 hPa 0,0 l/m 1,9 km/h (1 Bft) O-SO 121 0 min 0,000 mm 0,0 UV-I 0 W/m -1,8 C -1,2 C 3,2 km/h (1 Bft) 100,00 %
28.04.2016 03:38 -1,2 C 96 % 1015,3 hPa 0,0 l/m 1,1 km/h (1 Bft) O-SO 121 0 min 0,000 mm 0,0 UV-I 0 W/m -1,8 C -1,2 C 1,6 km/h (1 Bft) 100,00 %
28.04.2016 03:39 -1,2 C 96 % 1015,3 hPa 0,0 l/m 0,8 km/h (0 Bft) O-SO 121 0 min 0,000 mm 0,0 UV-I 0 W/m -1,8 C -1,2 C 1,6 km/h (1 Bft) 100,00 %
28.04.2016 03:40 -1,3 C 96 % 1015,3 hPa 0,0 l/m 1,0 km/h (0 Bft) O-SO 121 0 min 0,000 mm 0,0 UV-I 0 W/m -1,9 C -1,3 C 1,6 km/h (1 Bft) 100,00 %
28.04.2016 03:41 -1,3 C 96 % 1015,3 hPa 0,0 l/m 1,3 km/h (1 Bft) O-SO 121 0 min 0,000 mm 0,0 UV-I 0 W/m -1,9 C -1,3 C 3,2 km/h (1 Bft) 91,67 %
28.04.2016 03:42 -1,3 C 95 % 1015,3 hPa 0,0 l/m 1,8 km/h (1 Bft) O-SO 121 0 min 0,000 mm 0,0 UV-I 0 W/m -2,0 C -1,3 C 3,2 km/h (1 Bft) 100,00 %
28.04.2016 03:43 -1,4 C 95 % 1015,3 hPa 0,0 l/m 0,2 km/h (0 Bft) O-SO 121 0 min 0,000 mm 0,0 UV-I 0 W/m -2,1 C -1,4 C 1,6 km/h (1 Bft) 100,00 %
28.04.2016 03:44 -1,4 C 95 % 1015,3 hPa 0,0 l/m 0,8 km/h (0 Bft) O-SO 121 0 min 0,000 mm 0,0 UV-I 0 W/m -2,1 C -1,4 C 1,6 km/h (1 Bft) 96,15 %
28.04.2016 03:45 -1,4 C 95 % 1015,2 hPa 0,0 l/m 1,1 km/h (1 Bft) O-SO 121 0 min 0,000 mm 0,0 UV-I 0 W/m -2,1 C -1,4 C 3,2 km/h (1 Bft) 100,00 %
28.04.2016 03:46 -1,4 C 95 % 1015,2 hPa 0,0 l/m 1,1 km/h (1 Bft) O-SO 121 0 min 0,000 mm 0,0 UV-I 0 W/m -2,1 C -1,4 C 3,2 km/h (1 Bft) 95,65 %
28.04.2016 03:47 -1,5 C 95 % 1015,3 hPa 0,0 l/m 0,2 km/h (0 Bft) O-SO 121 0 min 0,000 mm 0,0 UV-I 0 W/m -2,2 C -1,5 C 1,6 km/h (1 Bft) 100,00 %
28.04.2016 03:48 -1,5 C 95 % 1015,3 hPa 0,0 l/m 1,7 km/h (1 Bft) O-SO 121 0 min 0,000 mm 0,0 UV-I 0 W/m -2,2 C -1,5 C 3,2 km/h (1 Bft) 100,00 %
28.04.2016 03:49 -1,5 C 95 % 1015,3 hPa 0,0 l/m 0,1 km/h (0 Bft) O-SO 121 0 min 0,000 mm 0,0 UV-I 0 W/m -2,2 C -1,5 C 1,6 km/h (1 Bft) 100,00 %
28.04.2016 03:50 -1,4 C 95 % 1015,3 hPa 0,0 l/m 0,0 km/h (0 Bft) O-SO 121 0 min 0,000 mm 0,0 UV-I 0 W/m -2,1 C -1,4 C 0,0 km/h (0 Bft) 95,65 %
28.04.2016 03:51 -1,4 C 96 % 1015,3 hPa 0,0 l/m 0,0 km/h (0 Bft) O-SO 121 0 min 0,000 mm 0,0 UV-I 0 W/m -2,0 C -1,4 C 0,0 km/h (0 Bft) 100,00 %
28.04.2016 03:52 -1,4 C 96 % 1015,3 hPa 0,0 l/m 0,0 km/h (0 Bft) O-SO 121 0 min 0,000 mm 0,0 UV-I 0 W/m -2,0 C -1,4 C 0,0 km/h (0 Bft) 100,00 %
28.04.2016 03:53 -1,5 C 96 % 1015,3 hPa 0,0 l/m 0,7 km/h (0 Bft) O-SO 121 0 min 0,000 mm 0,0 UV-I 0 W/m -2,1 C -1,5 C 1,6 km/h (1 Bft) 100,00 %
28.04.2016 03:54 -1,5 C 96 % 1015,3 hPa 0,0 l/m 0,3 km/h (0 Bft) O-SO 121 0 min 0,000 mm 0,0 UV-I 0 W/m -2,1 C -1,5 C 1,6 km/h (1 Bft) 100,00 %
28.04.2016 03:55 -1,6 C 95 % 1015,3 hPa 0,0 l/m 0,2 km/h (0 Bft) O-SO 121 0 min 0,000 mm 0,0 UV-I 0 W/m -2,3 C -1,6 C 1,6 km/h (1 Bft) 96,15 %
28.04.2016 03:56 -1,6 C 95 % 1015,3 hPa 0,0 l/m 1,1 km/h (1 Bft) O-SO 121 0 min 0,000 mm 0,0 UV-I 0 W/m -2,3 C -1,6 C 1,6 km/h (1 Bft) 95,65 %
28.04.2016 03:57 -1,6 C 95 % 1015,3 hPa 0,0 l/m 2,4 km/h (1 Bft) O-SO 121 0 min 0,000 mm 0,0 UV-I 0 W/m -2,3 C -1,6 C 3,2 km/h (1 Bft) 100,00 %
28.04.2016 03:58 -1,6 C 96 % 1015,3 hPa 0,0 l/m 2,2 km/h (1 Bft) O-SO 121 0 min 0,000 mm 0,0 UV-I 0 W/m -2,2 C -1,6 C 3,2 km/h (1 Bft) 100,00 %
28.04.2016 03:59 -1,6 C 96 % 1015,3 hPa 0,0 l/m 2,3 km/h (1 Bft) O-SO 121 0 min 0,000 mm 0,0 UV-I 0 W/m -2,2 C -1,6 C 3,2 km/h (1 Bft) 95,65 %
28.04.2016 04:00 -1,6 C 96 % 1015,4 hPa 0,0 l/m 1,9 km/h (1 Bft) O-SO 121 0 min 0,000 mm 0,0 UV-I 0 W/m -2,2 C -1,6 C 3,2 km/h (1 Bft) 100,00 %
28.04.2016 04:02 -1,5 C 96 % 1015,4 hPa 0,0 l/m 1,2 km/h (1 Bft) O-SO 121 0 min 0,000 mm 0,0 UV-I 0 W/m -2,1 C -1,5 C 1,6 km/h (1 Bft) 100,00 %
28.04.2016 04:03 -1,5 C 96 % 1015,4 hPa 0,0 l/m 0,7 km/h (0 Bft) O-SO 121 0 min 0,000 mm 0,0 UV-I 0 W/m -2,1 C -1,5 C 1,6 km/h (1 Bft) 100,00 %
28.04.2016 04:04 -1,6 C 96 % 1015,5 hPa 0,0 l/m 0,1 km/h (0 Bft) O-SO 121 0 min 0,000 mm 0,0 UV-I 0 W/m -2,2 C -1,6 C 1,6 km/h (1 Bft) 100,00 %
28.04.2016 04:05 -1,6 C 96 % 1015,4 hPa 0,0 l/m 1,7 km/h (1 Bft) O-SO 121 0 min 0,000 mm 0,0 UV-I 0 W/m -2,2 C -1,6 C 3,2 km/h (1 Bft) 100,00 %
28.04.2016 04:06 -1,7 C 96 % 1015,4 hPa 0,0 l/m 2,6 km/h (1 Bft) O-SO 121 0 min 0,000 mm 0,0 UV-I 0 W/m -2,3 C -1,7 C 3,2 km/h (1 Bft) 100,00 %
28.04.2016 04:07 -1,7 C 96 % 1015,3 hPa 0,0 l/m 1,9 km/h (1 Bft) O-SO 121 0 min 0,000 mm 0,0 UV-I 0 W/m -2,3 C -1,7 C 3,2 km/h (1 Bft) 100,00 %
28.04.2016 04:08 -1,7 C 96 % 1015,3 hPa 0,0 l/m 1,2 km/h (1 Bft) O-SO 121 0 min 0,000 mm 0,0 UV-I 0 W/m -2,3 C -1,7 C 1,6 km/h (1 Bft) 100,00 %
28.04.2016 04:09 -1,6 C 96 % 1015,3 hPa 0,0 l/m 0,7 km/h (0 Bft) O-SO 121 0 min 0,000 mm 0,0 UV-I 0 W/m -2,2 C -1,6 C 1,6 km/h (1 Bft) 100,00 %
28.04.2016 04:10 -1,6 C 96 % 1015,3 hPa 0,0 l/m 1,6 km/h (1 Bft) O-SO 121 0 min 0,000 mm 0,0 UV-I 0 W/m -2,2 C -1,6 C 1,6 km/h (1 Bft) 100,00 %
28.04.2016 04:11 -1,6 C 96 % 1015,3 hPa 0,0 l/m 2,1 km/h (1 Bft) O-SO 121 0 min 0,000 mm 0,0 UV-I 0 W/m -2,2 C -1,6 C 3,2 km/h (1 Bft) 95,65 %
28.04.2016 04:12 -1,6 C 96 % 1015,3 hPa 0,0 l/m 1,9 km/h (1 Bft) O-SO 121 0 min 0,000 mm 0,0 UV-I 0 W/m -2,2 C -1,6 C 3,2 km/h (1 Bft) 100,00 %
28.04.2016 04:13 -1,6 C 96 % 1015,3 hPa 0,0 l/m 0,4 km/h (0 Bft) O-SO 121 0 min 0,000 mm 0,0 UV-I 0 W/m -2,2 C -1,6 C 1,6 km/h (1 Bft) 100,00 %
28.04.2016 04:14 -1,5 C 96 % 1015,3 hPa 0,0 l/m 0,0 km/h (0 Bft) O-SO 121 0 min 0,000 mm 0,0 UV-I 0 W/m -2,1 C -1,5 C 0,0 km/h (0 Bft) 100,00 %
28.04.2016 04:15 -1,5 C 96 % 1015,4 hPa 0,0 l/m 0,1 km/h (0 Bft) O-SO 121 0 min 0,000 mm 0,0 UV-I 0 W/m -2,1 C -1,5 C 1,6 km/h (1 Bft) 100,00 %
28.04.2016 04:16 -1,5 C 96 % 1015,3 hPa 0,0 l/m 0,5 km/h (0 Bft) O-SO 121 0 min 0,000 mm 0,0 UV-I 0 W/m -2,1 C -1,5 C 1,6 km/h (1 Bft) 100,00 %
28.04.2016 04:17 -1,4 C 96 % 1015,3 hPa 0,0 l/m 0,2 km/h (0 Bft) O-SO 121 0 min 0,000 mm 0,0 UV-I 0 W/m -2,0 C -1,4 C 1,6 km/h (1 Bft) 100,00 %
28.04.2016 04:18 -1,5 C 96 % 1015,4 hPa 0,0 l/m 0,0 km/h (0 Bft) O-SO 121 0 min 0,000 mm 0,0 UV-I 0 W/m -2,1 C -1,5 C 0,0 km/h (0 Bft) 95,65 %
28.04.2016 04:19 -1,5 C 96 % 1015,4 hPa 0,0 l/m 0,0 km/h (0 Bft) O-SO 121 0 min 0,000 mm 0,0 UV-I 0 W/m -2,1 C -1,5 C 0,0 km/h (0 Bft) 100,00 %
28.04.2016 04:20 -1,5 C 96 % 1015,4 hPa 0,0 l/m 0,0 km/h (0 Bft) O-SO 121 0 min 0,000 mm 0,0 UV-I 0 W/m -2,1 C -1,5 C 0,0 km/h (0 Bft) 100,00 %
28.04.2016 04:21 -1,5 C 96 % 1015,4 hPa 0,0 l/m 0,0 km/h (0 Bft) O-SO 121 0 min 0,000 mm 0,0 UV-I 0 W/m -2,1 C -1,5 C 0,0 km/h (0 Bft) 95,83 %
28.04.2016 04:22 -1,6 C 96 % 1015,4 hPa 0,0 l/m 0,0 km/h (0 Bft) O-SO 121 0 min 0,000 mm 0,0 UV-I 0 W/m -2,2 C -1,6 C 0,0 km/h (0 Bft) 95,65 %
28.04.2016 04:23 -1,6 C 96 % 1015,4 hPa 0,0 l/m 0,0 km/h (0 Bft) O-SO 121 0 min 0,000 mm 0,0 UV-I 0 W/m -2,2 C -1,6 C 0,0 km/h (0 Bft) 100,00 %
28.04.2016 04:24 -1,6 C 96 % 1015,4 hPa 0,0 l/m 0,0 km/h (0 Bft) O-SO 121 0 min 0,000 mm 0,0 UV-I 0 W/m -2,2 C -1,6 C 0,0 km/h (0 Bft) 100,00 %
28.04.2016 04:25 -1,6 C 96 % 1015,4 hPa 0,0 l/m 0,0 km/h (0 Bft) O-SO 121 0 min 0,000 mm 0,0 UV-I 0 W/m -2,2 C -1,6 C 0,0 km/h (0 Bft) 100,00 %
28.04.2016 04:26 -1,6 C 96 % 1015,4 hPa 0,0 l/m 0,0 km/h (0 Bft) O-SO 121 0 min 0,000 mm 0,0 UV-I 0 W/m -2,2 C -1,6 C 0,0 km/h (0 Bft) 100,00 %
28.04.2016 04:27 -1,6 C 96 % 1015,4 hPa 0,0 l/m 0,0 km/h (0 Bft) O-SO 121 0 min 0,000 mm 0,0 UV-I 0 W/m -2,2 C -1,6 C 0,0 km/h (0 Bft) 100,00 %
28.04.2016 04:28 -1,6 C 96 % 1015,4 hPa 0,0 l/m 0,0 km/h (0 Bft) O-SO 121 0 min 0,000 mm 0,0 UV-I 0 W/m -2,2 C -1,6 C 0,0 km/h (0 Bft) 100,00 %
28.04.2016 04:29 -1,7 C 96 % 1015,4 hPa 0,0 l/m 0,1 km/h (0 Bft) O-SO 121 0 min 0,000 mm 0,0 UV-I 0 W/m -2,3 C -1,7 C 1,6 km/h (1 Bft) 100,00 %
28.04.2016 04:30 -1,7 C 96 % 1015,4 hPa 0,0 l/m 0,6 km/h (0 Bft) O-SO 121 0 min 0,000 mm 0,0 UV-I 0 W/m -2,3 C -1,7 C 1,6 km/h (1 Bft) 100,00 %
28.04.2016 04:31 -1,7 C 96 % 1015,4 hPa 0,0 l/m 1,3 km/h (1 Bft) O-SO 121 0 min 0,000 mm 0,0 UV-I 0 W/m -2,3 C -1,7 C 3,2 km/h (1 Bft) 100,00 %
28.04.2016 04:32 -1,7 C 96 % 1015,4 hPa 0,0 l/m 0,7 km/h (0 Bft) O-SO 121 0 min 0,000 mm 0,0 UV-I 0 W/m -2,3 C -1,7 C 1,6 km/h (1 Bft) 100,00 %
28.04.2016 04:33 -1,7 C 96 % 1015,4 hPa 0,0 l/m 0,5 km/h (0 Bft) O-SO 121 0 min 0,000 mm 0,0 UV-I 0 W/m -2,3 C -1,7 C 1,6 km/h (1 Bft) 100,00 %
28.04.2016 04:34 -1,7 C 96 % 1015,5 hPa 0,0 l/m 0,9 km/h (0 Bft) O-SO 121 0 min 0,000 mm 0,0 UV-I 0 W/m -2,3 C -1,7 C 1,6 km/h (1 Bft) 95,65 %
28.04.2016 04:35 -1,7 C 96 % 1015,4 hPa 0,0 l/m 1,9 km/h (1 Bft) O-SO 121 0 min 0,000 mm 0,0 UV-I 0 W/m -2,3 C -1,7 C 3,2 km/h (1 Bft) 100,00 %
28.04.2016 04:36 -1,8 C 96 % 1015,5 hPa 0,0 l/m 0,2 km/h (0 Bft) O-SO 121 0 min 0,000 mm 0,0 UV-I 0 W/m -2,4 C -1,8 C 1,6 km/h (1 Bft) 95,65 %
28.04.2016 04:37 -1,8 C 96 % 1015,5 hPa 0,0 l/m 0,1 km/h (0 Bft) O-SO 121 0 min 0,000 mm 0,0 UV-I 0 W/m -2,4 C -1,8 C 1,6 km/h (1 Bft) 95,83 %
28.04.2016 04:38 -1,8 C 96 % 1015,5 hPa 0,0 l/m 0,7 km/h (0 Bft) O-SO 121 0 min 0,000 mm 0,0 UV-I 0 W/m -2,4 C -1,8 C 1,6 km/h (1 Bft) 100,00 %
28.04.2016 04:39 -1,8 C 96 % 1015,5 hPa 0,0 l/m 0,2 km/h (0 Bft) O-SO 121 0 min 0,000 mm 0,0 UV-I 0 W/m -2,4 C -1,8 C 1,6 km/h (1 Bft) 96,15 %
28.04.2016 04:40 -1,7 C 96 % 1015,5 hPa 0,0 l/m 0,9 km/h (0 Bft) O-SO 121 0 min 0,000 mm 0,0 UV-I 0 W/m -2,3 C -1,7 C 3,2 km/h (1 Bft) 100,00 %
28.04.2016 04:41 -1,7 C 96 % 1015,5 hPa 0,0 l/m 1,3 km/h (1 Bft) O-SO 121 0 min 0,000 mm 0,0 UV-I 0 W/m -2,3 C -1,7 C 3,2 km/h (1 Bft) 91,30 %
28.04.2016 04:42 -1,7 C 96 % 1015,5 hPa 0,0 l/m 0,2 km/h (0 Bft) O-SO 121 0 min 0,000 mm 0,0 UV-I 0 W/m -2,3 C -1,7 C 1,6 km/h (1 Bft) 100,00 %
28.04.2016 04:43 -1,7 C 96 % 1015,5 hPa 0,0 l/m 0,0 km/h (0 Bft) O-SO 121 0 min 0,000 mm 0,0 UV-I 0 W/m -2,3 C -1,7 C 0,0 km/h (0 Bft) 95,65 %
28.04.2016 04:44 -1,7 C 96 % 1015,5 hPa 0,0 l/m 0,0 km/h (0 Bft) O-SO 121 0 min 0,000 mm 0,0 UV-I 0 W/m -2,3 C -1,7 C 0,0 km/h (0 Bft) 100,00 %
28.04.2016 04:45 -1,8 C 96 % 1015,5 hPa 0,0 l/m 0,3 km/h (0 Bft) O-SO 121 0 min 0,000 mm 0,0 UV-I 0 W/m -2,4 C -1,8 C 1,6 km/h (1 Bft) 95,65 %
28.04.2016 04:46 -1,8 C 96 % 1015,5 hPa 0,0 l/m 1,3 km/h (1 Bft) O-SO 121 0 min 0,000 mm 0,0 UV-I 0 W/m -2,4 C -1,8 C 1,6 km/h (1 Bft) 100,00 %
28.04.2016 04:47 -1,8 C 96 % 1015,4 hPa 0,0 l/m 1,0 km/h (0 Bft) O-SO 121 0 min 0,000 mm 0,0 UV-I 0 W/m -2,4 C -1,8 C 1,6 km/h (1 Bft) 95,65 %
28.04.2016 04:48 -1,8 C 96 % 1015,4 hPa 0,0 l/m 1,2 km/h (1 Bft) O-SO 121 0 min 0,000 mm 0,0 UV-I 0 W/m -2,4 C -1,8 C 1,6 km/h (1 Bft) 95,83 %
28.04.2016 04:49 -1,8 C 96 % 1015,4 hPa 0,0 l/m 1,7 km/h (1 Bft) O-SO 121 0 min 0,000 mm 0,0 UV-I 0 W/m -2,4 C -1,8 C 3,2 km/h (1 Bft) 95,65 %
28.04.2016 04:50 -1,8 C 96 % 1015,4 hPa 0,0 l/m 2,2 km/h (1 Bft) O-SO 121 0 min 0,000 mm 0,0 UV-I 0 W/m -2,4 C -1,8 C 3,2 km/h (1 Bft) 95,83 %
28.04.2016 04:51 -1,8 C 96 % 1015,4 hPa 0,0 l/m 1,9 km/h (1 Bft) O-SO 121 0 min 0,000 mm 0,0 UV-I 0 W/m -2,4 C -1,8 C 3,2 km/h (1 Bft) 95,65 %
28.04.2016 04:52 -1,9 C 96 % 1015,4 hPa 0,0 l/m 0,7 km/h (0 Bft) O-SO 121 0 min 0,000 mm 0,0 UV-I 0 W/m -2,5 C -1,9 C 1,6 km/h (1 Bft) 95,83 %
28.04.2016 04:53 -1,9 C 96 % 1015,4 hPa 0,0 l/m 0,9 km/h (0 Bft) O-SO 121 0 min 0,000 mm 0,0 UV-I 0 W/m -2,5 C -1,9 C 1,6 km/h (1 Bft) 100,00 %
28.04.2016 04:54 -1,9 C 96 % 1015,4 hPa 0,0 l/m 0,9 km/h (0 Bft) O-SO 121 0 min 0,000 mm 0,0 UV-I 0 W/m -2,5 C -1,9 C 1,6 km/h (1 Bft) 95,83 %
28.04.2016 04:55 -1,9 C 96 % 1015,4 hPa 0,0 l/m 0,5 km/h (0 Bft) O-SO 121 0 min 0,000 mm 0,0 UV-I 0 W/m -2,5 C -1,9 C 1,6 km/h (1 Bft) 95,83 %
28.04.2016 04:56 -1,9 C 96 % 1015,4 hPa 0,0 l/m 0,5 km/h (0 Bft) O-SO 121 0 min 0,000 mm 0,0 UV-I 0 W/m -2,5 C -1,9 C 1,6 km/h (1 Bft) 95,65 %
28.04.2016 04:57 -1,9 C 96 % 1015,3 hPa 0,0 l/m 0,1 km/h (0 Bft) O-SO 121 0 min 0,000 mm 0,0 UV-I 0 W/m -2,5 C -1,9 C 1,6 km/h (1 Bft) 95,83 %
28.04.2016 04:58 -1,9 C 96 % 1015,3 hPa 0,0 l/m 0,0 km/h (0 Bft) O-SO 121 0 min 0,000 mm 0,0 UV-I 0 W/m -2,5 C -1,9 C 0,0 km/h (0 Bft) 100,00 %
28.04.2016 04:59 -1,9 C 96 % 1015,3 hPa 0,0 l/m 0,5 km/h (0 Bft) O-SO 121 0 min 0,000 mm 0,0 UV-I 0 W/m -2,5 C -1,9 C 1,6 km/h (1 Bft) 91,67 %
28.04.2016 05:00 -2,0 C 96 % 1015,3 hPa 0,0 l/m 0,7 km/h (0 Bft) O-SO 121 0 min 0,000 mm 0,0 UV-I 0 W/m -2,6 C -2,0 C 1,6 km/h (1 Bft) 100,00 %
28.04.2016 05:02 -2,0 C 96 % 1015,3 hPa 0,0 l/m 0,0 km/h (0 Bft) O-SO 121 0 min 0,000 mm 0,0 UV-I 0 W/m -2,6 C -2,0 C 0,0 km/h (0 Bft) 97,87 %
28.04.2016 05:03 -2,0 C 96 % 1015,3 hPa 0,0 l/m 0,0 km/h (0 Bft) O-SO 121 0 min 0,000 mm 0,0 UV-I 0 W/m -2,6 C -2,0 C 0,0 km/h (0 Bft) 91,67 %
28.04.2016 05:04 -2,0 C 96 % 1015,3 hPa 0,0 l/m 0,0 km/h (0 Bft) O-SO 121 0 min 0,000 mm 0,0 UV-I 0 W/m -2,6 C -2,0 C 0,0 km/h (0 Bft) 95,65 %
28.04.2016 05:05 -1,9 C 96 % 1015,3 hPa 0,0 l/m 0,0 km/h (0 Bft) O-SO 121 0 min 0,000 mm 0,0 UV-I 0 W/m -2,5 C -1,9 C 0,0 km/h (0 Bft) 100,00 %
28.04.2016 05:06 -1,9 C 96 % 1015,3 hPa 0,0 l/m 0,0 km/h (0 Bft) O-SO 121 0 min 0,000 mm 0,0 UV-I 0 W/m -2,5 C -1,9 C 0,0 km/h (0 Bft) 91,30 %
28.04.2016 05:07 -1,9 C 96 % 1015,3 hPa 0,0 l/m 0,0 km/h (0 Bft) O-SO 121 0 min 0,000 mm 0,0 UV-I 0 W/m -2,5 C -1,9 C 0,0 km/h (0 Bft) 95,83 %
28.04.2016 05:08 -1,9 C 96 % 1015,3 hPa 0,0 l/m 0,1 km/h (0 Bft) O-SO 121 0 min 0,000 mm 0,0 UV-I 0 W/m -2,5 C -1,9 C 1,6 km/h (1 Bft) 91,30 %
28.04.2016 05:09 -1,9 C 96 % 1015,3 hPa 0,0 l/m 2,1 km/h (1 Bft) O-SO 121 0 min 0,000 mm 0,0 UV-I 0 W/m -2,5 C -1,9 C 3,2 km/h (1 Bft) 100,00 %
28.04.2016 05:10 -1,9 C 96 % 1015,3 hPa 0,0 l/m 3,0 km/h (1 Bft) O-SO 121 0 min 0,000 mm 0,0 UV-I 0 W/m -2,5 C -1,9 C 4,8 km/h (1 Bft) 95,65 %
28.04.2016 05:11 -1,9 C 96 % 1015,3 hPa 0,0 l/m 3,2 km/h (1 Bft) O-SO 120 0 min 0,000 mm 0,0 UV-I 0 W/m -2,5 C -1,9 C 4,8 km/h (1 Bft) 100,00 %
28.04.2016 05:12 -2,0 C 96 % 1015,3 hPa 0,0 l/m 3,5 km/h (1 Bft) O-SO 120 0 min 0,000 mm 0,0 UV-I 0 W/m -2,6 C -2,0 C 4,8 km/h (1 Bft) 96,15 %
28.04.2016 05:13 -2,1 C 96 % 1015,3 hPa 0,0 l/m 4,1 km/h (1 Bft) O 80 0 min 0,000 mm 0,0 UV-I 0 W/m -2,6 C -2,1 C 4,8 km/h (1 Bft) 100,00 %
28.04.2016 05:14 -2,1 C 96 % 1015,3 hPa 0,0 l/m 4,2 km/h (1 Bft) O-NO 68 0 min 0,000 mm 0,0 UV-I 0 W/m -2,6 C -2,1 C 4,8 km/h (1 Bft) 91,67 %
28.04.2016 05:15 -2,1 C 96 % 1015,3 hPa 0,0 l/m 4,2 km/h (1 Bft) O-NO 64 0 min 0,000 mm 0,0 UV-I 0 W/m -2,6 C -2,1 C 6,4 km/h (2 Bft) 96,15 %
28.04.2016 05:16 -2,1 C 96 % 1015,4 hPa 0,0 l/m 3,1 km/h (1 Bft) O-NO 63 0 min 0,000 mm 0,0 UV-I 0 W/m -2,6 C -2,1 C 4,8 km/h (1 Bft) 100,00 %
28.04.2016 05:17 -2,1 C 96 % 1015,3 hPa 0,0 l/m 3,2 km/h (1 Bft) O-NO 64 0 min 0,000 mm 0,0 UV-I 0 W/m -2,6 C -2,1 C 3,2 km/h (1 Bft) 100,00 %
28.04.2016 05:20 -2,1 C 96 % 1015,3 hPa 0,0 l/m 3,2 km/h (1 Bft) O-NO 67 0 min 0,000 mm 0,0 UV-I 0 W/m -2,6 C -2,1 C 6,4 km/h (2 Bft) 98,25 %
28.04.2016 05:22 -2,2 C 96 % 1015,3 hPa 0,0 l/m 5,0 km/h (1 Bft) O-NO 65 0 min 0,000 mm 0,0 UV-I 0 W/m -2,7 C -2,2 C 6,4 km/h (2 Bft) 100,00 %
28.04.2016 05:23 -2,2 C 96 % 1015,3 hPa 0,0 l/m 3,1 km/h (1 Bft) O-NO 59 0 min 0,000 mm 0,0 UV-I 0 W/m -2,7 C -2,2 C 6,4 km/h (2 Bft) 100,00 %
28.04.2016 05:24 -2,2 C 96 % 1015,4 hPa 0,0 l/m 0,5 km/h (0 Bft) O-NO 59 0 min 0,000 mm 0,0 UV-I 0 W/m -2,7 C -2,2 C 1,6 km/h (1 Bft) 95,65 %
28.04.2016 05:25 -2,2 C 96 % 1015,4 hPa 0,0 l/m 0,1 km/h (0 Bft) O-NO 59 0 min 0,000 mm 0,0 UV-I 0 W/m -2,7 C -2,2 C 1,6 km/h (1 Bft) 100,00 %
28.04.2016 05:26 -2,2 C 96 % 1015,4 hPa 0,0 l/m 0,5 km/h (0 Bft) O-NO 59 0 min 0,000 mm 0,0 UV-I 0 W/m -2,7 C -2,2 C 1,6 km/h (1 Bft) 100,00 %
28.04.2016 05:27 -2,3 C 96 % 1015,4 hPa 0,0 l/m 2,2 km/h (1 Bft) O-NO 59 0 min 0,000 mm 0,0 UV-I 0 W/m -2,8 C -2,3 C 3,2 km/h (1 Bft) 100,00 %
28.04.2016 05:28 -2,3 C 96 % 1015,4 hPa 0,0 l/m 2,4 km/h (1 Bft) O-NO 59 0 min 0,000 mm 0,0 UV-I 0 W/m -2,8 C -2,3 C 3,2 km/h (1 Bft) 100,00 %
28.04.2016 05:29 -2,3 C 96 % 1015,4 hPa 0,0 l/m 1,3 km/h (1 Bft) O-NO 59 0 min 0,000 mm 0,0 UV-I 0 W/m -2,8 C -2,3 C 3,2 km/h (1 Bft) 100,00 %
28.04.2016 05:30 -2,3 C 96 % 1015,4 hPa 0,0 l/m 0,5 km/h (0 Bft) O-NO 59 0 min 0,000 mm 0,0 UV-I 0 W/m -2,8 C -2,3 C 1,6 km/h (1 Bft) 95,65 %
28.04.2016 05:31 -2,3 C 96 % 1015,4 hPa 0,0 l/m 0,8 km/h (0 Bft) O-NO 59 0 min 0,000 mm 0,0 UV-I 0 W/m -2,8 C -2,3 C 1,6 km/h (1 Bft) 100,00 %
28.04.2016 05:32 -2,3 C 96 % 1015,4 hPa 0,0 l/m 0,7 km/h (0 Bft) O-NO 59 0 min 0,000 mm 0,0 UV-I 0 W/m -2,8 C -2,3 C 1,6 km/h (1 Bft) 100,00 %
28.04.2016 05:33 -2,3 C 96 % 1015,4 hPa 0,0 l/m 0,0 km/h (0 Bft) O-NO 59 0 min 0,000 mm 0,0 UV-I 0 W/m -2,8 C -2,3 C 0,0 km/h (0 Bft) 100,00 %
28.04.2016 05:34 -2,3 C 96 % 1015,4 hPa 0,0 l/m 0,0 km/h (0 Bft) O-NO 59 0 min 0,000 mm 0,0 UV-I 0 W/m -2,8 C -2,3 C 0,0 km/h (0 Bft) 100,00 %
28.04.2016 05:35 -2,3 C 96 % 1015,4 hPa 0,0 l/m 0,0 km/h (0 Bft) O-NO 59 0 min 0,000 mm 0,0 UV-I 0 W/m -2,8 C -2,3 C 0,0 km/h (0 Bft) 100,00 %
28.04.2016 05:36 -2,3 C 96 % 1015,4 hPa 0,0 l/m 1,6 km/h (1 Bft) NO 55 0 min 0,000 mm 0,0 UV-I 0 W/m -2,8 C -2,3 C 3,2 km/h (1 Bft) 100,00 %
28.04.2016 05:37 -2,3 C 96 % 1015,4 hPa 0,0 l/m 2,2 km/h (1 Bft) NO 50 0 min 0,000 mm 0,0 UV-I 0 W/m -2,8 C -2,3 C 3,2 km/h (1 Bft) 94,74 %
28.04.2016 05:38 -2,4 C 96 % 1015,3 hPa 0,0 l/m 1,5 km/h (1 Bft) NO 50 0 min 0,000 mm 0,0 UV-I 0 W/m -2,9 C -2,4 C 3,2 km/h (1 Bft) 100,00 %
28.04.2016 05:39 -2,4 C 96 % 1015,4 hPa 0,0 l/m 0,1 km/h (0 Bft) NO 50 0 min 0,000 mm 0,0 UV-I 0 W/m -2,9 C -2,4 C 1,6 km/h (1 Bft) 100,00 %
28.04.2016 05:40 -2,4 C 96 % 1015,3 hPa 0,0 l/m 0,0 km/h (0 Bft) NO 50 0 min 0,000 mm 0,0 UV-I 0 W/m -2,9 C -2,4 C 0,0 km/h (0 Bft) 100,00 %
28.04.2016 05:41 -2,5 C 96 % 1015,4 hPa 0,0 l/m 0,0 km/h (0 Bft) NO 50 0 min 0,000 mm 0,0 UV-I 0 W/m -3,0 C -2,5 C 0,0 km/h (0 Bft) 95,83 %
28.04.2016 05:42 -2,6 C 96 % 1015,3 hPa 0,0 l/m 0,0 km/h (0 Bft) NO 50 0 min 0,000 mm 0,0 UV-I 0 W/m -3,1 C -2,6 C 0,0 km/h (0 Bft) 100,00 %
28.04.2016 05:43 -2,6 C 96 % 1015,4 hPa 0,0 l/m 0,0 km/h (0 Bft) NO 50 0 min 0,000 mm 0,0 UV-I 0 W/m -3,1 C -2,6 C 0,0 km/h (0 Bft) 100,00 %
28.04.2016 05:44 -2,6 C 96 % 1015,4 hPa 0,0 l/m 0,0 km/h (0 Bft) NO 50 0 min 0,000 mm 0,0 UV-I 0 W/m -3,1 C -2,6 C 0,0 km/h (0 Bft) 95,65 %
28.04.2016 05:45 -2,6 C 96 % 1015,4 hPa 0,0 l/m 0,0 km/h (0 Bft) N 0 0 min 0,000 mm 0,0 UV-I 0 W/m -3,1 C -2,6 C 0,0 km/h (0 Bft) 98,25 %
28.04.2016 05:50 -2,4 C 96 % 1015,3 hPa 0,0 l/m 0,0 km/h (0 Bft) NO 45 0 min 0,000 mm 0,0 UV-I 3 W/m -2,9 C -2,4 C 1,6 km/h (1 Bft) 99,12 %
28.04.2016 05:52 -2,4 C 96 % 1015,3 hPa 0,0 l/m 0,6 km/h (0 Bft) NO 50 0 min 0,000 mm 0,0 UV-I 3 W/m -2,9 C -2,4 C 1,6 km/h (1 Bft) 98,91 %
28.04.2016 05:53 -2,4 C 96 % 1015,3 hPa 0,0 l/m 0,1 km/h (0 Bft) NO 50 0 min 0,000 mm 0,0 UV-I 6 W/m -2,9 C -2,4 C 1,6 km/h (1 Bft) 100,00 %
28.04.2016 05:54 -2,4 C 96 % 1015,4 hPa 0,0 l/m 0,0 km/h (0 Bft) NO 50 0 min 0,000 mm 0,0 UV-I 7 W/m -2,9 C -2,4 C 0,0 km/h (0 Bft) 96,15 %
28.04.2016 05:55 -2,4 C 96 % 1015,3 hPa 0,0 l/m 0,0 km/h (0 Bft) NO 50 0 min 0,000 mm 0,0 UV-I 7 W/m -2,9 C -2,4 C 0,0 km/h (0 Bft) 100,00 %
28.04.2016 05:56 -2,4 C 96 % 1015,4 hPa 0,0 l/m 1,3 km/h (1 Bft) NO 50 0 min 0,000 mm 0,0 UV-I 7 W/m -2,9 C -2,4 C 3,2 km/h (1 Bft) 95,65 %
28.04.2016 05:57 -2,3 C 96 % 1015,4 hPa 0,0 l/m 1,9 km/h (1 Bft) NO 50 0 min 0,000 mm 0,0 UV-I 7 W/m -2,8 C -2,3 C 3,2 km/h (1 Bft) 100,00 %
28.04.2016 05:58 -2,3 C 96 % 1015,4 hPa 0,0 l/m 1,6 km/h (1 Bft) NO 50 0 min 0,000 mm 0,0 UV-I 7 W/m -2,8 C -2,3 C 3,2 km/h (1 Bft) 100,00 %
28.04.2016 05:59 -2,3 C 96 % 1015,4 hPa 0,0 l/m 2,1 km/h (1 Bft) O-SO 104 0 min 0,000 mm 0,0 UV-I 9 W/m -2,8 C -2,3 C 4,8 km/h (1 Bft) 100,00 %
28.04.2016 06:00 -2,2 C 96 % 1015,4 hPa 0,0 l/m 4,4 km/h (1 Bft) O-SO 123 0 min 0,000 mm 0,0 UV-I 9 W/m -2,7 C -2,2 C 6,4 km/h (2 Bft) 100,00 %
28.04.2016 06:02 -2,2 C 96 % 1015,4 hPa 0,0 l/m 3,7 km/h (1 Bft) SO 125 0 min 0,000 mm 0,0 UV-I 9 W/m -2,7 C -2,2 C 6,4 km/h (2 Bft) 95,74 %
28.04.2016 06:03 -2,2 C 96 % 1015,4 hPa 0,0 l/m 1,0 km/h (0 Bft) SO 125 0 min 0,000 mm 0,0 UV-I 11 W/m -2,7 C -2,2 C 1,6 km/h (1 Bft) 100,00 %
28.04.2016 06:04 -2,2 C 96 % 1015,4 hPa 0,0 l/m 0,3 km/h (0 Bft) SO 125 0 min 0,000 mm 0,0 UV-I 11 W/m -2,7 C -2,2 C 1,6 km/h (1 Bft) 95,65 %
28.04.2016 06:05 -2,2 C 96 % 1015,4 hPa 0,0 l/m 0,0 km/h (0 Bft) SO 125 0 min 0,000 mm 0,0 UV-I 11 W/m -2,7 C -2,2 C 0,0 km/h (0 Bft) 100,00 %
28.04.2016 06:06 -2,2 C 96 % 1015,4 hPa 0,0 l/m 0,6 km/h (0 Bft) SO 125 0 min 0,000 mm 0,0 UV-I 11 W/m -2,7 C -2,2 C 1,6 km/h (1 Bft) 95,65 %
28.04.2016 06:07 -2,2 C 96 % 1015,4 hPa 0,0 l/m 1,0 km/h (0 Bft) SO 125 0 min 0,000 mm 0,0 UV-I 12 W/m -2,7 C -2,2 C 3,2 km/h (1 Bft) 100,00 %
28.04.2016 06:08 -2,2 C 96 % 1015,5 hPa 0,0 l/m 2,3 km/h (1 Bft) SO 125 0 min 0,000 mm 0,0 UV-I 12 W/m -2,7 C -2,2 C 3,2 km/h (1 Bft) 95,83 %
28.04.2016 06:09 -2,2 C 96 % 1015,5 hPa 0,0 l/m 2,4 km/h (1 Bft) SO 125 0 min 0,000 mm 0,0 UV-I 12 W/m -2,7 C -2,2 C 3,2 km/h (1 Bft) 95,65 %
28.04.2016 06:10 -2,2 C 96 % 1015,4 hPa 0,0 l/m 2,6 km/h (1 Bft) SO 125 0 min 0,000 mm 0,0 UV-I 12 W/m -2,7 C -2,2 C 3,2 km/h (1 Bft) 100,00 %
28.04.2016 06:11 -2,2 C 96 % 1015,5 hPa 0,0 l/m 3,7 km/h (1 Bft) SO 125 0 min 0,000 mm 0,0 UV-I 13 W/m -2,7 C -2,2 C 4,8 km/h (1 Bft) 95,65 %
28.04.2016 06:12 -2,2 C 96 % 1015,4 hPa 0,0 l/m 3,5 km/h (1 Bft) SO 125 0 min 0,000 mm 0,0 UV-I 14 W/m -2,7 C -2,2 C 4,8 km/h (1 Bft) 100,00 %
28.04.2016 06:13 -2,2 C 96 % 1015,4 hPa 0,0 l/m 2,1 km/h (1 Bft) SO 125 0 min 0,000 mm 0,0 UV-I 14 W/m -2,7 C -2,2 C 3,2 km/h (1 Bft) 100,00 %
28.04.2016 06:14 -2,2 C 96 % 1015,4 hPa 0,0 l/m 1,1 km/h (1 Bft) SO 125 0 min 0,000 mm 0,0 UV-I 14 W/m -2,7 C -2,2 C 1,6 km/h (1 Bft) 100,00 %
28.04.2016 06:15 -2,2 C 96 % 1015,4 hPa 0,0 l/m 0,1 km/h (0 Bft) SO 125 0 min 0,000 mm 0,0 UV-I 14 W/m -2,7 C -2,2 C 1,6 km/h (1 Bft) 100,00 %
28.04.2016 06:16 -2,2 C 96 % 1015,4 hPa 0,0 l/m 0,0 km/h (0 Bft) SO 125 0 min 0,000 mm 0,0 UV-I 16 W/m -2,7 C -2,2 C 0,0 km/h (0 Bft) 100,00 %
28.04.2016 06:17 -2,2 C 96 % 1015,5 hPa 0,0 l/m 0,0 km/h (0 Bft) SO 125 0 min 0,000 mm 0,0 UV-I 16 W/m -2,7 C -2,2 C 0,0 km/h (0 Bft) 100,00 %
28.04.2016 06:18 -2,2 C 96 % 1015,5 hPa 0,0 l/m 0,0 km/h (0 Bft) SO 125 0 min 0,000 mm 0,0 UV-I 16 W/m -2,7 C -2,2 C 0,0 km/h (0 Bft) 100,00 %
28.04.2016 06:19 -2,2 C 96 % 1015,5 hPa 0,0 l/m 0,1 km/h (0 Bft) SO 125 0 min 0,000 mm 0,0 UV-I 16 W/m -2,7 C -2,2 C 1,6 km/h (1 Bft) 91,30 %
28.04.2016 06:20 -2,1 C 96 % 1015,5 hPa 0,0 l/m 1,4 km/h (1 Bft) SO 125 0 min 0,000 mm 0,0 UV-I 18 W/m -2,6 C -2,1 C 3,2 km/h (1 Bft) 100,00 %
28.04.2016 06:21 -2,2 C 96 % 1015,5 hPa 0,0 l/m 0,6 km/h (0 Bft) SO 125 0 min 0,000 mm 0,0 UV-I 18 W/m -2,7 C -2,2 C 1,6 km/h (1 Bft) 100,00 %
28.04.2016 06:22 -2,2 C 96 % 1015,5 hPa 0,0 l/m 0,0 km/h (0 Bft) SO 125 0 min 0,000 mm 0,0 UV-I 18 W/m -2,7 C -2,2 C 0,0 km/h (0 Bft) 95,83 %
28.04.2016 06:23 -2,3 C 96 % 1015,5 hPa 0,0 l/m 0,0 km/h (0 Bft) SO 125 0 min 0,000 mm 0,0 UV-I 18 W/m -2,8 C -2,3 C 0,0 km/h (0 Bft) 100,00 %
28.04.2016 06:24 -2,3 C 96 % 1015,5 hPa 0,0 l/m 0,3 km/h (0 Bft) SO 125 0 min 0,000 mm 0,0 UV-I 18 W/m -2,8 C -2,3 C 1,6 km/h (1 Bft) 100,00 %
28.04.2016 06:25 -2,4 C 96 % 1015,5 hPa 0,0 l/m 0,0 km/h (0 Bft) SO 125 0 min 0,000 mm 0,0 UV-I 19 W/m -2,9 C -2,4 C 0,0 km/h (0 Bft) 95,65 %
28.04.2016 06:26 -2,4 C 96 % 1015,5 hPa 0,0 l/m 0,0 km/h (0 Bft) SO 125 0 min 0,000 mm 0,0 UV-I 19 W/m -2,9 C -2,4 C 0,0 km/h (0 Bft) 100,00 %
28.04.2016 06:27 -2,4 C 96 % 1015,5 hPa 0,0 l/m 0,0 km/h (0 Bft) SO 125 0 min 0,000 mm 0,0 UV-I 19 W/m -2,9 C -2,4 C 0,0 km/h (0 Bft) 95,65 %
28.04.2016 06:28 -2,4 C 96 % 1015,5 hPa 0,0 l/m 0,3 km/h (0 Bft) SO 125 0 min 0,000 mm 0,0 UV-I 19 W/m -2,9 C -2,4 C 1,6 km/h (1 Bft) 100,00 %
28.04.2016 06:29 -2,4 C 96 % 1015,5 hPa 0,0 l/m 0,0 km/h (0 Bft) SO 125 0 min 0,000 mm 0,0 UV-I 20 W/m -2,9 C -2,4 C 0,0 km/h (0 Bft) 100,00 %
28.04.2016 06:30 -2,4 C 96 % 1015,5 hPa 0,0 l/m 0,1 km/h (0 Bft) SO 125 0 min 0,000 mm 0,0 UV-I 21 W/m -2,9 C -2,4 C 1,6 km/h (1 Bft) 96,30 %
28.04.2016 06:31 -2,4 C 96 % 1015,5 hPa 0,0 l/m 0,1 km/h (0 Bft) SO 125 0 min 0,000 mm 0,0 UV-I 21 W/m -2,9 C -2,4 C 1,6 km/h (1 Bft) 95,83 %
28.04.2016 06:32 -2,4 C 96 % 1015,5 hPa 0,0 l/m 0,3 km/h (0 Bft) SO 125 0 min 0,000 mm 0,0 UV-I 21 W/m -2,9 C -2,4 C 1,6 km/h (1 Bft) 100,00 %
28.04.2016 06:33 -2,4 C 96 % 1015,5 hPa 0,0 l/m 0,0 km/h (0 Bft) SO 125 0 min 0,000 mm 0,0 UV-I 21 W/m -2,9 C -2,4 C 0,0 km/h (0 Bft) 100,00 %
28.04.2016 06:34 -2,4 C 96 % 1015,6 hPa 0,0 l/m 0,0 km/h (0 Bft) SO 125 0 min 0,000 mm 0,0 UV-I 23 W/m -2,9 C -2,4 C 0,0 km/h (0 Bft) 100,00 %
28.04.2016 06:35 -2,4 C 96 % 1015,6 hPa 0,0 l/m 0,0 km/h (0 Bft) SO 125 0 min 0,000 mm 0,0 UV-I 23 W/m -2,9 C -2,4 C 0,0 km/h (0 Bft) 100,00 %
28.04.2016 06:36 -2,3 C 96 % 1015,6 hPa 0,0 l/m 0,0 km/h (0 Bft) SO 125 0 min 0,000 mm 0,0 UV-I 23 W/m -2,8 C -2,3 C 0,0 km/h (0 Bft) 100,00 %
28.04.2016 06:37 -2,3 C 96 % 1015,6 hPa 0,0 l/m 0,0 km/h (0 Bft) SO 125 0 min 0,000 mm 0,0 UV-I 23 W/m -2,8 C -2,3 C 0,0 km/h (0 Bft) 95,83 %
28.04.2016 06:38 -2,3 C 96 % 1015,6 hPa 0,0 l/m 0,0 km/h (0 Bft) SO 125 0 min 0,000 mm 0,0 UV-I 23 W/m -2,8 C -2,3 C 0,0 km/h (0 Bft) 100,00 %
28.04.2016 06:39 -2,3 C 96 % 1015,6 hPa 0,0 l/m 0,0 km/h (0 Bft) SO 125 0 min 0,000 mm 0,0 UV-I 25 W/m -2,8 C -2,3 C 0,0 km/h (0 Bft) 100,00 %
28.04.2016 06:40 -2,3 C 96 % 1015,7 hPa 0,0 l/m 0,0 km/h (0 Bft) SO 125 0 min 0,000 mm 0,0 UV-I 25 W/m -2,8 C -2,3 C 0,0 km/h (0 Bft) 95,65 %
28.04.2016 06:41 -2,2 C 96 % 1015,6 hPa 0,0 l/m 0,0 km/h (0 Bft) SO 125 0 min 0,000 mm 0,0 UV-I 25 W/m -2,7 C -2,2 C 0,0 km/h (0 Bft) 100,00 %
28.04.2016 06:42 -2,2 C 96 % 1015,7 hPa 0,0 l/m 0,0 km/h (0 Bft) SO 125 0 min 0,000 mm 0,0 UV-I 25 W/m -2,7 C -2,2 C 0,0 km/h (0 Bft) 95,65 %
28.04.2016 06:43 -2,2 C 96 % 1015,7 hPa 0,0 l/m 0,0 km/h (0 Bft) SO 125 0 min 0,000 mm 0,0 UV-I 25 W/m -2,7 C -2,2 C 0,0 km/h (0 Bft) 100,00 %
28.04.2016 06:44 -2,2 C 96 % 1015,7 hPa 0,0 l/m 2,2 km/h (1 Bft) SO 125 0 min 0,000 mm 0,0 UV-I 26 W/m -2,7 C -2,2 C 3,2 km/h (1 Bft) 100,00 %
28.04.2016 06:45 -2,1 C 96 % 1015,7 hPa 0,0 l/m 3,1 km/h (1 Bft) SO 125 0 min 0,000 mm 0,0 UV-I 26 W/m -2,6 C -2,1 C 4,8 km/h (1 Bft) 100,00 %
28.04.2016 06:46 -2,1 C 96 % 1015,7 hPa 0,0 l/m 3,0 km/h (1 Bft) SO 125 0 min 0,000 mm 0,0 UV-I 26 W/m -2,6 C -2,1 C 3,2 km/h (1 Bft) 100,00 %
28.04.2016 06:47 -2,0 C 96 % 1015,7 hPa 0,0 l/m 2,4 km/h (1 Bft) SO 125 0 min 0,000 mm 0,0 UV-I 26 W/m -2,6 C -2,0 C 3,2 km/h (1 Bft) 95,83 %
28.04.2016 06:48 -1,9 C 96 % 1015,6 hPa 0,0 l/m 2,1 km/h (1 Bft) SO 125 0 min 0,000 mm 0,0 UV-I 26 W/m -2,5 C -1,9 C 3,2 km/h (1 Bft) 95,83 %
28.04.2016 06:49 -1,9 C 96 % 1015,7 hPa 0,0 l/m 2,7 km/h (1 Bft) SO 125 0 min 0,000 mm 0,0 UV-I 26 W/m -2,5 C -1,9 C 3,2 km/h (1 Bft) 100,00 %
28.04.2016 06:50 -1,9 C 96 % 1015,7 hPa 0,0 l/m 2,2 km/h (1 Bft) SO 125 0 min 0,000 mm 0,0 UV-I 26 W/m -2,5 C -1,9 C 3,2 km/h (1 Bft) 95,83 %
28.04.2016 06:51 -1,8 C 96 % 1015,7 hPa 0,0 l/m 1,3 km/h (1 Bft) SO 125 0 min 0,000 mm 0,0 UV-I 28 W/m -2,4 C -1,8 C 3,2 km/h (1 Bft) 100,00 %
28.04.2016 06:52 -1,8 C 96 % 1015,7 hPa 0,0 l/m 0,1 km/h (0 Bft) SO 125 0 min 0,000 mm 0,0 UV-I 28 W/m -2,4 C -1,8 C 1,6 km/h (1 Bft) 95,83 %
28.04.2016 06:53 -1,8 C 96 % 1015,7 hPa 0,0 l/m 1,0 km/h (0 Bft) SO 125 0 min 0,000 mm 0,0 UV-I 28 W/m -2,4 C -1,8 C 1,6 km/h (1 Bft) 100,00 %
28.04.2016 06:54 -1,8 C 96 % 1015,7 hPa 0,0 l/m 0,4 km/h (0 Bft) SO 125 0 min 0,000 mm 0,0 UV-I 28 W/m -2,4 C -1,8 C 1,6 km/h (1 Bft) 95,83 %
28.04.2016 06:55 -1,8 C 96 % 1015,7 hPa 0,0 l/m 0,0 km/h (0 Bft) SO 125 0 min 0,000 mm 0,0 UV-I 29 W/m -2,4 C -1,8 C 0,0 km/h (0 Bft) 95,65 %
28.04.2016 06:56 -1,8 C 96 % 1015,7 hPa 0,0 l/m 0,1 km/h (0 Bft) SO 125 0 min 0,000 mm 0,0 UV-I 30 W/m -2,4 C -1,8 C 1,6 km/h (1 Bft) 95,83 %
28.04.2016 06:57 -1,8 C 96 % 1015,7 hPa 0,0 l/m 1,7 km/h (1 Bft) SO 125 0 min 0,000 mm 0,0 UV-I 30 W/m -2,4 C -1,8 C 3,2 km/h (1 Bft) 95,65 %
28.04.2016 06:58 -1,8 C 96 % 1015,8 hPa 0,0 l/m 1,3 km/h (1 Bft) SO 125 0 min 0,000 mm 0,0 UV-I 30 W/m -2,4 C -1,8 C 3,2 km/h (1 Bft) 100,00 %
28.04.2016 06:59 -1,7 C 96 % 1015,7 hPa 0,0 l/m 0,0 km/h (0 Bft) SO 125 0 min 0,000 mm 0,0 UV-I 38 W/m -2,3 C -1,7 C 0,0 km/h (0 Bft) 95,65 %
28.04.2016 07:00 -1,7 C 96 % 1015,7 hPa 0,0 l/m 0,1 km/h (0 Bft) SO 125 0 min 0,000 mm 0,0 UV-I 67 W/m -2,3 C -1,7 C 1,6 km/h (1 Bft) 100,00 %
28.04.2016 07:02 -1,7 C 96 % 1015,8 hPa 0,0 l/m 0,0 km/h (0 Bft) SO 125 0 min 0,000 mm 0,0 UV-I 87 W/m -2,3 C -1,7 C 0,0 km/h (0 Bft) 95,74 %
28.04.2016 07:03 -1,6 C 96 % 1015,8 hPa 0,0 l/m 0,0 km/h (0 Bft) SO 125 0 min 0,000 mm 0,0 UV-I 99 W/m -2,2 C -1,6 C 0,0 km/h (0 Bft) 91,30 %
28.04.2016 07:04 -1,6 C 96 % 1015,8 hPa 0,0 l/m 0,0 km/h (0 Bft) SO 125 0 min 0,000 mm 0,0 UV-I 103 W/m -2,2 C -1,6 C 0,0 km/h (0 Bft) 95,83 %
28.04.2016 07:05 -1,6 C 96 % 1015,8 hPa 0,0 l/m 0,0 km/h (0 Bft) SO 125 1 min 0,000 mm 0,0 UV-I 108 W/m -2,2 C -1,6 C 0,0 km/h (0 Bft) 95,65 %
28.04.2016 07:06 -1,6 C 96 % 1015,8 hPa 0,0 l/m 0,1 km/h (0 Bft) SO 125 1 min 0,000 mm 0,0 UV-I 113 W/m -2,2 C -1,6 C 1,6 km/h (1 Bft) 91,67 %
28.04.2016 07:07 -1,5 C 96 % 1015,8 hPa 0,0 l/m 0,0 km/h (0 Bft) SO 125 1 min 0,000 mm 0,0 UV-I 119 W/m -2,1 C -1,5 C 0,0 km/h (0 Bft) 100,00 %
28.04.2016 07:08 -1,4 C 96 % 1015,8 hPa 0,0 l/m 0,0 km/h (0 Bft) SO 125 1 min 0,000 mm 0,0 UV-I 123 W/m -2,0 C -1,4 C 0,0 km/h (0 Bft) 95,83 %
28.04.2016 07:09 -1,4 C 96 % 1015,8 hPa 0,0 l/m 0,1 km/h (0 Bft) SO 125 1 min 0,000 mm 0,0 UV-I 129 W/m -2,0 C -1,4 C 1,6 km/h (1 Bft) 95,83 %
28.04.2016 07:10 -1,4 C 96 % 1015,8 hPa 0,0 l/m 1,1 km/h (1 Bft) SO 125 1 min 0,000 mm 0,0 UV-I 133 W/m -2,0 C -1,4 C 3,2 km/h (1 Bft) 95,65 %
28.04.2016 07:11 -1,4 C 96 % 1015,8 hPa 0,0 l/m 1,4 km/h (1 Bft) SO 125 1 min 0,000 mm 0,0 UV-I 138 W/m -2,0 C -1,4 C 1,6 km/h (1 Bft) 100,00 %
28.04.2016 07:12 -1,4 C 96 % 1015,8 hPa 0,0 l/m 1,2 km/h (1 Bft) SO 125 1 min 0,000 mm 0,0 UV-I 143 W/m -2,0 C -1,4 C 1,6 km/h (1 Bft) 95,65 %
28.04.2016 07:13 -1,3 C 96 % 1015,8 hPa 0,0 l/m 1,3 km/h (1 Bft) SO 125 1 min 0,000 mm 0,0 UV-I 149 W/m -1,9 C -1,3 C 1,6 km/h (1 Bft) 100,00 %
28.04.2016 07:14 -1,3 C 96 % 1015,8 hPa 0,0 l/m 0,5 km/h (0 Bft) SO 125 1 min 0,000 mm 0,0 UV-I 153 W/m -1,9 C -1,3 C 1,6 km/h (1 Bft) 95,65 %
28.04.2016 07:15 -1,2 C 96 % 1015,8 hPa 0,0 l/m 0,1 km/h (0 Bft) SO 125 1 min 0,000 mm 0,0 UV-I 158 W/m -1,8 C -1,2 C 1,6 km/h (1 Bft) 95,83 %
28.04.2016 07:16 -1,2 C 96 % 1015,8 hPa 0,0 l/m 0,9 km/h (0 Bft) SO 125 1 min 0,000 mm 0,0 UV-I 161 W/m -1,8 C -1,2 C 1,6 km/h (1 Bft) 91,30 %
28.04.2016 07:17 -1,1 C 96 % 1015,8 hPa 0,0 l/m 1,1 km/h (1 Bft) SO 125 1 min 0,000 mm 0,0 UV-I 162 W/m -1,7 C -1,1 C 1,6 km/h (1 Bft) 95,83 %
28.04.2016 07:18 -1,0 C 96 % 1015,8 hPa 0,0 l/m 1,5 km/h (1 Bft) SO 125 1 min 0,000 mm 0,0 UV-I 164 W/m -1,6 C -1,0 C 1,6 km/h (1 Bft) 95,65 %
28.04.2016 07:19 -0,9 C 97 % 1015,9 hPa 0,0 l/m 0,5 km/h (0 Bft) SO 125 1 min 0,000 mm 0,0 UV-I 165 W/m -1,3 C -0,9 C 1,6 km/h (1 Bft) 95,83 %
28.04.2016 07:20 -0,8 C 97 % 1015,8 hPa 0,0 l/m 1,7 km/h (1 Bft) SO 125 1 min 0,000 mm 0,0 UV-I 171 W/m -1,2 C -0,8 C 3,2 km/h (1 Bft) 95,65 %
28.04.2016 07:21 -0,8 C 97 % 1015,9 hPa 0,0 l/m 1,5 km/h (1 Bft) SO 125 1 min 0,000 mm 0,0 UV-I 171 W/m -1,2 C -0,8 C 3,2 km/h (1 Bft) 91,67 %
28.04.2016 07:22 -0,7 C 96 % 1015,9 hPa 0,2 l/m 0,6 km/h (0 Bft) SO 125 1 min 0,000 mm 0,0 UV-I 173 W/m -1,3 C -0,7 C 1,6 km/h (1 Bft) 100,00 %
28.04.2016 07:23 -0,7 C 97 % 1015,9 hPa 0,0 l/m 0,2 km/h (0 Bft) SO 125 1 min 0,000 mm 0,0 UV-I 176 W/m -1,1 C -0,7 C 1,6 km/h (1 Bft) 95,65 %
28.04.2016 07:24 -0,6 C 97 % 1015,9 hPa 0,0 l/m 0,1 km/h (0 Bft) SO 125 1 min 0,000 mm 0,0 UV-I 180 W/m -1,0 C -0,6 C 1,6 km/h (1 Bft) 95,65 %
28.04.2016 07:25 -0,6 C 97 % 1016,0 hPa 0,0 l/m 0,2 km/h (0 Bft) SO 125 1 min 0,000 mm 0,0 UV-I 183 W/m -1,0 C -0,6 C 1,6 km/h (1 Bft) 100,00 %
28.04.2016 07:26 -0,6 C 96 % 1015,9 hPa 0,0 l/m 0,7 km/h (0 Bft) SO 125 1 min 0,000 mm 0,0 UV-I 183 W/m -1,2 C -0,6 C 1,6 km/h (1 Bft) 95,83 %
28.04.2016 07:27 -0,6 C 96 % 1015,9 hPa 0,0 l/m 0,5 km/h (0 Bft) SO 125 1 min 0,000 mm 0,0 UV-I 186 W/m -1,2 C -0,6 C 1,6 km/h (1 Bft) 100,00 %
28.04.2016 07:28 -0,6 C 96 % 1015,9 hPa 0,0 l/m 0,6 km/h (0 Bft) SO 125 1 min 0,000 mm 0,0 UV-I 190 W/m -1,2 C -0,6 C 1,6 km/h (1 Bft) 95,83 %
28.04.2016 07:29 -0,5 C 96 % 1016,0 hPa 0,0 l/m 0,1 km/h (0 Bft) SO 125 1 min 0,000 mm 0,0 UV-I 194 W/m -1,1 C -0,5 C 1,6 km/h (1 Bft) 100,00 %
28.04.2016 07:30 -0,4 C 96 % 1016,0 hPa 0,0 l/m 0,0 km/h (0 Bft) SO 125 1 min 0,000 mm 0,0 UV-I 196 W/m -1,0 C -0,4 C 0,0 km/h (0 Bft) 95,83 %
28.04.2016 07:31 -0,4 C 96 % 1016,0 hPa 0,0 l/m 0,0 km/h (0 Bft) SO 125 1 min 0,000 mm 0,0 UV-I 200 W/m -1,0 C -0,4 C 0,0 km/h (0 Bft) 95,65 %
28.04.2016 07:32 -0,4 C 96 % 1016,0 hPa 0,0 l/m 0,0 km/h (0 Bft) SO 125 1 min 0,000 mm 0,0 UV-I 203 W/m -1,0 C -0,4 C 0,0 km/h (0 Bft) 100,00 %
28.04.2016 07:33 -0,3 C 96 % 1016,0 hPa 0,0 l/m 0,0 km/h (0 Bft) SO 125 1 min 0,000 mm 0,0 UV-I 206 W/m -0,9 C -0,3 C 0,0 km/h (0 Bft) 95,65 %
28.04.2016 07:34 -0,2 C 96 % 1016,0 hPa 0,0 l/m 0,0 km/h (0 Bft) SO 125 1 min 0,000 mm 0,0 UV-I 208 W/m -0,8 C -0,2 C 0,0 km/h (0 Bft) 100,00 %
28.04.2016 07:35 -0,2 C 96 % 1016,1 hPa 0,0 l/m 0,0 km/h (0 Bft) SO 125 1 min 0,000 mm 0,0 UV-I 210 W/m -0,8 C -0,2 C 0,0 km/h (0 Bft) 95,65 %
28.04.2016 07:36 -0,1 C 96 % 1016,1 hPa 0,0 l/m 0,0 km/h (0 Bft) SO 125 1 min 0,000 mm 0,0 UV-I 213 W/m -0,7 C -0,1 C 0,0 km/h (0 Bft) 96,30 %
28.04.2016 07:37 -0,1 C 96 % 1016,1 hPa 0,0 l/m 0,1 km/h (0 Bft) SO 125 1 min 0,000 mm 0,0 UV-I 213 W/m -0,7 C -0,1 C 1,6 km/h (1 Bft) 95,65 %
28.04.2016 07:38 0,0 C 96 % 1016,1 hPa 0,0 l/m 0,0 km/h (0 Bft) SO 125 1 min 0,000 mm 0,0 UV-I 217 W/m -0,6 C 0,0 C 0,0 km/h (0 Bft) 100,00 %
28.04.2016 07:39 0,1 C 96 % 1016,1 hPa 0,0 l/m 0,6 km/h (0 Bft) SO 125 1 min 0,000 mm 0,0 UV-I 222 W/m -0,5 C 0,1 C 1,6 km/h (1 Bft) 95,65 %
28.04.2016 07:40 0,2 C 96 % 1016,1 hPa 0,0 l/m 1,3 km/h (1 Bft) SO 125 1 min 0,000 mm 0,0 UV-I 224 W/m -0,4 C 0,2 C 3,2 km/h (1 Bft) 100,00 %
28.04.2016 07:41 0,3 C 96 % 1016,1 hPa 0,0 l/m 0,1 km/h (0 Bft) SO 125 1 min 0,000 mm 0,0 UV-I 164 W/m -0,3 C 0,3 C 1,6 km/h (1 Bft) 85,71 %
28.04.2016 07:42 0,4 C 95 % 1016,0 hPa 0,0 l/m 0,7 km/h (0 Bft) SO 125 0 min 0,000 mm 0,0 UV-I 113 W/m -0,3 C 0,4 C 1,6 km/h (1 Bft) 100,00 %
28.04.2016 07:43 0,5 C 95 % 1016,1 hPa 0,0 l/m 0,1 km/h (0 Bft) SO 125 0 min 0,000 mm 0,0 UV-I 109 W/m -0,2 C 0,5 C 1,6 km/h (1 Bft) 100,00 %
28.04.2016 07:44 0,6 C 95 % 1016,1 hPa 0,0 l/m 0,0 km/h (0 Bft) SO 125 1 min 0,000 mm 0,0 UV-I 235 W/m -0,1 C 0,6 C 0,0 km/h (0 Bft) 95,83 %
28.04.2016 07:45 0,6 C 95 % 1016,1 hPa 0,0 l/m 0,7 km/h (0 Bft) SO 125 1 min 0,000 mm 0,0 UV-I 238 W/m -0,1 C 0,6 C 3,2 km/h (1 Bft) 95,83 %
28.04.2016 07:46 0,7 C 95 % 1016,1 hPa 0,0 l/m 0,9 km/h (0 Bft) SO 125 1 min 0,000 mm 0,0 UV-I 234 W/m -0,0 C 0,7 C 1,6 km/h (1 Bft) 95,65 %
28.04.2016 07:47 0,7 C 95 % 1016,1 hPa 0,0 l/m 1,5 km/h (1 Bft) SO 125 1 min 0,000 mm 0,0 UV-I 235 W/m -0,0 C 0,7 C 1,6 km/h (1 Bft) 100,00 %
28.04.2016 07:48 0,8 C 95 % 1016,1 hPa 0,0 l/m 1,7 km/h (1 Bft) SO 125 1 min 0,000 mm 0,0 UV-I 237 W/m 0,1 C 0,8 C 3,2 km/h (1 Bft) 100,00 %
28.04.2016 07:49 0,8 C 94 % 1016,2 hPa 0,0 l/m 1,1 km/h (1 Bft) SO 125 1 min 0,000 mm 0,0 UV-I 237 W/m -0,1 C 0,8 C 3,2 km/h (1 Bft) 100,00 %
28.04.2016 07:50 0,9 C 94 % 1016,2 hPa 0,0 l/m 1,1 km/h (1 Bft) SO 125 1 min 0,000 mm 0,0 UV-I 236 W/m 0,0 C 0,9 C 1,6 km/h (1 Bft) 100,00 %
28.04.2016 07:51 0,9 C 94 % 1016,2 hPa 0,0 l/m 1,4 km/h (1 Bft) SO 125 1 min 0,000 mm 0,0 UV-I 234 W/m 0,0 C 0,9 C 1,6 km/h (1 Bft) 100,00 %
28.04.2016 07:52 1,0 C 94 % 1016,1 hPa 0,0 l/m 0,9 km/h (0 Bft) SO 125 1 min 0,000 mm 0,0 UV-I 233 W/m 0,1 C 1,0 C 1,6 km/h (1 Bft) 100,00 %
28.04.2016 07:53 1,1 C 94 % 1016,2 hPa 0,0 l/m 1,1 km/h (1 Bft) SO 125 1 min 0,000 mm 0,0 UV-I 230 W/m 0,2 C 1,1 C 3,2 km/h (1 Bft) 95,83 %
28.04.2016 07:54 1,1 C 93 % 1016,2 hPa 0,0 l/m 2,1 km/h (1 Bft) SO 125 1 min 0,000 mm 0,0 UV-I 227 W/m 0,1 C 1,1 C 3,2 km/h (1 Bft) 100,00 %
28.04.2016 07:55 1,1 C 93 % 1016,2 hPa 0,0 l/m 2,3 km/h (1 Bft) SO 125 1 min 0,000 mm 0,0 UV-I 226 W/m 0,1 C 1,1 C 3,2 km/h (1 Bft) 100,00 %
28.04.2016 07:56 1,1 C 93 % 1016,2 hPa 0,0 l/m 1,3 km/h (1 Bft) SO 125 1 min 0,000 mm 0,5 UV-I 223 W/m 0,1 C 1,1 C 3,2 km/h (1 Bft) 95,65 %
28.04.2016 07:57 1,2 C 93 % 1016,2 hPa 0,0 l/m 1,7 km/h (1 Bft) SO 125 1 min 0,000 mm 0,5 UV-I 222 W/m 0,2 C 1,2 C 3,2 km/h (1 Bft) 100,00 %
28.04.2016 07:58 1,2 C 93 % 1016,2 hPa 0,0 l/m 1,2 km/h (1 Bft) SO 125 1 min 0,000 mm 0,5 UV-I 222 W/m 0,2 C 1,2 C 1,6 km/h (1 Bft) 95,65 %
28.04.2016 07:59 1,2 C 91 % 1016,2 hPa 0,0 l/m 1,7 km/h (1 Bft) SO 125 1 min 0,000 mm 0,5 UV-I 228 W/m -0,1 C 1,2 C 3,2 km/h (1 Bft) 95,83 %
28.04.2016 08:00 1,3 C 91 % 1016,1 hPa 0,0 l/m 1,8 km/h (1 Bft) SO 125 1 min 0,000 mm 0,5 UV-I 235 W/m -0,0 C 1,3 C 3,2 km/h (1 Bft) 100,00 %
28.04.2016 08:02 1,4 C 90 % 1016,2 hPa 0,0 l/m 1,8 km/h (1 Bft) SO 125 2 min 0,051 mm 0,5 UV-I 243 W/m -0,1 C 1,4 C 3,2 km/h (1 Bft) 100,00 %
28.04.2016 08:03 1,4 C 90 % 1016,2 hPa 0,0 l/m 1,3 km/h (1 Bft) SO 125 1 min 0,000 mm 0,5 UV-I 252 W/m -0,1 C 1,4 C 1,6 km/h (1 Bft) 100,00 %
28.04.2016 08:04 1,5 C 90 % 1016,2 hPa 0,0 l/m 2,4 km/h (1 Bft) SO 125 1 min 0,000 mm 0,5 UV-I 257 W/m 0,0 C 1,5 C 3,2 km/h (1 Bft) 91,30 %
28.04.2016 08:05 1,6 C 88 % 1016,2 hPa 0,0 l/m 2,1 km/h (1 Bft) SO 125 1 min 0,000 mm 0,5 UV-I 256 W/m -0,2 C 1,6 C 4,8 km/h (1 Bft) 100,00 %
28.04.2016 08:06 1,7 C 87 % 1016,2 hPa 0,0 l/m 2,2 km/h (1 Bft) SO 125 1 min 0,000 mm 0,5 UV-I 268 W/m -0,2 C 1,7 C 3,2 km/h (1 Bft) 100,00 %
28.04.2016 08:07 1,7 C 86 % 1016,2 hPa 0,0 l/m 1,8 km/h (1 Bft) SO 125 1 min 0,000 mm 0,5 UV-I 281 W/m -0,4 C 1,7 C 3,2 km/h (1 Bft) 100,00 %
28.04.2016 08:08 1,8 C 87 % 1016,2 hPa 0,0 l/m 0,7 km/h (0 Bft) SO 125 1 min 0,000 mm 0,5 UV-I 288 W/m -0,1 C 1,8 C 3,2 km/h (1 Bft) 100,00 %
28.04.2016 08:09 1,9 C 89 % 1016,2 hPa 0,0 l/m 0,8 km/h (0 Bft) O-NO 78 1 min 0,000 mm 0,6 UV-I 290 W/m 0,3 C 1,9 C 1,6 km/h (1 Bft) 100,00 %
28.04.2016 08:10 2,0 C 90 % 1016,3 hPa 0,0 l/m 1,3 km/h (1 Bft) N-NO 17 1 min 0,000 mm 0,6 UV-I 297 W/m 0,5 C 2,0 C 3,2 km/h (1 Bft) 100,00 %
28.04.2016 08:11 2,0 C 91 % 1016,2 hPa 0,0 l/m 1,0 km/h (0 Bft) N-NO 17 1 min 0,000 mm 0,6 UV-I 303 W/m 0,7 C 2,0 C 1,6 km/h (1 Bft) 95,65 %
28.04.2016 08:12 2,1 C 91 % 1016,2 hPa 0,0 l/m 0,1 km/h (0 Bft) N-NO 17 1 min 0,000 mm 0,6 UV-I 298 W/m 0,8 C 2,1 C 1,6 km/h (1 Bft) 95,83 %
28.04.2016 08:13 2,1 C 91 % 1016,3 hPa 0,0 l/m 0,8 km/h (0 Bft) N-NO 14 1 min 0,000 mm 0,6 UV-I 296 W/m 0,8 C 2,1 C 1,6 km/h (1 Bft) 100,00 %
28.04.2016 08:14 2,1 C 91 % 1016,3 hPa 0,0 l/m 0,7 km/h (0 Bft) N-NO 14 1 min 0,000 mm 0,6 UV-I 295 W/m 0,8 C 2,1 C 1,6 km/h (1 Bft) 100,00 %
28.04.2016 08:15 2,0 C 91 % 1016,3 hPa 0,0 l/m 0,7 km/h (0 Bft) N-NO 13 1 min 0,000 mm 0,6 UV-I 306 W/m 0,7 C 2,0 C 1,6 km/h (1 Bft) 96,55 %
28.04.2016 08:16 2,0 C 91 % 1016,2 hPa 0,0 l/m 0,3 km/h (0 Bft) N-NO 13 1 min 0,000 mm 0,6 UV-I 310 W/m 0,7 C 2,0 C 1,6 km/h (1 Bft) 95,83 %
28.04.2016 08:17 1,9 C 91 % 1016,2 hPa 0,0 l/m 0,3 km/h (0 Bft) N-NO 13 1 min 0,000 mm 0,6 UV-I 305 W/m 0,6 C 1,9 C 1,6 km/h (1 Bft) 100,00 %
28.04.2016 08:18 1,9 C 91 % 1016,2 hPa 0,0 l/m 0,9 km/h (0 Bft) N-NO 13 1 min 0,000 mm 0,5 UV-I 293 W/m 0,6 C 1,9 C 3,2 km/h (1 Bft) 100,00 %
28.04.2016 08:19 1,8 C 91 % 1016,2 hPa 0,0 l/m 0,5 km/h (0 Bft) N-NO 13 0 min 0,000 mm 0,5 UV-I 93 W/m 0,5 C 1,8 C 3,2 km/h (1 Bft) 100,00 %
28.04.2016 08:20 1,8 C 91 % 1016,2 hPa 0,0 l/m 1,2 km/h (1 Bft) N-NO 13 0 min 0,000 mm 0,5 UV-I 100 W/m 0,5 C 1,8 C 3,2 km/h (1 Bft) 100,00 %
28.04.2016 08:21 1,8 C 91 % 1016,2 hPa 0,0 l/m 3,6 km/h (1 Bft) N-NO 23 0 min 0,000 mm 0,6 UV-I 136 W/m 0,5 C 1,8 C 4,8 km/h (1 Bft) 100,00 %
28.04.2016 08:22 1,8 C 91 % 1016,2 hPa 0,0 l/m 3,8 km/h (1 Bft) N-NO 23 0 min 0,000 mm 0,7 UV-I 211 W/m 0,5 C 1,8 C 4,8 km/h (1 Bft) 100,00 %
28.04.2016 08:23 1,8 C 91 % 1016,2 hPa 0,0 l/m 3,8 km/h (1 Bft) N-NO 23 0 min 0,000 mm 0,7 UV-I 208 W/m 0,5 C 1,8 C 4,8 km/h (1 Bft) 100,00 %
28.04.2016 08:24 1,8 C 92 % 1016,2 hPa 0,0 l/m 3,4 km/h (1 Bft) N-NO 23 1 min 0,000 mm 0,7 UV-I 292 W/m 0,6 C 1,8 C 4,8 km/h (1 Bft) 96,30 %
28.04.2016 08:25 1,8 C 92 % 1016,2 hPa 0,0 l/m 3,0 km/h (1 Bft) N-NO 23 1 min 0,000 mm 0,7 UV-I 323 W/m 0,6 C 1,8 C 4,8 km/h (1 Bft) 100,00 %
28.04.2016 08:26 1,9 C 93 % 1016,2 hPa 0,0 l/m 5,0 km/h (1 Bft) N-NO 23 1 min 0,000 mm 0,7 UV-I 325 W/m 0,9 C 1,9 C 6,4 km/h (2 Bft) 100,00 %
28.04.2016 08:27 2,0 C 93 % 1016,2 hPa 0,0 l/m 5,1 km/h (1 Bft) N-NO 23 1 min 0,000 mm 0,8 UV-I 321 W/m 1,0 C 2,0 C 6,4 km/h (2 Bft) 100,00 %
28.04.2016 08:28 2,0 C 92 % 1016,2 hPa 0,0 l/m 3,5 km/h (1 Bft) N-NO 23 1 min 0,000 mm 0,8 UV-I 320 W/m 0,8 C 2,0 C 4,8 km/h (1 Bft) 100,00 %
28.04.2016 08:29 2,1 C 93 % 1016,2 hPa 0,0 l/m 3,8 km/h (1 Bft) N-NO 23 1 min 0,000 mm 0,8 UV-I 306 W/m 1,1 C 2,1 C 4,8 km/h (1 Bft) 100,00 %
28.04.2016 08:30 2,1 C 93 % 1016,2 hPa 0,0 l/m 4,7 km/h (1 Bft) N-NO 23 1 min 0,000 mm 0,8 UV-I 308 W/m 1,1 C 2,1 C 6,4 km/h (2 Bft) 100,00 %
28.04.2016 08:31 2,2 C 93 % 1016,2 hPa 0,0 l/m 4,5 km/h (1 Bft) N-NO 28 1 min 0,000 mm 0,8 UV-I 313 W/m 1,2 C 2,2 C 6,4 km/h (2 Bft) 100,00 %
28.04.2016 08:32 2,3 C 93 % 1016,2 hPa 0,0 l/m 4,6 km/h (1 Bft) N-NO 22 1 min 0,000 mm 0,8 UV-I 311 W/m 1,3 C 2,3 C 6,4 km/h (2 Bft) 95,65 %
28.04.2016 08:33 2,4 C 93 % 1016,2 hPa 0,0 l/m 5,1 km/h (1 Bft) N-NO 22 1 min 0,000 mm 0,8 UV-I 303 W/m 1,4 C 2,4 C 6,4 km/h (2 Bft) 100,00 %
28.04.2016 08:34 2,4 C 93 % 1016,2 hPa 0,0 l/m 5,7 km/h (1 Bft) N-NO 17 1 min 0,000 mm 0,8 UV-I 302 W/m 1,4 C 2,4 C 6,4 km/h (2 Bft) 100,00 %
28.04.2016 08:35 2,5 C 92 % 1016,2 hPa 0,0 l/m 5,4 km/h (1 Bft) N-NO 24 1 min 0,000 mm 0,8 UV-I 291 W/m 1,3 C 2,5 C 8,0 km/h (2 Bft) 100,00 %
28.04.2016 08:36 2,5 C 92 % 1016,2 hPa 0,0 l/m 6,3 km/h (2 Bft) N-NO 22 0 min 0,000 mm 0,8 UV-I 230 W/m 1,3 C 2,5 C 8,0 km/h (2 Bft) 100,00 %
28.04.2016 08:37 2,4 C 92 % 1016,2 hPa 0,0 l/m 4,2 km/h (1 Bft) N-NO 23 0 min 0,000 mm 0,8 UV-I 183 W/m 1,2 C 2,4 C 4,8 km/h (1 Bft) 100,00 %
28.04.2016 08:38 2,3 C 91 % 1016,2 hPa 0,0 l/m 3,8 km/h (1 Bft) N-NO 28 0 min 0,000 mm 0,8 UV-I 230 W/m 1,0 C 2,3 C 4,8 km/h (1 Bft) 100,00 %
28.04.2016 08:39 2,2 C 91 % 1016,2 hPa 0,0 l/m 4,1 km/h (1 Bft) N-NO 29 1 min 0,000 mm 0,9 UV-I 256 W/m 0,9 C 2,2 C 6,4 km/h (2 Bft) 100,00 %
28.04.2016 08:40 2,1 C 90 % 1016,2 hPa 0,0 l/m 4,0 km/h (1 Bft) N-NO 30 0 min 0,000 mm 0,9 UV-I 240 W/m 0,6 C 2,1 C 4,8 km/h (1 Bft) 100,00 %
28.04.2016 08:41 2,0 C 91 % 1016,2 hPa 0,0 l/m 3,3 km/h (1 Bft) N-NO 30 0 min 0,000 mm 0,9 UV-I 232 W/m 0,7 C 2,0 C 4,8 km/h (1 Bft) 100,00 %
28.04.2016 08:42 2,1 C 92 % 1016,2 hPa 0,0 l/m 3,6 km/h (1 Bft) N-NO 30 0 min 0,000 mm 0,9 UV-I 248 W/m 0,9 C 2,1 C 4,8 km/h (1 Bft) 100,00 %
28.04.2016 08:43 2,1 C 92 % 1016,2 hPa 0,0 l/m 3,0 km/h (1 Bft) N-NO 32 1 min 0,000 mm 0,9 UV-I 274 W/m 0,9 C 2,1 C 4,8 km/h (1 Bft) 100,00 %
28.04.2016 08:44 2,2 C 92 % 1016,2 hPa 0,0 l/m 3,2 km/h (1 Bft) N-NO 32 1 min 0,000 mm 0,9 UV-I 274 W/m 1,0 C 2,2 C 4,8 km/h (1 Bft) 95,65 %
28.04.2016 08:45 2,2 C 92 % 1016,2 hPa 0,0 l/m 5,6 km/h (1 Bft) N-NO 28 0 min 0,000 mm 0,8 UV-I 251 W/m 1,0 C 2,2 C 6,4 km/h (2 Bft) 100,00 %
28.04.2016 08:46 2,3 C 92 % 1016,2 hPa 0,0 l/m 5,6 km/h (1 Bft) N-NO 28 0 min 0,000 mm 0,9 UV-I 227 W/m 1,1 C 2,3 C 8,0 km/h (2 Bft) 100,00 %
28.04.2016 08:47 2,3 C 92 % 1016,2 hPa 0,0 l/m 7,6 km/h (2 Bft) N-NO 25 1 min 0,000 mm 1,0 UV-I 262 W/m 1,1 C 1,1 C 11,3 km/h (2 Bft) 100,00 %
28.04.2016 08:48 2,3 C 92 % 1016,2 hPa 0,0 l/m 7,9 km/h (2 Bft) N-NO 32 1 min 0,000 mm 1,0 UV-I 285 W/m 1,1 C 0,9 C 11,3 km/h (2 Bft) 100,00 %
28.04.2016 08:49 2,4 C 92 % 1016,2 hPa 0,0 l/m 7,6 km/h (2 Bft) N-NO 29 1 min 0,000 mm 1,0 UV-I 267 W/m 1,2 C 1,2 C 12,9 km/h (3 Bft) 100,00 %
28.04.2016 08:50 2,3 C 92 % 1016,2 hPa 0,0 l/m 5,7 km/h (1 Bft) N-NO 14 1 min 0,000 mm 1,0 UV-I 304 W/m 1,1 C 2,3 C 11,3 km/h (2 Bft) 100,00 %
28.04.2016 08:51 2,4 C 92 % 1016,2 hPa 0,0 l/m 3,2 km/h (1 Bft) N-NO 15 1 min 0,000 mm 1,0 UV-I 336 W/m 1,2 C 2,4 C 6,4 km/h (2 Bft) 100,00 %
28.04.2016 08:52 2,4 C 92 % 1016,3 hPa 0,0 l/m 5,8 km/h (2 Bft) N-NO 24 1 min 0,000 mm 1,1 UV-I 369 W/m 1,2 C 2,4 C 9,7 km/h (2 Bft) 100,00 %
28.04.2016 08:53 2,4 C 92 % 1016,2 hPa 0,0 l/m 7,9 km/h (2 Bft) N-NO 24 1 min 0,000 mm 1,1 UV-I 382 W/m 1,2 C 1,0 C 9,7 km/h (2 Bft) 100,00 %
28.04.2016 08:54 2,5 C 92 % 1016,2 hPa 0,0 l/m 6,2 km/h (2 Bft) N-NO 24 1 min 0,000 mm 1,1 UV-I 382 W/m 1,3 C 2,5 C 8,0 km/h (2 Bft) 100,00 %
28.04.2016 08:55 2,6 C 93 % 1016,3 hPa 0,0 l/m 5,7 km/h (1 Bft) N-NO 19 1 min 0,000 mm 1,1 UV-I 361 W/m 1,6 C 2,6 C 8,0 km/h (2 Bft) 95,65 %
28.04.2016 08:56 2,6 C 92 % 1016,2 hPa 0,0 l/m 5,5 km/h (1 Bft) O-NO 59 1 min 0,000 mm 1,1 UV-I 376 W/m 1,4 C 2,6 C 8,0 km/h (2 Bft) 100,00 %
28.04.2016 08:57 2,4 C 90 % 1016,2 hPa 0,0 l/m 6,0 km/h (2 Bft) N-NO 32 1 min 0,000 mm 1,1 UV-I 398 W/m 0,9 C 2,4 C 8,0 km/h (2 Bft) 91,30 %
28.04.2016 08:58 2,4 C 91 % 1016,3 hPa 0,0 l/m 7,0 km/h (2 Bft) NO 51 1 min 0,000 mm 1,1 UV-I 410 W/m 1,1 C 1,8 C 9,7 km/h (2 Bft) 100,00 %
28.04.2016 08:59 2,4 C 92 % 1016,3 hPa 0,0 l/m 7,4 km/h (2 Bft) NO 39 1 min 0,000 mm 1,2 UV-I 434 W/m 1,2 C 1,4 C 9,7 km/h (2 Bft) 100,00 %
28.04.2016 09:00 2,6 C 92 % 1016,3 hPa 0,0 l/m 8,5 km/h (2 Bft) NO 40 1 min 0,101 mm 1,2 UV-I 438 W/m 1,4 C 0,6 C 9,7 km/h (2 Bft) 98,18 %
28.04.2016 09:02 2,6 C 92 % 1016,3 hPa 0,0 l/m 7,6 km/h (2 Bft) NO 42 2 min 0,000 mm 1,1 UV-I 435 W/m 1,4 C 1,5 C 11,3 km/h (2 Bft) 98,39 %
28.04.2016 09:03 2,6 C 91 % 1016,3 hPa 0,0 l/m 8,2 km/h (2 Bft) NO 53 1 min 0,000 mm 1,2 UV-I 395 W/m 1,3 C 0,9 C 9,7 km/h (2 Bft) 91,67 %
28.04.2016 09:04 2,4 C 91 % 1016,3 hPa 0,0 l/m 7,3 km/h (2 Bft) N-NO 28 1 min 0,000 mm 1,1 UV-I 313 W/m 1,1 C 1,5 C 12,9 km/h (3 Bft) 100,00 %
28.04.2016 09:05 2,3 C 92 % 1016,3 hPa 0,0 l/m 7,5 km/h (2 Bft) NO 37 0 min 0,000 mm 1,0 UV-I 278 W/m 1,1 C 1,2 C 14,5 km/h (3 Bft) 91,67 %
28.04.2016 09:06 2,3 C 92 % 1016,3 hPa 0,0 l/m 6,5 km/h (2 Bft) N-NO 32 1 min 0,000 mm 1,0 UV-I 345 W/m 1,1 C 2,2 C 9,7 km/h (2 Bft) 100,00 %
28.04.2016 09:07 2,3 C 93 % 1016,3 hPa 0,0 l/m 7,8 km/h (2 Bft) N-NO 27 1 min 0,000 mm 1,1 UV-I 380 W/m 1,3 C 1,0 C 11,3 km/h (2 Bft) 95,83 %
28.04.2016 09:08 2,3 C 93 % 1016,3 hPa 0,0 l/m 4,6 km/h (1 Bft) O-NO 62 1 min 0,000 mm 1,0 UV-I 305 W/m 1,3 C 2,3 C 8,0 km/h (2 Bft) 95,65 %
28.04.2016 09:09 2,2 C 93 % 1016,3 hPa 0,0 l/m 2,1 km/h (1 Bft) N-NO 28 0 min 0,000 mm 1,0 UV-I 221 W/m 1,2 C 2,2 C 3,2 km/h (1 Bft) 95,83 %
28.04.2016 09:10 2,2 C 93 % 1016,3 hPa 0,0 l/m 2,3 km/h (1 Bft) N 5 0 min 0,000 mm 0,9 UV-I 204 W/m 1,2 C 2,2 C 6,4 km/h (2 Bft) 91,30 %
28.04.2016 09:11 2,1 C 93 % 1016,3 hPa 0,0 l/m 2,6 km/h (1 Bft) N 9 0 min 0,000 mm 1,0 UV-I 214 W/m 1,1 C 2,1 C 4,8 km/h (1 Bft) 100,00 %
28.04.2016 09:12 2,0 C 93 % 1016,3 hPa 0,0 l/m 2,1 km/h (1 Bft) N-NO 19 0 min 0,000 mm 1,0 UV-I 210 W/m 1,0 C 2,0 C 4,8 km/h (1 Bft) 96,15 %
28.04.2016 09:13 1,9 C 92 % 1016,3 hPa 0,0 l/m 0,8 km/h (0 Bft) N 355 0 min 0,000 mm 1,0 UV-I 197 W/m 0,7 C 1,9 C 1,6 km/h (1 Bft) 100,00 %
28.04.2016 09:14 1,9 C 93 % 1016,3 hPa 0,0 l/m 5,1 km/h (1 Bft) N-NO 20 0 min 0,000 mm 1,0 UV-I 199 W/m 0,9 C 1,9 C 8,0 km/h (2 Bft) 96,15 %
28.04.2016 09:15 1,8 C 93 % 1016,3 hPa 0,0 l/m 3,1 km/h (1 Bft) N-NO 22 0 min 0,000 mm 1,0 UV-I 212 W/m 0,8 C 1,8 C 8,0 km/h (2 Bft) 95,83 %
28.04.2016 09:16 1,8 C 93 % 1016,3 hPa 0,0 l/m 1,9 km/h (1 Bft) N 5 0 min 0,000 mm 1,0 UV-I 216 W/m 0,8 C 1,8 C 4,8 km/h (1 Bft) 100,00 %
28.04.2016 09:17 1,8 C 93 % 1016,3 hPa 0,0 l/m 0,5 km/h (0 Bft) N 5 0 min 0,000 mm 1,2 UV-I 243 W/m 0,8 C 1,8 C 3,2 km/h (1 Bft) 91,67 %
28.04.2016 09:18 1,8 C 93 % 1016,3 hPa 0,0 l/m 2,7 km/h (1 Bft) N-NO 31 0 min 0,000 mm 1,2 UV-I 244 W/m 0,8 C 1,8 C 4,8 km/h (1 Bft) 100,00 %
28.04.2016 09:19 1,9 C 93 % 1016,3 hPa 0,0 l/m 3,6 km/h (1 Bft) N-NO 30 1 min 0,000 mm 1,3 UV-I 332 W/m 0,9 C 1,9 C 8,0 km/h (2 Bft) 95,83 %
28.04.2016 09:20 1,9 C 94 % 1016,3 hPa 0,0 l/m 4,4 km/h (1 Bft) NO 38 1 min 0,000 mm 1,3 UV-I 455 W/m 1,0 C 1,9 C 6,4 km/h (2 Bft) 100,00 %
28.04.2016 09:21 2,1 C 94 % 1016,3 hPa 0,0 l/m 6,6 km/h (2 Bft) N-NO 27 1 min 0,000 mm 1,4 UV-I 507 W/m 1,2 C 1,9 C 12,9 km/h (3 Bft) 95,83 %
28.04.2016 09:22 2,2 C 94 % 1016,2 hPa 0,0 l/m 6,4 km/h (2 Bft) NO 42 1 min 0,000 mm 1,5 UV-I 538 W/m 1,3 C 2,2 C 11,3 km/h (2 Bft) 100,00 %
28.04.2016 09:23 2,3 C 94 % 1016,2 hPa 0,0 l/m 5,0 km/h (1 Bft) N-NO 22 1 min 0,000 mm 1,5 UV-I 544 W/m 1,4 C 2,3 C 6,4 km/h (2 Bft) 95,65 %
28.04.2016 09:24 2,5 C 94 % 1016,2 hPa 0,0 l/m 5,5 km/h (1 Bft) N-NO 32 1 min 0,000 mm 1,5 UV-I 585 W/m 1,6 C 2,5 C 8,0 km/h (2 Bft) 100,00 %
28.04.2016 09:25 2,7 C 94 % 1016,2 hPa 0,0 l/m 3,5 km/h (1 Bft) NO 36 1 min 0,000 mm 1,3 UV-I 514 W/m 1,8 C 2,7 C 8,0 km/h (2 Bft) 95,65 %
28.04.2016 09:26 2,7 C 93 % 1016,2 hPa 0,0 l/m 3,5 km/h (1 Bft) N 351 1 min 0,000 mm 1,5 UV-I 404 W/m 1,7 C 2,7 C 8,0 km/h (2 Bft) 91,67 %
28.04.2016 09:27 2,8 C 93 % 1016,2 hPa 0,0 l/m 2,2 km/h (1 Bft) N-NO 24 1 min 0,000 mm 1,6 UV-I 544 W/m 1,8 C 2,8 C 3,2 km/h (1 Bft) 100,00 %
28.04.2016 09:28 3,0 C 94 % 1016,2 hPa 0,0 l/m 5,2 km/h (1 Bft) N-NO 33 1 min 0,000 mm 1,6 UV-I 611 W/m 2,1 C 3,0 C 8,0 km/h (2 Bft) 95,83 %
28.04.2016 09:29 3,1 C 93 % 1016,2 hPa 0,0 l/m 8,0 km/h (2 Bft) N-NO 15 1 min 0,000 mm 1,6 UV-I 635 W/m 2,1 C 1,6 C 11,3 km/h (2 Bft) 100,00 %
28.04.2016 09:30 3,2 C 93 % 1016,2 hPa 0,0 l/m 4,7 km/h (1 Bft) N 11 1 min 0,000 mm 1,7 UV-I 625 W/m 2,2 C 3,2 C 8,0 km/h (2 Bft) 95,83 %
28.04.2016 09:31 3,2 C 93 % 1016,2 hPa 0,0 l/m 5,9 km/h (2 Bft) N-NO 24 1 min 0,000 mm 1,7 UV-I 633 W/m 2,2 C 3,2 C 8,0 km/h (2 Bft) 100,00 %
28.04.2016 09:32 3,2 C 91 % 1016,2 hPa 0,0 l/m 4,4 km/h (1 Bft) N-NO 26 1 min 0,000 mm 1,7 UV-I 637 W/m 1,9 C 3,2 C 8,0 km/h (2 Bft) 95,83 %
28.04.2016 09:33 3,2 C 91 % 1016,3 hPa 0,0 l/m 1,5 km/h (1 Bft) N 9 1 min 0,000 mm 1,7 UV-I 621 W/m 1,9 C 3,2 C 3,2 km/h (1 Bft) 100,00 %
28.04.2016 09:34 3,2 C 92 % 1016,2 hPa 0,0 l/m 5,9 km/h (2 Bft) NO 44 1 min 0,000 mm 1,7 UV-I 554 W/m 2,0 C 3,2 C 8,0 km/h (2 Bft) 100,00 %
28.04.2016 09:35 3,3 C 93 % 1016,3 hPa 0,0 l/m 3,7 km/h (1 Bft) NO 38 1 min 0,000 mm 1,8 UV-I 557 W/m 2,3 C 3,3 C 6,4 km/h (2 Bft) 95,65 %
28.04.2016 09:36 3,3 C 92 % 1016,3 hPa 0,0 l/m 1,5 km/h (1 Bft) N-NO 33 1 min 0,000 mm 1,7 UV-I 625 W/m 2,1 C 3,3 C 3,2 km/h (1 Bft) 100,00 %
28.04.2016 09:37 3,3 C 91 % 1016,3 hPa 0,0 l/m 5,2 km/h (1 Bft) NO 42 1 min 0,000 mm 1,8 UV-I 627 W/m 2,0 C 3,3 C 9,7 km/h (2 Bft) 100,00 %
28.04.2016 09:38 3,4 C 92 % 1016,3 hPa 0,0 l/m 7,3 km/h (2 Bft) NO 44 1 min 0,000 mm 1,8 UV-I 659 W/m 2,2 C 2,6 C 9,7 km/h (2 Bft) 100,00 %
28.04.2016 09:39 3,4 C 90 % 1016,3 hPa 0,0 l/m 3,8 km/h (1 Bft) NO 46 1 min 0,000 mm 1,8 UV-I 617 W/m 1,9 C 3,4 C 6,4 km/h (2 Bft) 100,00 %
28.04.2016 09:40 3,4 C 91 % 1016,3 hPa 0,0 l/m 4,3 km/h (1 Bft) NO 45 1 min 0,000 mm 1,8 UV-I 620 W/m 2,1 C 3,4 C 6,4 km/h (2 Bft) 100,00 %
28.04.2016 09:41 3,6 C 91 % 1016,3 hPa 0,0 l/m 2,1 km/h (1 Bft) N-NO 19 1 min 0,000 mm 1,8 UV-I 638 W/m 2,3 C 3,6 C 3,2 km/h (1 Bft) 92,31 %
28.04.2016 09:42 3,5 C 89 % 1016,3 hPa 0,0 l/m 1,1 km/h (1 Bft) N-NO 19 1 min 0,000 mm 1,9 UV-I 637 W/m 1,9 C 3,5 C 3,2 km/h (1 Bft) 100,00 %
28.04.2016 09:43 3,6 C 89 % 1016,3 hPa 0,0 l/m 1,4 km/h (1 Bft) N-NO 33 1 min 0,000 mm 1,8 UV-I 647 W/m 2,0 C 3,6 C 3,2 km/h (1 Bft) 95,65 %
28.04.2016 09:44 3,7 C 90 % 1016,4 hPa 0,0 l/m 3,0 km/h (1 Bft) N-NW 331 1 min 0,000 mm 1,9 UV-I 651 W/m 2,2 C 3,7 C 4,8 km/h (1 Bft) 100,00 %
28.04.2016 09:45 3,8 C 90 % 1016,3 hPa 0,0 l/m 2,2 km/h (1 Bft) NO 44 1 min 0,000 mm 1,9 UV-I 668 W/m 2,3 C 3,8 C 4,8 km/h (1 Bft) 100,00 %
28.04.2016 09:46 3,8 C 88 % 1016,3 hPa 0,0 l/m 3,1 km/h (1 Bft) N-NO 22 1 min 0,000 mm 1,9 UV-I 665 W/m 2,0 C 3,8 C 6,4 km/h (2 Bft) 95,83 %
28.04.2016 09:47 3,8 C 89 % 1016,4 hPa 0,0 l/m 2,5 km/h (1 Bft) N-NO 22 1 min 0,000 mm 1,9 UV-I 661 W/m 2,2 C 3,8 C 4,8 km/h (1 Bft) 100,00 %
28.04.2016 09:48 3,8 C 88 % 1016,3 hPa 0,0 l/m 1,1 km/h (1 Bft) N-NW 333 1 min 0,000 mm 1,9 UV-I 659 W/m 2,0 C 3,8 C 1,6 km/h (1 Bft) 100,00 %
28.04.2016 09:49 3,9 C 89 % 1016,4 hPa 0,0 l/m 0,7 km/h (0 Bft) N-NW 348 1 min 0,000 mm 1,9 UV-I 675 W/m 2,3 C 3,9 C 1,6 km/h (1 Bft) 100,00 %
28.04.2016 09:50 3,9 C 89 % 1016,4 hPa 0,0 l/m 4,0 km/h (1 Bft) N-NO 22 1 min 0,000 mm 2,0 UV-I 692 W/m 2,3 C 3,9 C 8,0 km/h (2 Bft) 100,00 %
28.04.2016 09:51 4,0 C 90 % 1016,3 hPa 0,0 l/m 2,8 km/h (1 Bft) NW 310 1 min 0,000 mm 2,0 UV-I 657 W/m 2,5 C 4,0 C 6,4 km/h (2 Bft) 100,00 %
28.04.2016 09:52 4,2 C 91 % 1016,3 hPa 0,0 l/m 2,4 km/h (1 Bft) N-NW 346 1 min 0,000 mm 2,0 UV-I 667 W/m 2,9 C 4,2 C 3,2 km/h (1 Bft) 100,00 %
28.04.2016 09:53 4,2 C 89 % 1016,4 hPa 0,0 l/m 1,6 km/h (1 Bft) N-NW 335 1 min 0,000 mm 2,0 UV-I 660 W/m 2,6 C 4,2 C 4,8 km/h (1 Bft) 100,00 %
28.04.2016 09:54 4,1 C 88 % 1016,4 hPa 0,0 l/m 0,8 km/h (0 Bft) N-NW 335 1 min 0,000 mm 2,0 UV-I 667 W/m 2,3 C 4,1 C 1,6 km/h (1 Bft) 100,00 %
28.04.2016 09:55 4,1 C 87 % 1016,4 hPa 0,0 l/m 5,3 km/h (1 Bft) NO 36 1 min 0,000 mm 2,0 UV-I 674 W/m 2,1 C 4,1 C 8,0 km/h (2 Bft) 100,00 %
28.04.2016 09:56 4,2 C 89 % 1016,4 hPa 0,0 l/m 3,8 km/h (1 Bft) N-NO 18 1 min 0,000 mm 2,1 UV-I 679 W/m 2,6 C 4,2 C 6,4 km/h (2 Bft) 100,00 %
28.04.2016 09:57 4,3 C 90 % 1016,4 hPa 0,0 l/m 6,6 km/h (2 Bft) N-NO 25 1 min 0,000 mm 2,1 UV-I 682 W/m 2,8 C 4,1 C 12,9 km/h (3 Bft) 100,00 %
28.04.2016 09:58 4,5 C 90 % 1016,4 hPa 0,0 l/m 6,0 km/h (2 Bft) NO 42 1 min 0,000 mm 2,1 UV-I 680 W/m 3,0 C 4,5 C 8,0 km/h (2 Bft) 100,00 %
28.04.2016 09:59 4,6 C 90 % 1016,5 hPa 0,0 l/m 2,2 km/h (1 Bft) NW 315 1 min 0,000 mm 2,1 UV-I 682 W/m 3,1 C 4,6 C 3,2 km/h (1 Bft) 100,00 %
28.04.2016 10:00 4,7 C 89 % 1016,5 hPa 0,0 l/m 2,2 km/h (1 Bft) N-NO 15 1 min 0,204 mm 2,1 UV-I 689 W/m 3,0 C 4,7 C 4,8 km/h (1 Bft) 100,00 %
28.04.2016 10:02 4,6 C 88 % 1016,5 hPa 0,0 l/m 3,8 km/h (1 Bft) N 5 2 min 0,000 mm 2,0 UV-I 589 W/m 2,8 C 4,6 C 8,0 km/h (2 Bft) 97,92 %
28.04.2016 10:03 4,7 C 89 % 1016,5 hPa 0,0 l/m 5,5 km/h (1 Bft) N 5 1 min 0,000 mm 1,9 UV-I 559 W/m 3,0 C 4,7 C 9,7 km/h (2 Bft) 100,00 %
28.04.2016 10:04 4,6 C 87 % 1016,5 hPa 0,0 l/m 2,0 km/h (1 Bft) N-NW 344 1 min 0,000 mm 1,7 UV-I 547 W/m 2,6 C 4,6 C 3,2 km/h (1 Bft) 100,00 %
28.04.2016 10:05 4,6 C 88 % 1016,5 hPa 0,0 l/m 2,5 km/h (1 Bft) N 10 1 min 0,000 mm 2,0 UV-I 432 W/m 2,8 C 4,6 C 6,4 km/h (2 Bft) 100,00 %
28.04.2016 10:06 4,6 C 87 % 1016,5 hPa 0,0 l/m 2,1 km/h (1 Bft) N-NO 13 1 min 0,000 mm 2,0 UV-I 469 W/m 2,6 C 4,6 C 4,8 km/h (1 Bft) 100,00 %
28.04.2016 10:07 4,4 C 84 % 1016,4 hPa 0,0 l/m 2,7 km/h (1 Bft) N 10 1 min 0,000 mm 2,2 UV-I 559 W/m 1,9 C 4,4 C 4,8 km/h (1 Bft) 100,00 %
28.04.2016 10:08 4,3 C 85 % 1016,5 hPa 0,0 l/m 1,9 km/h (1 Bft) N 360 1 min 0,000 mm 2,0 UV-I 635 W/m 2,0 C 4,3 C 4,8 km/h (1 Bft) 100,00 %
28.04.2016 10:09 4,3 C 85 % 1016,5 hPa 0,0 l/m 1,5 km/h (1 Bft) NW 323 1 min 0,000 mm 2,1 UV-I 635 W/m 2,0 C 4,3 C 3,2 km/h (1 Bft) 91,30 %
28.04.2016 10:10 4,3 C 86 % 1016,5 hPa 0,0 l/m 4,5 km/h (1 Bft) N 5 1 min 0,000 mm 2,3 UV-I 649 W/m 2,2 C 4,3 C 8,0 km/h (2 Bft) 100,00 %
28.04.2016 10:11 4,4 C 88 % 1016,5 hPa 0,0 l/m 5,4 km/h (1 Bft) N-NO 32 1 min 0,000 mm 2,3 UV-I 717 W/m 2,6 C 4,4 C 9,7 km/h (2 Bft) 100,00 %
28.04.2016 10:12 4,6 C 88 % 1016,5 hPa 0,0 l/m 3,5 km/h (1 Bft) N-NW 348 1 min 0,000 mm 2,3 UV-I 648 W/m 2,8 C 4,6 C 8,0 km/h (2 Bft) 100,00 %
28.04.2016 10:13 4,7 C 89 % 1016,6 hPa 0,0 l/m 2,6 km/h (1 Bft) N 355 1 min 0,000 mm 2,3 UV-I 617 W/m 3,0 C 4,7 C 3,2 km/h (1 Bft) 100,00 %
28.04.2016 10:14 4,8 C 88 % 1016,5 hPa 0,0 l/m 1,4 km/h (1 Bft) N 9 1 min 0,000 mm 2,0 UV-I 610 W/m 3,0 C 4,8 C 3,2 km/h (1 Bft) 100,00 %
28.04.2016 10:15 4,9 C 88 % 1016,6 hPa 0,0 l/m 2,7 km/h (1 Bft) N-NO 29 1 min 0,000 mm 2,1 UV-I 610 W/m 3,1 C 4,9 C 4,8 km/h (1 Bft) 100,00 %
28.04.2016 10:16 4,9 C 86 % 1016,6 hPa 0,0 l/m 3,0 km/h (1 Bft) W-NW 292 1 min 0,000 mm 2,3 UV-I 709 W/m 2,8 C 4,9 C 4,8 km/h (1 Bft) 100,00 %
28.04.2016 10:17 4,8 C 85 % 1016,6 hPa 0,0 l/m 3,2 km/h (1 Bft) N-NW 329 1 min 0,000 mm 2,2 UV-I 696 W/m 2,5 C 4,8 C 4,8 km/h (1 Bft) 100,00 %
28.04.2016 10:18 4,7 C 85 % 1016,6 hPa 0,0 l/m 2,9 km/h (1 Bft) N-NO 15 1 min 0,000 mm 2,3 UV-I 705 W/m 2,4 C 4,7 C 4,8 km/h (1 Bft) 100,00 %
28.04.2016 10:19 4,8 C 88 % 1016,6 hPa 0,0 l/m 4,3 km/h (1 Bft) N-NO 26 1 min 0,000 mm 2,2 UV-I 669 W/m 3,0 C 4,8 C 6,4 km/h (2 Bft) 100,00 %
28.04.2016 10:20 4,9 C 87 % 1016,6 hPa 0,0 l/m 5,2 km/h (1 Bft) N 5 1 min 0,000 mm 2,1 UV-I 589 W/m 2,9 C 4,9 C 11,3 km/h (2 Bft) 100,00 %
28.04.2016 10:21 5,1 C 87 % 1016,6 hPa 0,0 l/m 3,8 km/h (1 Bft) N-NO 19 1 min 0,000 mm 2,2 UV-I 566 W/m 3,1 C 5,1 C 8,0 km/h (2 Bft) 100,00 %
28.04.2016 10:22 5,1 C 85 % 1016,6 hPa 0,0 l/m 4,6 km/h (1 Bft) N-NO 17 1 min 0,000 mm 2,5 UV-I 724 W/m 2,8 C 5,1 C 8,0 km/h (2 Bft) 100,00 %
28.04.2016 10:23 5,2 C 86 % 1016,6 hPa 0,0 l/m 2,3 km/h (1 Bft) N-NO 12 1 min 0,000 mm 2,4 UV-I 756 W/m 3,1 C 5,2 C 4,8 km/h (1 Bft) 100,00 %
28.04.2016 10:24 5,2 C 87 % 1016,6 hPa 0,0 l/m 3,5 km/h (1 Bft) N-NW 334 1 min 0,000 mm 2,4 UV-I 736 W/m 3,2 C 5,2 C 4,8 km/h (1 Bft) 95,83 %
28.04.2016 10:25 5,3 C 85 % 1016,6 hPa 0,0 l/m 1,9 km/h (1 Bft) N-NW 328 1 min 0,000 mm 2,4 UV-I 754 W/m 3,0 C 5,3 C 3,2 km/h (1 Bft) 100,00 %
28.04.2016 10:26 5,3 C 84 % 1016,6 hPa 0,0 l/m 2,5 km/h (1 Bft) NO 53 1 min 0,000 mm 2,5 UV-I 786 W/m 2,8 C 5,3 C 4,8 km/h (1 Bft) 100,00 %
28.04.2016 10:27 5,3 C 84 % 1016,6 hPa 0,0 l/m 6,4 km/h (2 Bft) O-NO 59 1 min 0,000 mm 2,3 UV-I 789 W/m 2,8 C 5,3 C 9,7 km/h (2 Bft) 100,00 %
28.04.2016 10:28 5,2 C 83 % 1016,6 hPa 0,0 l/m 5,4 km/h (1 Bft) NO 52 1 min 0,000 mm 2,3 UV-I 789 W/m 2,6 C 5,2 C 8,0 km/h (2 Bft) 95,65 %
28.04.2016 10:29 5,1 C 83 % 1016,6 hPa 0,0 l/m 3,3 km/h (1 Bft) N 11 1 min 0,000 mm 1,7 UV-I 789 W/m 2,5 C 5,1 C 6,4 km/h (2 Bft) 95,83 %
28.04.2016 10:30 4,9 C 83 % 1016,6 hPa 0,0 l/m 2,5 km/h (1 Bft) N-NO 25 1 min 0,000 mm 1,5 UV-I 540 W/m 2,3 C 4,9 C 4,8 km/h (1 Bft) 100,00 %
28.04.2016 10:31 4,9 C 83 % 1016,6 hPa 0,0 l/m 1,7 km/h (1 Bft) N-NO 24 0 min 0,000 mm 1,5 UV-I 300 W/m 2,3 C 4,9 C 3,2 km/h (1 Bft) 100,00 %
28.04.2016 10:32 4,9 C 84 % 1016,6 hPa 0,0 l/m 1,1 km/h (1 Bft) N-NO 19 0 min 0,000 mm 1,6 UV-I 292 W/m 2,4 C 4,9 C 4,8 km/h (1 Bft) 100,00 %
28.04.2016 10:33 4,9 C 87 % 1016,5 hPa 0,0 l/m 3,6 km/h (1 Bft) N-NO 21 0 min 0,000 mm 1,8 UV-I 307 W/m 2,9 C 4,9 C 11,3 km/h (2 Bft) 95,83 %
28.04.2016 10:34 4,9 C 86 % 1016,6 hPa 0,0 l/m 1,5 km/h (1 Bft) N 360 0 min 0,000 mm 1,6 UV-I 326 W/m 2,8 C 4,9 C 4,8 km/h (1 Bft) 95,65 %
28.04.2016 10:35 5,0 C 87 % 1016,6 hPa 0,0 l/m 1,5 km/h (1 Bft) N-NO 18 1 min 0,000 mm 1,7 UV-I 396 W/m 3,0 C 5,0 C 4,8 km/h (1 Bft) 100,00 %
28.04.2016 10:36 5,0 C 87 % 1016,6 hPa 0,0 l/m 8,0 km/h (2 Bft) N-NO 26 1 min 0,000 mm 1,6 UV-I 396 W/m 3,0 C 3,6 C 12,9 km/h (3 Bft) 100,00 %
28.04.2016 10:37 5,1 C 86 % 1016,6 hPa 0,0 l/m 6,0 km/h (2 Bft) N-NO 22 1 min 0,000 mm 1,7 UV-I 396 W/m 3,0 C 5,1 C 8,0 km/h (2 Bft) 100,00 %
28.04.2016 10:38 5,1 C 86 % 1016,6 hPa 0,0 l/m 3,0 km/h (1 Bft) N 9 0 min 0,000 mm 1,5 UV-I 293 W/m 3,0 C 5,1 C 6,4 km/h (2 Bft) 95,65 %
28.04.2016 10:39 5,1 C 86 % 1016,6 hPa 0,0 l/m 2,7 km/h (1 Bft) N-NW 347 0 min 0,000 mm 1,7 UV-I 333 W/m 3,0 C 5,1 C 6,4 km/h (2 Bft) 100,00 %
28.04.2016 10:40 5,1 C 87 % 1016,5 hPa 0,0 l/m 2,5 km/h (1 Bft) N-NW 347 0 min 0,000 mm 1,7 UV-I 342 W/m 3,1 C 5,1 C 4,8 km/h (1 Bft) 100,00 %
28.04.2016 10:41 5,1 C 85 % 1016,5 hPa 0,0 l/m 1,9 km/h (1 Bft) N 10 0 min 0,000 mm 1,7 UV-I 374 W/m 2,8 C 5,1 C 3,2 km/h (1 Bft) 100,00 %
28.04.2016 10:42 5,1 C 85 % 1016,5 hPa 0,0 l/m 1,7 km/h (1 Bft) N-NO 14 1 min 0,000 mm 1,9 UV-I 421 W/m 2,8 C 5,1 C 3,2 km/h (1 Bft) 100,00 %
28.04.2016 10:43 5,2 C 87 % 1016,5 hPa 0,0 l/m 1,3 km/h (1 Bft) N-NO 16 0 min 0,000 mm 1,7 UV-I 362 W/m 3,2 C 5,2 C 3,2 km/h (1 Bft) 100,00 %
28.04.2016 10:44 5,3 C 87 % 1016,6 hPa 0,0 l/m 2,8 km/h (1 Bft) NW 310 0 min 0,000 mm 1,7 UV-I 375 W/m 3,3 C 5,3 C 4,8 km/h (1 Bft) 100,00 %
28.04.2016 10:45 5,3 C 86 % 1016,5 hPa 0,0 l/m 4,0 km/h (1 Bft) N 9 0 min 0,000 mm 1,6 UV-I 355 W/m 3,2 C 5,3 C 6,4 km/h (2 Bft) 100,00 %
28.04.2016 10:46 5,3 C 85 % 1016,6 hPa 0,0 l/m 4,1 km/h (1 Bft) N-NO 17 0 min 0,000 mm 1,6 UV-I 311 W/m 3,0 C 5,3 C 6,4 km/h (2 Bft) 91,67 %
28.04.2016 10:47 5,3 C 85 % 1016,6 hPa 0,0 l/m 1,9 km/h (1 Bft) N 5 0 min 0,000 mm 1,6 UV-I 318 W/m 3,0 C 5,3 C 4,8 km/h (1 Bft) 100,00 %
28.04.2016 10:48 5,3 C 86 % 1016,6 hPa 0,0 l/m 4,2 km/h (1 Bft) N-NO 24 0 min 0,000 mm 1,6 UV-I 330 W/m 3,2 C 5,3 C 9,7 km/h (2 Bft) 100,00 %
28.04.2016 10:49 5,3 C 86 % 1016,5 hPa 0,0 l/m 5,5 km/h (1 Bft) N-NO 25 0 min 0,000 mm 1,7 UV-I 352 W/m 3,2 C 5,3 C 9,7 km/h (2 Bft) 100,00 %
28.04.2016 10:50 5,3 C 85 % 1016,5 hPa 0,0 l/m 7,0 km/h (2 Bft) N-NO 28 0 min 0,000 mm 1,9 UV-I 365 W/m 3,0 C 4,8 C 12,9 km/h (3 Bft) 100,00 %
28.04.2016 10:51 5,3 C 86 % 1016,5 hPa 0,0 l/m 7,8 km/h (2 Bft) N-NO 22 1 min 0,000 mm 1,9 UV-I 497 W/m 3,2 C 4,1 C 9,7 km/h (2 Bft) 100,00 %
28.04.2016 10:52 5,4 C 86 % 1016,5 hPa 0,0 l/m 8,4 km/h (2 Bft) N 11 1 min 0,000 mm 1,7 UV-I 457 W/m 3,3 C 3,7 C 12,9 km/h (3 Bft) 100,00 %
28.04.2016 10:53 5,4 C 86 % 1016,5 hPa 0,0 l/m 5,4 km/h (1 Bft) N-NO 32 0 min 0,000 mm 1,7 UV-I 379 W/m 3,3 C 5,4 C 9,7 km/h (2 Bft) 100,00 %
28.04.2016 10:54 5,4 C 85 % 1016,6 hPa 0,0 l/m 4,1 km/h (1 Bft) N-NO 20 1 min 0,000 mm 1,8 UV-I 418 W/m 3,1 C 5,4 C 8,0 km/h (2 Bft) 100,00 %
28.04.2016 10:55 5,5 C 87 % 1016,5 hPa 0,0 l/m 2,2 km/h (1 Bft) N 5 1 min 0,000 mm 2,0 UV-I 492 W/m 3,5 C 5,5 C 4,8 km/h (1 Bft) 100,00 %
28.04.2016 10:56 5,6 C 87 % 1016,5 hPa 0,0 l/m 2,9 km/h (1 Bft) N 5 1 min 0,000 mm 2,2 UV-I 588 W/m 3,6 C 5,6 C 4,8 km/h (1 Bft) 100,00 %
28.04.2016 10:57 5,6 C 85 % 1016,5 hPa 0,0 l/m 1,6 km/h (1 Bft) N 5 1 min 0,000 mm 2,3 UV-I 603 W/m 3,3 C 5,6 C 3,2 km/h (1 Bft) 96,15 %
28.04.2016 10:58 5,7 C 85 % 1016,6 hPa 0,0 l/m 1,9 km/h (1 Bft) N 350 1 min 0,000 mm 2,3 UV-I 608 W/m 3,4 C 5,7 C 4,8 km/h (1 Bft) 100,00 %
28.04.2016 10:59 5,8 C 84 % 1016,6 hPa 0,0 l/m 1,9 km/h (1 Bft) O 85 1 min 0,000 mm 2,4 UV-I 640 W/m 3,3 C 5,8 C 3,2 km/h (1 Bft) 92,86 %
28.04.2016 11:00 5,9 C 85 % 1016,6 hPa 0,0 l/m 2,1 km/h (1 Bft) N-NO 18 1 min 0,000 mm 2,5 UV-I 662 W/m 3,6 C 5,9 C 6,4 km/h (2 Bft) 91,67 %
28.04.2016 11:02 6,0 C 84 % 1016,6 hPa 0,0 l/m 3,9 km/h (1 Bft) N-NO 24 2 min 0,203 mm 2,5 UV-I 680 W/m 3,5 C 6,0 C 8,0 km/h (2 Bft) 97,87 %
28.04.2016 11:03 6,1 C 85 % 1016,6 hPa 0,0 l/m 2,1 km/h (1 Bft) NW 310 1 min 0,000 mm 2,5 UV-I 625 W/m 3,8 C 6,1 C 4,8 km/h (1 Bft) 95,83 %
28.04.2016 11:04 6,2 C 84 % 1016,6 hPa 0,0 l/m 5,1 km/h (1 Bft) N-NO 31 1 min 0,000 mm 2,6 UV-I 671 W/m 3,7 C 6,2 C 11,3 km/h (2 Bft) 95,65 %
28.04.2016 11:05 6,4 C 86 % 1016,5 hPa 0,0 l/m 7,4 km/h (2 Bft) NO 43 1 min 0,000 mm 2,4 UV-I 602 W/m 4,2 C 5,6 C 11,3 km/h (2 Bft) 95,83 %
28.04.2016 11:06 6,5 C 85 % 1016,6 hPa 0,0 l/m 2,9 km/h (1 Bft) N-NW 342 1 min 0,000 mm 2,5 UV-I 559 W/m 4,2 C 6,5 C 4,8 km/h (1 Bft) 95,65 %
28.04.2016 11:07 6,6 C 84 % 1016,5 hPa 0,0 l/m 3,2 km/h (1 Bft) N 5 1 min 0,000 mm 2,9 UV-I 559 W/m 4,1 C 6,6 C 4,8 km/h (1 Bft) 95,83 %
28.04.2016 11:08 6,6 C 81 % 1016,5 hPa 0,0 l/m 3,6 km/h (1 Bft) N-NO 19 1 min 0,000 mm 2,8 UV-I 772 W/m 3,6 C 6,6 C 8,0 km/h (2 Bft) 86,96 %
28.04.2016 11:09 6,7 C 81 % 1016,6 hPa 0,0 l/m 5,0 km/h (1 Bft) N-NW 342 1 min 0,000 mm 2,4 UV-I 803 W/m 3,7 C 6,7 C 8,0 km/h (2 Bft) 95,83 %
28.04.2016 11:10 6,7 C 81 % 1016,5 hPa 0,0 l/m 5,5 km/h (1 Bft) NW 322 1 min 0,000 mm 2,1 UV-I 803 W/m 3,7 C 6,7 C 11,3 km/h (2 Bft) 95,65 %
28.04.2016 11:11 6,6 C 81 % 1016,6 hPa 0,0 l/m 2,7 km/h (1 Bft) NO 44 1 min 0,000 mm 1,9 UV-I 612 W/m 3,6 C 6,6 C 4,8 km/h (1 Bft) 100,00 %
28.04.2016 11:12 6,5 C 81 % 1016,6 hPa 0,0 l/m 5,1 km/h (1 Bft) N-NO 32 1 min 0,000 mm 2,0 UV-I 433 W/m 3,5 C 6,5 C 12,9 km/h (3 Bft) 96,15 %
28.04.2016 11:13 6,4 C 79 % 1016,6 hPa 0,0 l/m 11,4 km/h (2 Bft) N 5 0 min 0,000 mm 1,9 UV-I 407 W/m 3,0 C 2,7 C 14,5 km/h (3 Bft) 95,83 %
28.04.2016 11:14 6,4 C 78 % 1016,6 hPa 0,0 l/m 3,1 km/h (1 Bft) N-NW 346 0 min 0,000 mm 2,0 UV-I 401 W/m 2,8 C 6,4 C 6,4 km/h (2 Bft) 86,96 %
28.04.2016 11:15 6,4 C 80 % 1016,6 hPa 0,0 l/m 4,0 km/h (1 Bft) N 5 1 min 0,000 mm 2,1 UV-I 441 W/m 3,2 C 6,4 C 8,0 km/h (2 Bft) 100,00 %
28.04.2016 11:16 6,4 C 80 % 1016,7 hPa 0,0 l/m 3,4 km/h (1 Bft) N-NO 18 1 min 0,000 mm 2,4 UV-I 482 W/m 3,2 C 6,4 C 8,0 km/h (2 Bft) 95,65 %
28.04.2016 11:17 6,4 C 80 % 1016,6 hPa 0,0 l/m 5,0 km/h (1 Bft) N-NO 23 1 min 0,000 mm 2,3 UV-I 564 W/m 3,2 C 6,4 C 11,3 km/h (2 Bft) 91,67 %
28.04.2016 11:18 6,4 C 78 % 1016,6 hPa 0,0 l/m 3,3 km/h (1 Bft) N-NO 33 1 min 0,000 mm 2,1 UV-I 433 W/m 2,8 C 6,4 C 6,4 km/h (2 Bft) 100,00 %
28.04.2016 11:19 6,4 C 80 % 1016,6 hPa 0,0 l/m 7,0 km/h (2 Bft) N-NO 13 0 min 0,000 mm 1,9 UV-I 391 W/m 3,2 C 5,9 C 14,5 km/h (3 Bft) 95,83 %
28.04.2016 11:20 6,4 C 80 % 1016,6 hPa 0,0 l/m 6,1 km/h (2 Bft) N-NO 15 0 min 0,000 mm 1,9 UV-I 378 W/m 3,2 C 6,4 C 12,9 km/h (3 Bft) 100,00 %
28.04.2016 11:21 6,4 C 79 % 1016,6 hPa 0,0 l/m 5,4 km/h (1 Bft) N-NO 22 0 min 0,000 mm 1,9 UV-I 394 W/m 3,0 C 6,4 C 8,0 km/h (2 Bft) 95,83 %
28.04.2016 11:22 6,4 C 78 % 1016,6 hPa 0,0 l/m 2,3 km/h (1 Bft) N 11 0 min 0,000 mm 1,9 UV-I 404 W/m 2,8 C 6,4 C 3,2 km/h (1 Bft) 95,65 %
28.04.2016 11:23 6,4 C 76 % 1016,6 hPa 0,0 l/m 1,6 km/h (1 Bft) NO 35 0 min 0,000 mm 1,8 UV-I 400 W/m 2,5 C 6,4 C 6,4 km/h (2 Bft) 95,83 %
28.04.2016 11:24 6,4 C 76 % 1016,6 hPa 0,0 l/m 6,5 km/h (2 Bft) N-NO 25 0 min 0,000 mm 1,9 UV-I 405 W/m 2,5 C 6,3 C 9,7 km/h (2 Bft) 95,65 %
28.04.2016 11:25 6,4 C 77 % 1016,6 hPa 0,0 l/m 4,1 km/h (1 Bft) N 5 0 min 0,000 mm 2,1 UV-I 411 W/m 2,7 C 6,4 C 8,0 km/h (2 Bft) 95,83 %
28.04.2016 11:26 6,4 C 77 % 1016,6 hPa 0,0 l/m 1,6 km/h (1 Bft) N-NO 26 0 min 0,000 mm 2,1 UV-I 415 W/m 2,7 C 6,4 C 4,8 km/h (1 Bft) 95,83 %
28.04.2016 11:27 6,4 C 76 % 1016,6 hPa 0,0 l/m 2,1 km/h (1 Bft) N-NW 348 1 min 0,000 mm 2,1 UV-I 454 W/m 2,5 C 6,4 C 3,2 km/h (1 Bft) 100,00 %
28.04.2016 11:28 6,4 C 77 % 1016,6 hPa 0,0 l/m 4,8 km/h (1 Bft) N 9 0 min 0,000 mm 2,0 UV-I 423 W/m 2,7 C 6,4 C 12,9 km/h (3 Bft) 91,67 %
28.04.2016 11:29 6,5 C 78 % 1016,6 hPa 0,0 l/m 8,5 km/h (2 Bft) NO 35 0 min 0,000 mm 2,0 UV-I 386 W/m 2,9 C 4,8 C 14,5 km/h (3 Bft) 100,00 %
28.04.2016 11:30 6,6 C 74 % 1016,6 hPa 0,0 l/m 7,0 km/h (2 Bft) N-NO 30 0 min 0,000 mm 1,8 UV-I 374 W/m 2,3 C 6,1 C 9,7 km/h (2 Bft) 95,83 %
28.04.2016 11:31 6,6 C 75 % 1016,6 hPa 0,0 l/m 12,6 km/h (3 Bft) N-NO 32 0 min 0,000 mm 1,7 UV-I 359 W/m 2,5 C 2,3 C 14,5 km/h (3 Bft) 100,00 %
28.04.2016 11:32 6,6 C 75 % 1016,6 hPa 0,0 l/m 5,1 km/h (1 Bft) NO 40 0 min 0,000 mm 1,7 UV-I 364 W/m 2,5 C 6,6 C 11,3 km/h (2 Bft) 100,00 %
28.04.2016 11:33 6,6 C 76 % 1016,6 hPa 0,0 l/m 8,6 km/h (2 Bft) N-NO 31 0 min 0,000 mm 1,8 UV-I 381 W/m 2,7 C 4,8 C 12,9 km/h (3 Bft) 100,00 %
28.04.2016 11:34 6,5 C 74 % 1016,6 hPa 0,0 l/m 5,2 km/h (1 Bft) N-NO 32 0 min 0,000 mm 1,8 UV-I 418 W/m 2,2 C 6,5 C 6,4 km/h (2 Bft) 100,00 %
28.04.2016 11:35 6,6 C 76 % 1016,7 hPa 0,0 l/m 6,9 km/h (2 Bft) N-NO 24 1 min 0,000 mm 1,9 UV-I 458 W/m 2,7 C 6,2 C 8,0 km/h (2 Bft) 100,00 %
28.04.2016 11:36 6,7 C 77 % 1016,6 hPa 0,0 l/m 3,0 km/h (1 Bft) N-NW 345 1 min 0,000 mm 2,1 UV-I 498 W/m 3,0 C 6,7 C 6,4 km/h (2 Bft) 100,00 %
28.04.2016 11:37 6,8 C 78 % 1016,6 hPa 0,0 l/m 0,9 km/h (0 Bft) N-NW 329 1 min 0,000 mm 2,0 UV-I 513 W/m 3,2 C 6,8 C 1,6 km/h (1 Bft) 91,30 %
28.04.2016 11:38 6,8 C 74 % 1016,6 hPa 0,0 l/m 3,5 km/h (1 Bft) N 11 1 min 0,000 mm 1,9 UV-I 436 W/m 2,5 C 6,8 C 8,0 km/h (2 Bft) 100,00 %
28.04.2016 11:39 6,8 C 75 % 1016,7 hPa 0,0 l/m 6,6 km/h (2 Bft) NO 40 1 min 0,000 mm 1,9 UV-I 440 W/m 2,7 C 6,7 C 8,0 km/h (2 Bft) 100,00 %
28.04.2016 11:40 6,8 C 75 % 1016,6 hPa 0,0 l/m 3,2 km/h (1 Bft) N 355 1 min 0,000 mm 2,0 UV-I 470 W/m 2,7 C 6,8 C 6,4 km/h (2 Bft) 100,00 %
28.04.2016 11:41 6,8 C 76 % 1016,6 hPa 0,0 l/m 3,2 km/h (1 Bft) W-NW 292 1 min 0,000 mm 2,1 UV-I 492 W/m 2,9 C 6,8 C 4,8 km/h (1 Bft) 100,00 %
28.04.2016 11:42 6,8 C 74 % 1016,6 hPa 0,0 l/m 2,1 km/h (1 Bft) NW 320 1 min 0,000 mm 2,4 UV-I 541 W/m 2,5 C 6,8 C 4,8 km/h (1 Bft) 100,00 %
28.04.2016 11:43 6,8 C 71 % 1016,7 hPa 0,0 l/m 2,6 km/h (1 Bft) N-NW 345 1 min 0,000 mm 2,6 UV-I 554 W/m 1,9 C 6,8 C 4,8 km/h (1 Bft) 100,00 %
28.04.2016 11:44 6,8 C 72 % 1016,7 hPa 0,0 l/m 2,7 km/h (1 Bft) N-NO 17 1 min 0,000 mm 2,9 UV-I 665 W/m 2,1 C 6,8 C 4,8 km/h (1 Bft) 100,00 %
28.04.2016 11:45 7,0 C 76 % 1016,7 hPa 0,0 l/m 3,6 km/h (1 Bft) N-NO 30 1 min 0,000 mm 2,5 UV-I 675 W/m 3,1 C 7,0 C 4,8 km/h (1 Bft) 96,30 %
28.04.2016 11:46 7,0 C 72 % 1016,6 hPa 0,0 l/m 1,7 km/h (1 Bft) N-NO 30 1 min 0,000 mm 2,6 UV-I 675 W/m 2,3 C 7,0 C 4,8 km/h (1 Bft) 100,00 %
28.04.2016 11:47 7,1 C 73 % 1016,6 hPa 0,0 l/m 6,3 km/h (2 Bft) N-NW 334 1 min 0,000 mm 3,0 UV-I 698 W/m 2,6 C 7,1 C 12,9 km/h (3 Bft) 100,00 %
28.04.2016 11:48 7,2 C 75 % 1016,7 hPa 0,0 l/m 3,7 km/h (1 Bft) NO 47 1 min 0,000 mm 2,4 UV-I 712 W/m 3,1 C 7,2 C 4,8 km/h (1 Bft) 100,00 %
28.04.2016 11:49 7,2 C 76 % 1016,7 hPa 0,0 l/m 6,4 km/h (2 Bft) N-NO 19 1 min 0,000 mm 2,5 UV-I 707 W/m 3,3 C 7,2 C 8,0 km/h (2 Bft) 100,00 %
28.04.2016 11:50 7,3 C 76 % 1016,6 hPa 0,0 l/m 4,3 km/h (1 Bft) NO 36 1 min 0,000 mm 2,6 UV-I 584 W/m 3,4 C 7,3 C 6,4 km/h (2 Bft) 100,00 %
28.04.2016 11:51 7,3 C 73 % 1016,6 hPa 0,0 l/m 6,5 km/h (2 Bft) O 80 1 min 0,000 mm 2,5 UV-I 537 W/m 2,8 C 7,2 C 8,0 km/h (2 Bft) 91,67 %
28.04.2016 11:52 7,3 C 74 % 1016,7 hPa 0,0 l/m 9,2 km/h (2 Bft) O-NO 64 1 min 0,000 mm 2,7 UV-I 508 W/m 3,0 C 5,1 C 11,3 km/h (2 Bft) 100,00 %
28.04.2016 11:53 7,2 C 73 % 1016,6 hPa 0,0 l/m 8,2 km/h (2 Bft) NO 46 1 min 0,000 mm 2,9 UV-I 642 W/m 2,7 C 5,8 C 11,3 km/h (2 Bft) 100,00 %
28.04.2016 11:54 7,3 C 74 % 1016,7 hPa 0,0 l/m 7,2 km/h (2 Bft) NO 43 1 min 0,000 mm 2,8 UV-I 681 W/m 3,0 C 6,7 C 9,7 km/h (2 Bft) 100,00 %
28.04.2016 11:55 7,3 C 76 % 1016,7 hPa 0,0 l/m 6,0 km/h (2 Bft) N-NO 18 1 min 0,000 mm 2,4 UV-I 641 W/m 3,4 C 7,3 C 8,0 km/h (2 Bft) 100,00 %
28.04.2016 11:56 7,3 C 75 % 1016,7 hPa 0,0 l/m 1,3 km/h (1 Bft) N 11 1 min 0,000 mm 2,0 UV-I 566 W/m 3,2 C 7,3 C 3,2 km/h (1 Bft) 96,15 %
28.04.2016 11:57 7,3 C 73 % 1016,7 hPa 0,0 l/m 2,2 km/h (1 Bft) N-NO 13 0 min 0,000 mm 1,9 UV-I 292 W/m 2,8 C 7,3 C 4,8 km/h (1 Bft) 100,00 %
28.04.2016 11:58 7,2 C 74 % 1016,6 hPa 0,0 l/m 1,8 km/h (1 Bft) N-NW 346 0 min 0,000 mm 1,9 UV-I 296 W/m 2,9 C 7,2 C 4,8 km/h (1 Bft) 100,00 %
28.04.2016 11:59 7,2 C 71 % 1016,6 hPa 0,0 l/m 1,8 km/h (1 Bft) N-NO 24 0 min 0,000 mm 2,0 UV-I 322 W/m 2,3 C 7,2 C 4,8 km/h (1 Bft) 96,30 %
28.04.2016 12:00 7,1 C 71 % 1016,6 hPa 0,0 l/m 1,6 km/h (1 Bft) N 360 0 min 0,000 mm 2,1 UV-I 352 W/m 2,2 C 7,1 C 3,2 km/h (1 Bft) 100,00 %
28.04.2016 12:02 7,1 C 68 % 1016,6 hPa 0,0 l/m 2,1 km/h (1 Bft) NW 319 2 min 0,228 mm 2,2 UV-I 445 W/m 1,6 C 7,1 C 4,8 km/h (1 Bft) 97,87 %
28.04.2016 12:03 7,2 C 69 % 1016,7 hPa 0,0 l/m 1,0 km/h (0 Bft) N 360 1 min 0,000 mm 2,2 UV-I 457 W/m 1,9 C 7,2 C 1,6 km/h (1 Bft) 100,00 %
28.04.2016 12:04 7,2 C 71 % 1016,7 hPa 0,0 l/m 0,7 km/h (0 Bft) N-NO 28 1 min 0,000 mm 2,6 UV-I 471 W/m 2,3 C 7,2 C 1,6 km/h (1 Bft) 100,00 %
28.04.2016 12:05 7,2 C 72 % 1016,7 hPa 0,0 l/m 1,7 km/h (1 Bft) N-NW 342 1 min 0,000 mm 2,9 UV-I 600 W/m 2,5 C 7,2 C 3,2 km/h (1 Bft) 100,00 %
28.04.2016 12:08 7,7 C 71 % 1016,7 hPa 0,0 l/m 6,4 km/h (2 Bft) N-NO 25 3 min 0,000 mm 3,3 UV-I 709 W/m 2,8 C 7,7 C 6,4 km/h (2 Bft) 98,53 %
28.04.2016 12:09 7,9 C 74 % 1016,7 hPa 0,0 l/m 4,8 km/h (1 Bft) N-NO 26 1 min 0,000 mm 3,6 UV-I 887 W/m 3,6 C 7,9 C 8,0 km/h (2 Bft) 100,00 %
28.04.2016 12:10 8,1 C 70 % 1016,7 hPa 0,0 l/m 4,9 km/h (1 Bft) NO 38 1 min 0,000 mm 3,5 UV-I 851 W/m 3,0 C 8,1 C 9,7 km/h (2 Bft) 100,00 %
28.04.2016 12:11 8,3 C 74 % 1016,7 hPa 0,0 l/m 4,6 km/h (1 Bft) N-NO 26 1 min 0,000 mm 3,3 UV-I 792 W/m 3,9 C 8,3 C 8,0 km/h (2 Bft) 100,00 %
28.04.2016 12:12 8,4 C 68 % 1016,7 hPa 0,0 l/m 6,8 km/h (2 Bft) N 5 1 min 0,000 mm 3,1 UV-I 772 W/m 2,8 C 8,1 C 12,9 km/h (3 Bft) 100,00 %
28.04.2016 12:13 8,4 C 72 % 1016,6 hPa 0,0 l/m 5,8 km/h (2 Bft) NO 34 1 min 0,000 mm 3,4 UV-I 772 W/m 3,7 C 8,4 C 14,5 km/h (3 Bft) 95,65 %
28.04.2016 12:14 8,5 C 67 % 1016,7 hPa 0,0 l/m 10,9 km/h (2 Bft) O-NO 66 1 min 0,000 mm 3,8 UV-I 809 W/m 2,7 C 5,4 C 14,5 km/h (3 Bft) 100,00 %
28.04.2016 12:15 8,4 C 67 % 1016,6 hPa 0,0 l/m 10,2 km/h (2 Bft) O-NO 57 1 min 0,000 mm 3,5 UV-I 862 W/m 2,6 C 5,7 C 14,5 km/h (3 Bft) 100,00 %
28.04.2016 12:16 8,3 C 65 % 1016,6 hPa 0,0 l/m 10,7 km/h (2 Bft) NO 44 1 min 0,000 mm 3,2 UV-I 754 W/m 2,1 C 5,3 C 14,5 km/h (3 Bft) 100,00 %
28.04.2016 12:17 8,2 C 62 % 1016,6 hPa 0,0 l/m 7,3 km/h (2 Bft) O-NO 62 1 min 0,000 mm 2,8 UV-I 714 W/m 1,4 C 7,5 C 12,9 km/h (3 Bft) 95,65 %
28.04.2016 12:18 7,9 C 65 % 1016,6 hPa 0,0 l/m 7,0 km/h (2 Bft) O-SO 105 1 min 0,000 mm 2,6 UV-I 533 W/m 1,7 C 7,4 C 9,7 km/h (2 Bft) 100,00 %
28.04.2016 12:19 7,8 C 67 % 1016,6 hPa 0,0 l/m 10,3 km/h (2 Bft) SO 127 1 min 0,000 mm 3,0 UV-I 532 W/m 2,1 C 5,0 C 12,9 km/h (3 Bft) 92,86 %
28.04.2016 12:20 7,7 C 65 % 1016,6 hPa 0,0 l/m 7,0 km/h (2 Bft) O-SO 105 1 min 0,000 mm 3,1 UV-I 666 W/m 1,5 C 7,2 C 11,3 km/h (2 Bft) 100,00 %
28.04.2016 12:21 7,7 C 66 % 1016,6 hPa 0,0 l/m 8,5 km/h (2 Bft) O 88 1 min 0,000 mm 3,1 UV-I 615 W/m 1,8 C 6,1 C 11,3 km/h (2 Bft) 95,65 %
28.04.2016 12:22 7,7 C 65 % 1016,6 hPa 0,0 l/m 6,2 km/h (2 Bft) S-SO 150 1 min 0,000 mm 3,3 UV-I 673 W/m 1,5 C 7,7 C 9,7 km/h (2 Bft) 91,67 %
28.04.2016 12:23 7,7 C 65 % 1016,6 hPa 0,0 l/m 3,0 km/h (1 Bft) O 94 1 min 0,000 mm 3,2 UV-I 701 W/m 1,5 C 7,7 C 4,8 km/h (1 Bft) 100,00 %
28.04.2016 12:24 7,7 C 68 % 1016,6 hPa 0,0 l/m 4,8 km/h (1 Bft) O 88 1 min 0,000 mm 3,1 UV-I 711 W/m 2,2 C 7,7 C 11,3 km/h (2 Bft) 100,00 %
28.04.2016 12:25 7,8 C 67 % 1016,7 hPa 0,0 l/m 9,9 km/h (2 Bft) O-NO 76 1 min 0,000 mm 3,0 UV-I 638 W/m 2,1 C 5,2 C 12,9 km/h (3 Bft) 95,83 %
28.04.2016 12:26 7,8 C 62 % 1016,6 hPa 0,0 l/m 5,9 km/h (2 Bft) O-NO 64 1 min 0,000 mm 2,5 UV-I 638 W/m 1,0 C 7,8 C 8,0 km/h (2 Bft) 95,65 %
28.04.2016 12:27 7,8 C 63 % 1016,7 hPa 0,0 l/m 5,8 km/h (2 Bft) NO 41 1 min 0,000 mm 2,1 UV-I 638 W/m 1,2 C 7,8 C 8,0 km/h (2 Bft) 100,00 %
28.04.2016 12:28 7,8 C 61 % 1016,7 hPa 0,0 l/m 6,2 km/h (2 Bft) O-NO 67 0 min 0,000 mm 1,9 UV-I 412 W/m 0,8 C 7,8 C 8,0 km/h (2 Bft) 100,00 %
28.04.2016 12:29 7,7 C 59 % 1016,6 hPa 0,0 l/m 7,8 km/h (2 Bft) NO 51 0 min 0,000 mm 1,7 UV-I 242 W/m 0,2 C 6,6 C 9,7 km/h (2 Bft) 100,00 %
28.04.2016 12:30 7,7 C 58 % 1016,7 hPa 0,0 l/m 7,4 km/h (2 Bft) NO 48 0 min 0,000 mm 1,7 UV-I 241 W/m -0,0 C 6,9 C 9,7 km/h (2 Bft) 100,00 %
28.04.2016 12:31 7,6 C 58 % 1016,7 hPa 0,0 l/m 7,6 km/h (2 Bft) NO 42 0 min 0,000 mm 1,7 UV-I 245 W/m -0,1 C 6,6 C 9,7 km/h (2 Bft) 100,00 %
28.04.2016 12:32 7,6 C 63 % 1016,7 hPa 0,0 l/m 5,3 km/h (1 Bft) NO 37 0 min 0,000 mm 1,6 UV-I 249 W/m 1,0 C 7,6 C 6,4 km/h (2 Bft) 95,65 %
28.04.2016 12:33 7,4 C 61 % 1016,6 hPa 0,0 l/m 4,7 km/h (1 Bft) N-NO 30 0 min 0,000 mm 1,6 UV-I 253 W/m 0,4 C 7,4 C 6,4 km/h (2 Bft) 100,00 %
28.04.2016 12:34 7,4 C 65 % 1016,7 hPa 0,0 l/m 1,2 km/h (1 Bft) N-NO 30 0 min 0,000 mm 1,6 UV-I 257 W/m 1,3 C 7,4 C 3,2 km/h (1 Bft) 100,00 %
28.04.2016 12:35 7,3 C 61 % 1016,7 hPa 0,0 l/m 2,1 km/h (1 Bft) N-NO 17 0 min 0,000 mm 1,5 UV-I 260 W/m 0,3 C 7,3 C 4,8 km/h (1 Bft) 100,00 %
28.04.2016 12:36 7,2 C 59 % 1016,7 hPa 0,0 l/m 2,3 km/h (1 Bft) N-NO 17 0 min 0,000 mm 1,5 UV-I 264 W/m -0,3 C 7,2 C 4,8 km/h (1 Bft) 100,00 %
28.04.2016 12:37 7,2 C 58 % 1016,6 hPa 0,0 l/m 0,8 km/h (0 Bft) N-NO 17 0 min 0,000 mm 1,4 UV-I 269 W/m -0,5 C 7,2 C 1,6 km/h (1 Bft) 93,33 %
28.04.2016 12:38 7,2 C 60 % 1016,6 hPa 0,0 l/m 0,9 km/h (0 Bft) N-NO 17 0 min 0,000 mm 1,4 UV-I 279 W/m -0,0 C 7,2 C 1,6 km/h (1 Bft) 95,65 %
28.04.2016 12:39 7,2 C 60 % 1016,6 hPa 0,0 l/m 2,2 km/h (1 Bft) NO 36 0 min 0,000 mm 1,4 UV-I 290 W/m -0,0 C 7,2 C 3,2 km/h (1 Bft) 100,00 %
28.04.2016 12:40 7,2 C 57 % 1016,6 hPa 0,0 l/m 2,3 km/h (1 Bft) O-NO 60 0 min 0,000 mm 1,4 UV-I 301 W/m -0,7 C 7,2 C 3,2 km/h (1 Bft) 100,00 %
28.04.2016 12:41 7,2 C 57 % 1016,7 hPa 0,0 l/m 1,9 km/h (1 Bft) O-NO 60 0 min 0,000 mm 1,4 UV-I 306 W/m -0,7 C 7,2 C 3,2 km/h (1 Bft) 100,00 %
28.04.2016 12:42 7,3 C 58 % 1016,6 hPa 0,0 l/m 1,5 km/h (1 Bft) O-NO 60 0 min 0,000 mm 1,4 UV-I 306 W/m -0,4 C 7,3 C 3,2 km/h (1 Bft) 100,00 %
28.04.2016 12:43 7,3 C 56 % 1016,6 hPa 0,0 l/m 1,7 km/h (1 Bft) O-NO 67 0 min 0,000 mm 1,4 UV-I 304 W/m -0,9 C 7,3 C 3,2 km/h (1 Bft) 100,00 %
28.04.2016 12:44 7,3 C 58 % 1016,6 hPa 0,0 l/m 4,5 km/h (1 Bft) O-SO 112 0 min 0,000 mm 1,4 UV-I 306 W/m -0,4 C 7,3 C 6,4 km/h (2 Bft) 100,00 %
28.04.2016 12:45 7,3 C 59 % 1016,6 hPa 0,0 l/m 2,4 km/h (1 Bft) O-SO 112 0 min 0,000 mm 1,5 UV-I 318 W/m -0,2 C 7,3 C 4,8 km/h (1 Bft) 95,83 %
28.04.2016 12:46 7,4 C 61 % 1016,6 hPa 0,0 l/m 3,1 km/h (1 Bft) O-SO 112 0 min 0,000 mm 1,6 UV-I 352 W/m 0,4 C 7,4 C 4,8 km/h (1 Bft) 100,00 %
28.04.2016 12:47 7,5 C 62 % 1016,6 hPa 0,0 l/m 5,3 km/h (1 Bft) NO 44 0 min 0,000 mm 1,7 UV-I 371 W/m 0,7 C 7,5 C 8,0 km/h (2 Bft) 100,00 %
28.04.2016 12:48 7,6 C 59 % 1016,5 hPa 0,0 l/m 4,2 km/h (1 Bft) O-NO 78 0 min 0,000 mm 1,8 UV-I 398 W/m 0,1 C 7,6 C 6,4 km/h (2 Bft) 100,00 %
28.04.2016 12:49 7,6 C 59 % 1016,6 hPa 0,0 l/m 4,7 km/h (1 Bft) O-NO 63 0 min 0,000 mm 1,8 UV-I 391 W/m 0,1 C 7,6 C 8,0 km/h (2 Bft) 92,31 %
28.04.2016 12:50 7,6 C 62 % 1016,5 hPa 0,0 l/m 4,2 km/h (1 Bft) O-NO 63 0 min 0,000 mm 1,7 UV-I 370 W/m 0,8 C 7,6 C 6,4 km/h (2 Bft) 95,83 %
28.04.2016 12:51 7,6 C 59 % 1016,5 hPa 0,0 l/m 4,8 km/h (1 Bft) NO 56 0 min 0,000 mm 1,7 UV-I 370 W/m 0,1 C 7,6 C 6,4 km/h (2 Bft) 100,00 %
28.04.2016 12:52 7,7 C 60 % 1016,6 hPa 0,0 l/m 3,0 km/h (1 Bft) NO 56 0 min 0,000 mm 1,8 UV-I 380 W/m 0,4 C 7,7 C 4,8 km/h (1 Bft) 100,00 %
28.04.2016 12:53 7,7 C 59 % 1016,5 hPa 0,0 l/m 3,9 km/h (1 Bft) O-NO 78 0 min 0,000 mm 1,9 UV-I 406 W/m 0,2 C 7,7 C 6,4 km/h (2 Bft) 95,65 %
28.04.2016 12:54 7,7 C 58 % 1016,5 hPa 0,0 l/m 5,5 km/h (1 Bft) O-NO 72 0 min 0,000 mm 2,0 UV-I 431 W/m -0,0 C 7,7 C 8,0 km/h (2 Bft) 100,00 %
28.04.2016 12:55 7,7 C 56 % 1016,5 hPa 0,0 l/m 3,9 km/h (1 Bft) O-NO 59 1 min 0,000 mm 2,1 UV-I 462 W/m -0,5 C 7,7 C 8,0 km/h (2 Bft) 100,00 %
28.04.2016 12:56 7,7 C 57 % 1016,5 hPa 0,0 l/m 2,7 km/h (1 Bft) O-NO 65 1 min 0,000 mm 2,2 UV-I 464 W/m -0,3 C 7,7 C 3,2 km/h (1 Bft) 100,00 %
28.04.2016 12:57 7,8 C 59 % 1016,5 hPa 0,0 l/m 5,7 km/h (1 Bft) O-NO 76 1 min 0,000 mm 2,3 UV-I 462 W/m 0,3 C 7,8 C 8,0 km/h (2 Bft) 100,00 %
28.04.2016 12:58 7,8 C 59 % 1016,6 hPa 0,0 l/m 1,0 km/h (0 Bft) O-NO 76 1 min 0,000 mm 2,4 UV-I 568 W/m 0,3 C 7,8 C 3,2 km/h (1 Bft) 100,00 %
28.04.2016 12:59 7,8 C 63 % 1016,5 hPa 0,0 l/m 0,8 km/h (0 Bft) O-NO 76 1 min 0,000 mm 2,3 UV-I 587 W/m 1,2 C 7,8 C 3,2 km/h (1 Bft) 95,65 %
28.04.2016 13:00 7,8 C 63 % 1016,5 hPa 0,0 l/m 3,1 km/h (1 Bft) O-NO 76 1 min 0,000 mm 2,2 UV-I 490 W/m 1,2 C 7,8 C 4,8 km/h (1 Bft) 100,00 %
28.04.2016 13:02 7,9 C 65 % 1016,5 hPa 0,0 l/m 4,4 km/h (1 Bft) O-NO 62 0 min 0,229 mm 1,9 UV-I 358 W/m 1,7 C 7,9 C 8,0 km/h (2 Bft) 97,87 %
28.04.2016 13:03 7,9 C 60 % 1016,4 hPa 0,0 l/m 2,2 km/h (1 Bft) O-NO 59 0 min 0,000 mm 1,6 UV-I 281 W/m 0,6 C 7,9 C 4,8 km/h (1 Bft) 95,65 %
28.04.2016 13:04 7,8 C 66 % 1016,5 hPa 0,0 l/m 4,4 km/h (1 Bft) NO 51 0 min 0,000 mm 1,4 UV-I 268 W/m 1,9 C 7,8 C 6,4 km/h (2 Bft) 100,00 %
28.04.2016 13:05 7,8 C 62 % 1016,4 hPa 0,0 l/m 1,7 km/h (1 Bft) NO 53 0 min 0,000 mm 1,4 UV-I 279 W/m 1,0 C 7,8 C 3,2 km/h (1 Bft) 95,65 %
28.04.2016 13:06 7,8 C 62 % 1016,5 hPa 0,0 l/m 3,1 km/h (1 Bft) O-NO 59 0 min 0,000 mm 1,5 UV-I 313 W/m 1,0 C 7,8 C 6,4 km/h (2 Bft) 95,83 %
28.04.2016 13:07 7,8 C 61 % 1016,5 hPa 0,0 l/m 0,6 km/h (0 Bft) O-NO 59 0 min 0,000 mm 1,7 UV-I 362 W/m 0,8 C 7,8 C 1,6 km/h (1 Bft) 95,65 %
28.04.2016 13:08 7,8 C 62 % 1016,5 hPa 0,0 l/m 1,0 km/h (0 Bft) O-NO 59 0 min 0,000 mm 1,8 UV-I 402 W/m 1,0 C 7,8 C 1,6 km/h (1 Bft) 95,83 %
28.04.2016 13:09 7,8 C 66 % 1016,4 hPa 0,0 l/m 1,6 km/h (1 Bft) N-NO 26 1 min 0,000 mm 2,0 UV-I 458 W/m 1,9 C 7,8 C 3,2 km/h (1 Bft) 100,00 %
28.04.2016 13:10 8,0 C 69 % 1016,4 hPa 0,0 l/m 2,8 km/h (1 Bft) NO 49 1 min 0,000 mm 2,2 UV-I 507 W/m 2,7 C 8,0 C 4,8 km/h (1 Bft) 95,83 %
28.04.2016 13:11 8,1 C 66 % 1016,4 hPa 0,0 l/m 3,2 km/h (1 Bft) N-NO 30 1 min 0,000 mm 2,3 UV-I 519 W/m 2,1 C 8,1 C 6,4 km/h (2 Bft) 100,00 %
28.04.2016 13:12 8,2 C 65 % 1016,4 hPa 0,0 l/m 2,3 km/h (1 Bft) N-NO 22 1 min 0,000 mm 2,2 UV-I 510 W/m 2,0 C 8,2 C 4,8 km/h (1 Bft) 83,33 %
28.04.2016 13:13 8,2 C 64 % 1016,4 hPa 0,0 l/m 1,3 km/h (1 Bft) N-NO 17 1 min 0,000 mm 2,3 UV-I 478 W/m 1,8 C 8,2 C 3,2 km/h (1 Bft) 100,00 %
28.04.2016 13:14 8,2 C 62 % 1016,4 hPa 0,0 l/m 1,5 km/h (1 Bft) NO 45 1 min 0,000 mm 2,6 UV-I 525 W/m 1,4 C 8,2 C 6,4 km/h (2 Bft) 95,65 %
28.04.2016 13:15 8,2 C 62 % 1016,5 hPa 0,0 l/m 3,5 km/h (1 Bft) NO 50 1 min 0,000 mm 2,6 UV-I 580 W/m 1,4 C 8,2 C 4,8 km/h (1 Bft) 100,00 %
28.04.2016 13:16 8,2 C 62 % 1016,4 hPa 0,0 l/m 1,3 km/h (1 Bft) NO 48 1 min 0,000 mm 2,4 UV-I 505 W/m 1,4 C 8,2 C 3,2 km/h (1 Bft) 91,30 %
28.04.2016 13:17 8,3 C 62 % 1016,4 hPa 0,0 l/m 0,9 km/h (0 Bft) NO 47 1 min 0,000 mm 2,3 UV-I 469 W/m 1,5 C 8,3 C 1,6 km/h (1 Bft) 100,00 %
28.04.2016 13:18 8,2 C 58 % 1016,4 hPa 0,0 l/m 1,7 km/h (1 Bft) O-NO 67 1 min 0,000 mm 2,5 UV-I 513 W/m 0,4 C 8,2 C 3,2 km/h (1 Bft) 95,65 %
28.04.2016 13:19 8,2 C 58 % 1016,4 hPa 0,0 l/m 2,2 km/h (1 Bft) O-NO 68 1 min 0,000 mm 3,0 UV-I 610 W/m 0,4 C 8,2 C 3,2 km/h (1 Bft) 95,83 %
28.04.2016 13:20 8,1 C 57 % 1016,4 hPa 0,0 l/m 1,0 km/h (0 Bft) O-NO 68 1 min 0,000 mm 3,1 UV-I 760 W/m 0,1 C 8,1 C 3,2 km/h (1 Bft) 100,00 %
28.04.2016 13:21 8,0 C 60 % 1016,4 hPa 0,0 l/m 0,4 km/h (0 Bft) O-NO 68 1 min 0,000 mm 3,2 UV-I 774 W/m 0,7 C 8,0 C 1,6 km/h (1 Bft) 95,65 %
28.04.2016 13:22 8,1 C 61 % 1016,4 hPa 0,0 l/m 0,3 km/h (0 Bft) O-NO 68 1 min 0,000 mm 3,2 UV-I 751 W/m 1,0 C 8,1 C 1,6 km/h (1 Bft) 100,00 %
28.04.2016 13:23 8,2 C 61 % 1016,4 hPa 0,0 l/m 1,4 km/h (1 Bft) O-NO 68 1 min 0,000 mm 3,1 UV-I 708 W/m 1,1 C 8,2 C 3,2 km/h (1 Bft) 95,83 %
28.04.2016 13:24 8,2 C 60 % 1016,4 hPa 0,0 l/m 0,1 km/h (0 Bft) O-NO 68 1 min 0,000 mm 2,7 UV-I 705 W/m 0,9 C 8,2 C 1,6 km/h (1 Bft) 100,00 %
28.04.2016 13:25 8,3 C 62 % 1016,4 hPa 0,0 l/m 0,9 km/h (0 Bft) O-NO 68 1 min 0,000 mm 3,1 UV-I 694 W/m 1,5 C 8,3 C 3,2 km/h (1 Bft) 95,83 %
28.04.2016 13:26 8,5 C 62 % 1016,4 hPa 0,0 l/m 0,8 km/h (0 Bft) N-NO 30 1 min 0,000 mm 3,0 UV-I 638 W/m 1,6 C 8,5 C 1,6 km/h (1 Bft) 100,00 %
28.04.2016 13:27 8,7 C 62 % 1016,4 hPa 0,0 l/m 1,9 km/h (1 Bft) O-NO 59 1 min 0,000 mm 3,0 UV-I 569 W/m 1,8 C 8,7 C 6,4 km/h (2 Bft) 95,83 %
28.04.2016 13:28 8,7 C 61 % 1016,4 hPa 0,0 l/m 5,4 km/h (1 Bft) O 90 1 min 0,000 mm 3,0 UV-I 541 W/m 1,6 C 8,7 C 6,4 km/h (2 Bft) 95,83 %
28.04.2016 13:29 8,7 C 61 % 1016,4 hPa 0,0 l/m 2,7 km/h (1 Bft) NO 45 1 min 0,000 mm 3,1 UV-I 655 W/m 1,6 C 8,7 C 4,8 km/h (1 Bft) 95,65 %
28.04.2016 13:30 8,7 C 60 % 1016,4 hPa 0,0 l/m 4,9 km/h (1 Bft) NO 51 1 min 0,000 mm 3,1 UV-I 675 W/m 1,4 C 8,7 C 6,4 km/h (2 Bft) 100,00 %
28.04.2016 13:31 8,8 C 66 % 1016,4 hPa 0,0 l/m 4,2 km/h (1 Bft) NO 44 1 min 0,000 mm 3,1 UV-I 612 W/m 2,8 C 8,8 C 6,4 km/h (2 Bft) 97,37 %
28.04.2016 13:32 8,9 C 65 % 1016,4 hPa 0,0 l/m 3,4 km/h (1 Bft) NO 44 1 min 0,000 mm 3,3 UV-I 695 W/m 2,7 C 8,9 C 4,8 km/h (1 Bft) 95,83 %
28.04.2016 13:33 9,1 C 62 % 1016,4 hPa 0,0 l/m 5,4 km/h (1 Bft) O-NO 70 1 min 0,000 mm 3,4 UV-I 743 W/m 2,2 C 9,1 C 8,0 km/h (2 Bft) 95,65 %
28.04.2016 13:34 9,1 C 59 % 1016,4 hPa 0,0 l/m 5,4 km/h (1 Bft) O-NO 77 1 min 0,000 mm 3,2 UV-I 704 W/m 1,5 C 9,1 C 8,0 km/h (2 Bft) 95,83 %
28.04.2016 13:35 8,9 C 57 % 1016,4 hPa 0,0 l/m 5,3 km/h (1 Bft) O-SO 121 1 min 0,000 mm 3,4 UV-I 756 W/m 0,9 C 8,9 C 8,0 km/h (2 Bft) 100,00 %
28.04.2016 13:36 8,7 C 57 % 1016,4 hPa 0,0 l/m 2,4 km/h (1 Bft) SO 142 1 min 0,000 mm 3,4 UV-I 756 W/m 0,7 C 8,7 C 3,2 km/h (1 Bft) 95,83 %
28.04.2016 13:37 8,7 C 60 % 1016,4 hPa 0,0 l/m 3,2 km/h (1 Bft) S-SO 148 1 min 0,000 mm 3,3 UV-I 786 W/m 1,4 C 8,7 C 4,8 km/h (1 Bft) 95,65 %
28.04.2016 13:38 8,7 C 63 % 1016,4 hPa 0,0 l/m 4,0 km/h (1 Bft) S-SO 156 1 min 0,000 mm 3,4 UV-I 801 W/m 2,1 C 8,7 C 9,7 km/h (2 Bft) 100,00 %
28.04.2016 13:39 8,7 C 60 % 1016,4 hPa 0,0 l/m 6,1 km/h (2 Bft) O-SO 112 1 min 0,000 mm 3,1 UV-I 782 W/m 1,4 C 8,7 C 11,3 km/h (2 Bft) 100,00 %
28.04.2016 13:40 8,6 C 58 % 1016,5 hPa 0,0 l/m 4,8 km/h (1 Bft) O-NO 68 1 min 0,000 mm 2,7 UV-I 782 W/m 0,8 C 8,6 C 6,4 km/h (2 Bft) 100,00 %
28.04.2016 13:41 8,6 C 62 % 1016,4 hPa 0,0 l/m 4,0 km/h (1 Bft) O-NO 69 1 min 0,000 mm 2,4 UV-I 746 W/m 1,7 C 8,6 C 6,4 km/h (2 Bft) 95,65 %
28.04.2016 13:42 8,7 C 60 % 1016,4 hPa 0,0 l/m 5,4 km/h (1 Bft) O-NO 59 1 min 0,000 mm 2,6 UV-I 497 W/m 1,4 C 8,7 C 8,0 km/h (2 Bft) 100,00 %
28.04.2016 13:43 8,8 C 58 % 1016,4 hPa 0,0 l/m 4,6 km/h (1 Bft) NO 49 1 min 0,000 mm 3,0 UV-I 497 W/m 1,0 C 8,8 C 6,4 km/h (2 Bft) 95,83 %
28.04.2016 13:44 8,9 C 59 % 1016,5 hPa 0,0 l/m 2,6 km/h (1 Bft) NO 49 1 min 0,000 mm 3,0 UV-I 497 W/m 1,3 C 8,9 C 4,8 km/h (1 Bft) 100,00 %
28.04.2016 13:45 9,0 C 55 % 1016,5 hPa 0,0 l/m 1,4 km/h (1 Bft) NO 49 0 min 0,000 mm 2,4 UV-I 442 W/m 0,5 C 9,0 C 3,2 km/h (1 Bft) 100,00 %
28.04.2016 13:46 9,0 C 56 % 1016,5 hPa 0,0 l/m 2,7 km/h (1 Bft) W 260 0 min 0,000 mm 2,2 UV-I 372 W/m 0,7 C 9,0 C 4,8 km/h (1 Bft) 100,00 %
28.04.2016 13:47 9,0 C 55 % 1016,5 hPa 0,0 l/m 4,7 km/h (1 Bft) W-SW 241 0 min 0,000 mm 2,1 UV-I 344 W/m 0,5 C 9,0 C 8,0 km/h (2 Bft) 100,00 %
28.04.2016 13:48 8,9 C 51 % 1016,5 hPa 0,0 l/m 4,5 km/h (1 Bft) W-SW 242 0 min 0,000 mm 2,0 UV-I 364 W/m -0,7 C 8,9 C 6,4 km/h (2 Bft) 100,00 %
28.04.2016 13:49 8,8 C 53 % 1016,5 hPa 0,0 l/m 4,5 km/h (1 Bft) W 267 0 min 0,000 mm 2,2 UV-I 419 W/m -0,2 C 8,8 C 4,8 km/h (1 Bft) 100,00 %
28.04.2016 13:50 8,8 C 56 % 1016,5 hPa 0,0 l/m 2,1 km/h (1 Bft) W-NW 291 1 min 0,000 mm 2,4 UV-I 507 W/m 0,5 C 8,8 C 4,8 km/h (1 Bft) 95,65 %
28.04.2016 13:51 8,9 C 57 % 1016,4 hPa 0,0 l/m 2,5 km/h (1 Bft) O 89 1 min 0,000 mm 2,5 UV-I 552 W/m 0,9 C 8,9 C 6,4 km/h (2 Bft) 100,00 %
28.04.2016 13:52 9,1 C 55 % 1016,4 hPa 0,0 l/m 4,8 km/h (1 Bft) S 180 1 min 0,000 mm 2,3 UV-I 551 W/m 0,5 C 9,1 C 9,7 km/h (2 Bft) 100,00 %
28.04.2016 13:53 9,1 C 53 % 1016,4 hPa 0,0 l/m 5,2 km/h (1 Bft) S-SO 150 1 min 0,000 mm 2,5 UV-I 475 W/m 0,0 C 9,1 C 8,0 km/h (2 Bft) 100,00 %
28.04.2016 13:54 9,0 C 53 % 1016,4 hPa 0,0 l/m 4,4 km/h (1 Bft) S 172 1 min 0,000 mm 2,4 UV-I 458 W/m -0,1 C 9,0 C 8,0 km/h (2 Bft) 100,00 %
28.04.2016 13:55 8,9 C 53 % 1016,4 hPa 0,0 l/m 2,2 km/h (1 Bft) S 172 1 min 0,000 mm 2,3 UV-I 450 W/m -0,1 C 8,9 C 3,2 km/h (1 Bft) 100,00 %
28.04.2016 13:56 8,8 C 49 % 1016,3 hPa 0,0 l/m 2,3 km/h (1 Bft) SO 146 1 min 0,000 mm 2,5 UV-I 481 W/m -1,3 C 8,8 C 3,2 km/h (1 Bft) 95,65 %
28.04.2016 13:57 8,7 C 52 % 1016,3 hPa 0,0 l/m 3,8 km/h (1 Bft) N-NO 19 1 min 0,000 mm 2,8 UV-I 496 W/m -0,6 C 8,7 C 4,8 km/h (1 Bft) 100,00 %
28.04.2016 13:58 8,8 C 53 % 1016,3 hPa 0,0 l/m 3,9 km/h (1 Bft) NO 52 1 min 0,000 mm 3,1 UV-I 680 W/m -0,2 C 8,8 C 6,4 km/h (2 Bft) 100,00 %
28.04.2016 13:59 8,9 C 53 % 1016,3 hPa 0,0 l/m 2,6 km/h (1 Bft) O 81 1 min 0,000 mm 3,0 UV-I 683 W/m -0,1 C 8,9 C 4,8 km/h (1 Bft) 100,00 %
28.04.2016 14:00 8,9 C 53 % 1016,3 hPa 0,0 l/m 2,9 km/h (1 Bft) S 182 1 min 0,000 mm 2,9 UV-I 650 W/m -0,1 C 8,9 C 6,4 km/h (2 Bft) 100,00 %
28.04.2016 14:02 8,9 C 49 % 1016,3 hPa 0,0 l/m 5,6 km/h (1 Bft) W-SW 244 2 min 0,254 mm 2,8 UV-I 622 W/m -1,2 C 8,9 C 8,0 km/h (2 Bft) 97,87 %
28.04.2016 14:03 8,9 C 45 % 1016,3 hPa 0,0 l/m 6,5 km/h (2 Bft) S-SO 164 1 min 0,000 mm 2,7 UV-I 570 W/m -2,4 C 8,9 C 9,7 km/h (2 Bft) 100,00 %
28.04.2016 14:04 9,0 C 44 % 1016,3 hPa 0,0 l/m 5,2 km/h (1 Bft) S-SO 167 1 min 0,000 mm 2,6 UV-I 498 W/m -2,6 C 9,0 C 8,0 km/h (2 Bft) 100,00 %
28.04.2016 14:05 9,0 C 43 % 1016,3 hPa 0,0 l/m 3,3 km/h (1 Bft) S 178 1 min 0,000 mm 2,4 UV-I 447 W/m -2,9 C 9,0 C 6,4 km/h (2 Bft) 100,00 %
28.04.2016 14:06 8,9 C 42 % 1016,3 hPa 0,0 l/m 0,9 km/h (0 Bft) S 178 0 min 0,000 mm 2,5 UV-I 422 W/m -3,3 C 8,9 C 3,2 km/h (1 Bft) 93,33 %
28.04.2016 14:07 8,9 C 46 % 1016,3 hPa 0,0 l/m 3,6 km/h (1 Bft) W-SW 250 0 min 0,000 mm 2,6 UV-I 429 W/m -2,1 C 8,9 C 6,4 km/h (2 Bft) 95,65 %
28.04.2016 14:08 9,0 C 49 % 1016,3 hPa 0,0 l/m 4,8 km/h (1 Bft) W-SW 241 1 min 0,000 mm 3,0 UV-I 572 W/m -1,1 C 9,0 C 8,0 km/h (2 Bft) 95,83 %
28.04.2016 14:09 9,1 C 42 % 1016,2 hPa 0,0 l/m 5,6 km/h (1 Bft) W-SW 256 1 min 0,000 mm 3,1 UV-I 681 W/m -3,1 C 9,1 C 8,0 km/h (2 Bft) 100,00 %
28.04.2016 14:10 9,1 C 44 % 1016,2 hPa 0,0 l/m 5,4 km/h (1 Bft) SW 229 1 min 0,000 mm 3,2 UV-I 742 W/m -2,5 C 9,1 C 8,0 km/h (2 Bft) 100,00 %
28.04.2016 14:11 9,2 C 48 % 1016,2 hPa 0,0 l/m 6,0 km/h (2 Bft) S-SW 199 1 min 0,000 mm 3,3 UV-I 772 W/m -1,2 C 9,2 C 8,0 km/h (2 Bft) 100,00 %
28.04.2016 14:12 9,3 C 47 % 1016,2 hPa 0,0 l/m 4,7 km/h (1 Bft) S-SW 199 1 min 0,000 mm 3,1 UV-I 772 W/m -1,4 C 9,3 C 8,0 km/h (2 Bft) 100,00 %
28.04.2016 14:13 9,3 C 42 % 1016,1 hPa 0,0 l/m 2,2 km/h (1 Bft) S 177 1 min 0,000 mm 3,2 UV-I 754 W/m -2,9 C 9,3 C 3,2 km/h (1 Bft) 95,65 %
28.04.2016 14:14 9,2 C 43 % 1016,1 hPa 0,0 l/m 0,6 km/h (0 Bft) S 177 1 min 0,000 mm 2,9 UV-I 738 W/m -2,7 C 9,2 C 1,6 km/h (1 Bft) 95,83 %
28.04.2016 14:15 9,2 C 48 % 1016,1 hPa 0,0 l/m 1,9 km/h (1 Bft) S-SO 153 1 min 0,000 mm 2,8 UV-I 600 W/m -1,2 C 9,2 C 4,8 km/h (1 Bft) 95,65 %
28.04.2016 14:16 9,2 C 44 % 1016,1 hPa 0,0 l/m 4,6 km/h (1 Bft) S-SW 206 1 min 0,000 mm 2,5 UV-I 557 W/m -2,4 C 9,2 C 11,3 km/h (2 Bft) 100,00 %
28.04.2016 14:17 9,2 C 44 % 1016,1 hPa 0,0 l/m 10,5 km/h (2 Bft) W 260 0 min 0,000 mm 2,4 UV-I 406 W/m -2,4 C 6,4 C 14,5 km/h (3 Bft) 100,00 %
28.04.2016 14:18 9,2 C 41 % 1016,1 hPa 0,0 l/m 4,9 km/h (1 Bft) W 264 1 min 0,000 mm 2,8 UV-I 496 W/m -3,4 C 9,2 C 6,4 km/h (2 Bft) 100,00 %
28.04.2016 14:19 9,2 C 42 % 1016,2 hPa 0,0 l/m 3,4 km/h (1 Bft) W-NW 292 1 min 0,000 mm 3,0 UV-I 621 W/m -3,0 C 9,2 C 4,8 km/h (1 Bft) 100,00 %
28.04.2016 14:20 9,2 C 43 % 1016,2 hPa 0,0 l/m 3,5 km/h (1 Bft) W-NW 291 1 min 0,000 mm 3,3 UV-I 771 W/m -2,7 C 9,2 C 4,8 km/h (1 Bft) 100,00 %
28.04.2016 14:21 9,2 C 43 % 1016,2 hPa 0,0 l/m 4,0 km/h (1 Bft) W 265 1 min 0,000 mm 3,3 UV-I 802 W/m -2,7 C 9,2 C 6,4 km/h (2 Bft) 100,00 %
28.04.2016 14:22 9,2 C 42 % 1016,1 hPa 0,0 l/m 3,3 km/h (1 Bft) W-NW 292 1 min 0,000 mm 3,2 UV-I 719 W/m -3,0 C 9,2 C 4,8 km/h (1 Bft) 100,00 %
28.04.2016 14:23 9,2 C 41 % 1016,2 hPa 0,0 l/m 2,0 km/h (1 Bft) O 88 1 min 0,000 mm 3,0 UV-I 674 W/m -3,4 C 9,2 C 3,2 km/h (1 Bft) 100,00 %
28.04.2016 14:24 9,2 C 42 % 1016,1 hPa 0,0 l/m 5,6 km/h (1 Bft) W-NW 286 1 min 0,000 mm 2,8 UV-I 572 W/m -3,0 C 9,2 C 9,7 km/h (2 Bft) 100,00 %
28.04.2016 14:25 9,2 C 40 % 1016,1 hPa 0,0 l/m 4,7 km/h (1 Bft) W-NW 288 1 min 0,000 mm 2,9 UV-I 582 W/m -3,7 C 9,2 C 6,4 km/h (2 Bft) 100,00 %
28.04.2016 14:26 9,2 C 42 % 1016,1 hPa 0,0 l/m 4,4 km/h (1 Bft) W-SW 250 1 min 0,000 mm 2,8 UV-I 582 W/m -3,0 C 9,2 C 6,4 km/h (2 Bft) 95,65 %
28.04.2016 14:27 9,1 C 42 % 1016,2 hPa 0,0 l/m 6,6 km/h (2 Bft) W-SW 251 1 min 0,000 mm 2,6 UV-I 474 W/m -3,1 C 9,0 C 8,0 km/h (2 Bft) 100,00 %
28.04.2016 14:28 9,0 C 41 % 1016,2 hPa 0,0 l/m 2,7 km/h (1 Bft) W-SW 251 1 min 0,000 mm 2,4 UV-I 446 W/m -3,5 C 9,0 C 4,8 km/h (1 Bft) 100,00 %
28.04.2016 14:29 9,0 C 45 % 1016,2 hPa 0,0 l/m 1,1 km/h (1 Bft) SW 216 0 min 0,000 mm 2,3 UV-I 408 W/m -2,3 C 9,0 C 3,2 km/h (1 Bft) 100,00 %
28.04.2016 14:30 9,0 C 46 % 1016,2 hPa 0,0 l/m 5,6 km/h (1 Bft) S-SW 192 0 min 0,000 mm 2,3 UV-I 389 W/m -2,0 C 9,0 C 9,7 km/h (2 Bft) 100,00 %
28.04.2016 14:31 8,9 C 42 % 1016,2 hPa 0,0 l/m 4,0 km/h (1 Bft) S 172 0 min 0,000 mm 2,2 UV-I 387 W/m -3,3 C 8,9 C 6,4 km/h (2 Bft) 100,00 %
28.04.2016 14:32 8,9 C 42 % 1016,2 hPa 0,0 l/m 2,3 km/h (1 Bft) S-SW 195 1 min 0,000 mm 2,4 UV-I 453 W/m -3,3 C 8,9 C 4,8 km/h (1 Bft) 95,65 %
28.04.2016 14:33 9,1 C 46 % 1016,2 hPa 0,0 l/m 7,0 km/h (2 Bft) S-SW 197 0 min 0,000 mm 2,3 UV-I 409 W/m -1,9 C 8,7 C 11,3 km/h (2 Bft) 100,00 %
28.04.2016 14:34 9,1 C 46 % 1016,2 hPa 0,0 l/m 8,3 km/h (2 Bft) S 182 0 min 0,000 mm 2,2 UV-I 385 W/m -1,9 C 7,7 C 12,9 km/h (3 Bft) 100,00 %
28.04.2016 14:35 9,2 C 44 % 1016,2 hPa 0,0 l/m 7,0 km/h (2 Bft) S-SO 161 0 min 0,000 mm 2,1 UV-I 382 W/m -2,4 C 8,8 C 12,9 km/h (3 Bft) 100,00 %
28.04.2016 14:36 9,2 C 46 % 1016,2 hPa 0,0 l/m 6,5 km/h (2 Bft) S 176 1 min 0,000 mm 2,0 UV-I 443 W/m -1,8 C 9,2 C 11,3 km/h (2 Bft) 95,65 %
28.04.2016 14:37 9,2 C 45 % 1016,3 hPa 0,0 l/m 9,9 km/h (2 Bft) S-SW 198 0 min 0,000 mm 1,9 UV-I 354 W/m -2,1 C 6,8 C 14,5 km/h (3 Bft) 100,00 %
28.04.2016 14:38 9,1 C 45 % 1016,2 hPa 0,0 l/m 5,6 km/h (1 Bft) S-SW 200 0 min 0,000 mm 1,8 UV-I 300 W/m -2,2 C 9,1 C 8,0 km/h (2 Bft) 100,00 %
28.04.2016 14:39 9,0 C 47 % 1016,2 hPa 0,0 l/m 7,7 km/h (2 Bft) S-SW 194 0 min 0,000 mm 1,8 UV-I 310 W/m -1,7 C 8,0 C 9,7 km/h (2 Bft) 100,00 %
28.04.2016 14:40 9,0 C 46 % 1016,2 hPa 0,0 l/m 5,8 km/h (2 Bft) S-SW 208 0 min 0,000 mm 1,9 UV-I 371 W/m -2,0 C 9,0 C 9,7 km/h (2 Bft) 100,00 %
28.04.2016 14:41 9,0 C 44 % 1016,2 hPa 0,0 l/m 9,3 km/h (2 Bft) S 182 0 min 0,000 mm 2,0 UV-I 406 W/m -2,6 C 6,9 C 12,9 km/h (3 Bft) 100,00 %
28.04.2016 14:42 8,9 C 46 % 1016,2 hPa 0,0 l/m 6,0 km/h (2 Bft) S 172 0 min 0,000 mm 2,1 UV-I 397 W/m -2,1 C 8,9 C 9,7 km/h (2 Bft) 100,00 %
28.04.2016 14:43 8,8 C 43 % 1016,2 hPa 0,0 l/m 2,7 km/h (1 Bft) S 169 0 min 0,000 mm 2,5 UV-I 397 W/m -3,1 C 8,8 C 6,4 km/h (2 Bft) 100,00 %
28.04.2016 14:44 8,8 C 44 % 1016,1 hPa 0,0 l/m 1,6 km/h (1 Bft) S 169 0 min 0,000 mm 2,4 UV-I 397 W/m -2,8 C 8,8 C 3,2 km/h (1 Bft) 93,33 %
28.04.2016 14:45 8,8 C 43 % 1016,1 hPa 0,0 l/m 1,2 km/h (1 Bft) S 169 0 min 0,000 mm 2,2 UV-I 403 W/m -3,1 C 8,8 C 3,2 km/h (1 Bft) 100,00 %
28.04.2016 14:46 8,9 C 51 % 1016,2 hPa 0,0 l/m 4,5 km/h (1 Bft) SO 146 1 min 0,000 mm 2,4 UV-I 461 W/m -0,7 C 8,9 C 8,0 km/h (2 Bft) 100,00 %
28.04.2016 14:47 9,0 C 45 % 1016,1 hPa 0,0 l/m 3,9 km/h (1 Bft) S-SO 165 1 min 0,000 mm 2,6 UV-I 592 W/m -2,3 C 9,0 C 6,4 km/h (2 Bft) 100,00 %
28.04.2016 14:48 9,1 C 46 % 1016,1 hPa 0,0 l/m 4,4 km/h (1 Bft) S-SO 157 1 min 0,000 mm 2,4 UV-I 562 W/m -1,9 C 9,1 C 6,4 km/h (2 Bft) 100,00 %
28.04.2016 14:49 9,2 C 46 % 1016,2 hPa 0,0 l/m 3,4 km/h (1 Bft) S 178 1 min 0,000 mm 2,2 UV-I 536 W/m -1,8 C 9,2 C 6,4 km/h (2 Bft) 100,00 %
28.04.2016 14:50 9,3 C 47 % 1016,1 hPa 0,0 l/m 3,5 km/h (1 Bft) S-SO 149 1 min 0,000 mm 2,1 UV-I 515 W/m -1,4 C 9,3 C 6,4 km/h (2 Bft) 100,00 %
28.04.2016 14:51 9,2 C 45 % 1016,1 hPa 0,0 l/m 2,2 km/h (1 Bft) S-SO 149 1 min 0,000 mm 2,0 UV-I 497 W/m -2,1 C 9,2 C 3,2 km/h (1 Bft) 100,00 %
28.04.2016 14:52 9,2 C 45 % 1016,1 hPa 0,0 l/m 4,6 km/h (1 Bft) S-SW 195 0 min 0,000 mm 1,9 UV-I 348 W/m -2,1 C 9,2 C 11,3 km/h (2 Bft) 100,00 %
28.04.2016 14:53 9,2 C 47 % 1016,1 hPa 0,0 l/m 8,1 km/h (2 Bft) S-SW 200 0 min 0,000 mm 1,7 UV-I 290 W/m -1,5 C 7,9 C 11,3 km/h (2 Bft) 100,00 %
28.04.2016 14:54 9,1 C 48 % 1016,1 hPa 0,0 l/m 7,3 km/h (2 Bft) SW 226 0 min 0,000 mm 1,6 UV-I 274 W/m -1,3 C 8,4 C 11,3 km/h (2 Bft) 100,00 %
28.04.2016 14:55 9,1 C 45 % 1016,1 hPa 0,0 l/m 7,3 km/h (2 Bft) S-SW 209 0 min 0,000 mm 1,6 UV-I 268 W/m -2,2 C 8,4 C 9,7 km/h (2 Bft) 100,00 %
28.04.2016 14:56 9,0 C 46 % 1016,1 hPa 0,0 l/m 6,6 km/h (2 Bft) SW 228 0 min 0,000 mm 1,5 UV-I 270 W/m -2,0 C 8,9 C 12,9 km/h (3 Bft) 100,00 %
28.04.2016 14:57 9,0 C 47 % 1016,1 hPa 0,0 l/m 5,4 km/h (1 Bft) SW 229 0 min 0,000 mm 1,5 UV-I 277 W/m -1,7 C 9,0 C 8,0 km/h (2 Bft) 100,00 %
28.04.2016 14:58 9,0 C 49 % 1016,1 hPa 0,0 l/m 7,2 km/h (2 Bft) S 187 0 min 0,000 mm 1,5 UV-I 284 W/m -1,1 C 8,4 C 14,5 km/h (3 Bft) 95,83 %
28.04.2016 14:59 9,0 C 48 % 1016,1 hPa 0,0 l/m 4,0 km/h (1 Bft) S-SO 150 0 min 0,000 mm 1,5 UV-I 292 W/m -1,4 C 9,0 C 9,7 km/h (2 Bft) 100,00 %
28.04.2016 15:00 9,0 C 49 % 1016,0 hPa 0,0 l/m 3,2 km/h (1 Bft) S-SO 159 0 min 0,000 mm 1,5 UV-I 316 W/m -1,1 C 9,0 C 6,4 km/h (2 Bft) 91,67 %
28.04.2016 15:02 9,1 C 49 % 1016,0 hPa 0,0 l/m 2,6 km/h (1 Bft) SO 132 0 min 0,254 mm 1,7 UV-I 369 W/m -1,0 C 9,1 C 4,8 km/h (1 Bft) 96,92 %
28.04.2016 15:03 9,2 C 51 % 1016,0 hPa 0,0 l/m 2,9 km/h (1 Bft) SO 139 1 min 0,000 mm 1,8 UV-I 471 W/m -0,4 C 9,2 C 8,0 km/h (2 Bft) 100,00 %
28.04.2016 15:04 9,3 C 50 % 1015,9 hPa 0,0 l/m 6,2 km/h (2 Bft) O-SO 123 1 min 0,000 mm 1,8 UV-I 488 W/m -0,6 C 9,3 C 9,7 km/h (2 Bft) 95,65 %
28.04.2016 15:05 9,4 C 48 % 1015,9 hPa 0,0 l/m 5,2 km/h (1 Bft) S 170 1 min 0,000 mm 1,9 UV-I 448 W/m -1,0 C 9,4 C 8,0 km/h (2 Bft) 95,83 %
28.04.2016 15:06 9,4 C 50 % 1016,0 hPa 0,0 l/m 5,6 km/h (1 Bft) S-SO 167 1 min 0,000 mm 2,0 UV-I 516 W/m -0,5 C 9,4 C 8,0 km/h (2 Bft) 100,00 %
28.04.2016 15:07 9,6 C 50 % 1015,9 hPa 0,0 l/m 4,2 km/h (1 Bft) S-SO 166 1 min 0,000 mm 2,0 UV-I 512 W/m -0,3 C 9,6 C 6,4 km/h (2 Bft) 95,83 %
28.04.2016 15:08 9,7 C 50 % 1015,9 hPa 0,0 l/m 3,2 km/h (1 Bft) S-SO 165 1 min 0,000 mm 1,9 UV-I 460 W/m -0,2 C 9,7 C 6,4 km/h (2 Bft) 100,00 %
28.04.2016 15:09 9,7 C 48 % 1016,0 hPa 0,0 l/m 5,3 km/h (1 Bft) S-SO 155 1 min 0,000 mm 2,0 UV-I 466 W/m -0,8 C 9,7 C 8,0 km/h (2 Bft) 95,83 %
28.04.2016 15:10 9,6 C 46 % 1016,0 hPa 0,0 l/m 3,4 km/h (1 Bft) S-SO 148 1 min 0,000 mm 2,1 UV-I 525 W/m -1,4 C 9,6 C 6,4 km/h (2 Bft) 100,00 %
28.04.2016 15:11 9,6 C 44 % 1016,0 hPa 0,0 l/m 4,9 km/h (1 Bft) S 190 1 min 0,000 mm 2,3 UV-I 550 W/m -2,0 C 9,6 C 12,9 km/h (3 Bft) 95,83 %
28.04.2016 15:12 9,6 C 47 % 1016,0 hPa 0,0 l/m 8,3 km/h (2 Bft) S 190 1 min 0,000 mm 2,5 UV-I 662 W/m -1,1 C 8,2 C 11,3 km/h (2 Bft) 86,96 %
28.04.2016 15:13 9,6 C 45 % 1015,9 hPa 0,0 l/m 2,7 km/h (1 Bft) S 187 1 min 0,000 mm 2,5 UV-I 728 W/m -1,7 C 9,6 C 4,8 km/h (1 Bft) 100,00 %
28.04.2016 15:14 9,6 C 46 % 1015,9 hPa 0,0 l/m 1,3 km/h (1 Bft) W 271 1 min 0,000 mm 2,6 UV-I 775 W/m -1,4 C 9,6 C 3,2 km/h (1 Bft) 95,65 %
28.04.2016 15:15 9,7 C 51 % 1015,9 hPa 0,0 l/m 3,6 km/h (1 Bft) W-SW 258 1 min 0,000 mm 2,5 UV-I 689 W/m 0,1 C 9,7 C 4,8 km/h (1 Bft) 100,00 %
28.04.2016 15:16 9,8 C 47 % 1015,9 hPa 0,0 l/m 3,8 km/h (1 Bft) W 273 1 min 0,000 mm 2,2 UV-I 580 W/m -1,0 C 9,8 C 4,8 km/h (1 Bft) 96,15 %
28.04.2016 15:17 9,8 C 49 % 1015,9 hPa 0,0 l/m 5,3 km/h (1 Bft) W-SW 257 1 min 0,000 mm 2,1 UV-I 402 W/m -0,4 C 9,8 C 11,3 km/h (2 Bft) 100,00 %
28.04.2016 15:18 9,8 C 49 % 1016,0 hPa 0,0 l/m 3,9 km/h (1 Bft) W 269 0 min 0,000 mm 1,9 UV-I 349 W/m -0,4 C 9,8 C 6,4 km/h (2 Bft) 96,15 %
28.04.2016 15:19 9,7 C 44 % 1015,9 hPa 0,0 l/m 2,7 km/h (1 Bft) W 270 0 min 0,000 mm 2,0 UV-I 338 W/m -2,0 C 9,7 C 3,2 km/h (1 Bft) 95,83 %
28.04.2016 15:20 9,7 C 44 % 1015,9 hPa 0,0 l/m 1,9 km/h (1 Bft) W 270 0 min 0,000 mm 2,2 UV-I 338 W/m -2,0 C 9,7 C 3,2 km/h (1 Bft) 100,00 %
28.04.2016 15:21 9,7 C 49 % 1015,9 hPa 0,0 l/m 1,5 km/h (1 Bft) W 270 0 min 0,000 mm 2,2 UV-I 338 W/m -0,5 C 9,7 C 3,2 km/h (1 Bft) 95,83 %
28.04.2016 15:22 9,8 C 51 % 1015,9 hPa 0,0 l/m 3,9 km/h (1 Bft) W-NW 299 0 min 0,000 mm 1,8 UV-I 350 W/m 0,2 C 9,8 C 6,4 km/h (2 Bft) 100,00 %
28.04.2016 15:23 9,9 C 51 % 1015,9 hPa 0,0 l/m 1,7 km/h (1 Bft) N-NW 327 0 min 0,000 mm 1,7 UV-I 367 W/m 0,2 C 9,9 C 4,8 km/h (1 Bft) 96,15 %
28.04.2016 15:24 9,8 C 47 % 1015,8 hPa 0,0 l/m 1,1 km/h (1 Bft) N-NW 327 0 min 0,000 mm 1,5 UV-I 275 W/m -1,0 C 9,8 C 3,2 km/h (1 Bft) 100,00 %
28.04.2016 15:25 9,7 C 49 % 1015,9 hPa 0,0 l/m 1,9 km/h (1 Bft) N-NW 327 0 min 0,000 mm 1,4 UV-I 231 W/m -0,5 C 9,7 C 3,2 km/h (1 Bft) 95,65 %
28.04.2016 15:26 9,6 C 46 % 1015,8 hPa 0,0 l/m 1,5 km/h (1 Bft) SW 234 0 min 0,000 mm 1,6 UV-I 232 W/m -1,4 C 9,6 C 3,2 km/h (1 Bft) 100,00 %
28.04.2016 15:27 9,5 C 47 % 1015,9 hPa 0,0 l/m 2,1 km/h (1 Bft) SW 234 0 min 0,000 mm 1,6 UV-I 263 W/m -1,2 C 9,5 C 3,2 km/h (1 Bft) 95,65 %
28.04.2016 15:28 9,5 C 48 % 1015,9 hPa 0,0 l/m 3,7 km/h (1 Bft) SW 233 0 min 0,000 mm 1,6 UV-I 345 W/m -1,0 C 9,5 C 6,4 km/h (2 Bft) 95,83 %
28.04.2016 15:29 9,5 C 48 % 1015,8 hPa 0,0 l/m 3,8 km/h (1 Bft) N-NW 327 0 min 0,000 mm 1,5 UV-I 330 W/m -1,0 C 9,5 C 4,8 km/h (1 Bft) 95,65 %
28.04.2016 15:30 9,4 C 47 % 1015,8 hPa 0,0 l/m 2,7 km/h (1 Bft) NW 308 0 min 0,000 mm 1,5 UV-I 338 W/m -1,3 C 9,4 C 4,8 km/h (1 Bft) 95,83 %
28.04.2016 15:31 9,4 C 48 % 1015,8 hPa 0,0 l/m 1,1 km/h (1 Bft) NW 308 0 min 0,000 mm 1,6 UV-I 351 W/m -1,0 C 9,4 C 1,6 km/h (1 Bft) 92,31 %
28.04.2016 15:32 9,4 C 46 % 1015,8 hPa 0,0 l/m 1,3 km/h (1 Bft) NW 306 0 min 0,000 mm 1,8 UV-I 353 W/m -1,6 C 9,4 C 3,2 km/h (1 Bft) 100,00 %
28.04.2016 15:33 9,6 C 50 % 1015,8 hPa 0,0 l/m 2,0 km/h (1 Bft) N-NW 344 1 min 0,000 mm 2,1 UV-I 445 W/m -0,3 C 9,6 C 3,2 km/h (1 Bft) 100,00 %
28.04.2016 15:34 9,6 C 47 % 1015,8 hPa 0,0 l/m 3,6 km/h (1 Bft) NO 38 1 min 0,000 mm 2,2 UV-I 746 W/m -1,1 C 9,6 C 6,4 km/h (2 Bft) 100,00 %
28.04.2016 15:35 9,7 C 44 % 1015,8 hPa 0,0 l/m 4,4 km/h (1 Bft) N-NO 29 1 min 0,000 mm 2,2 UV-I 810 W/m -2,0 C 9,7 C 6,4 km/h (2 Bft) 95,65 %
28.04.2016 15:36 9,8 C 46 % 1015,8 hPa 0,0 l/m 2,7 km/h (1 Bft) N-NO 18 1 min 0,000 mm 2,2 UV-I 837 W/m -1,3 C 9,8 C 4,8 km/h (1 Bft) 100,00 %
28.04.2016 15:37 9,8 C 46 % 1015,8 hPa 0,0 l/m 2,5 km/h (1 Bft) O-NO 69 1 min 0,000 mm 2,1 UV-I 837 W/m -1,3 C 9,8 C 4,8 km/h (1 Bft) 100,00 %
28.04.2016 15:38 9,8 C 47 % 1015,9 hPa 0,0 l/m 1,7 km/h (1 Bft) O-NO 69 1 min 0,000 mm 1,9 UV-I 799 W/m -1,0 C 9,8 C 3,2 km/h (1 Bft) 100,00 %
28.04.2016 15:39 9,8 C 46 % 1015,8 hPa 0,0 l/m 1,7 km/h (1 Bft) S-SO 159 1 min 0,000 mm 2,0 UV-I 640 W/m -1,3 C 9,8 C 6,4 km/h (2 Bft) 92,31 %
28.04.2016 15:40 9,8 C 46 % 1015,9 hPa 0,0 l/m 7,5 km/h (2 Bft) S 182 1 min 0,000 mm 1,9 UV-I 708 W/m -1,3 C 9,0 C 9,7 km/h (2 Bft) 100,00 %
28.04.2016 15:41 9,8 C 47 % 1015,9 hPa 0,0 l/m 4,6 km/h (1 Bft) S-SO 161 1 min 0,000 mm 1,8 UV-I 573 W/m -1,0 C 9,8 C 8,0 km/h (2 Bft) 100,00 %
28.04.2016 15:42 9,7 C 48 % 1015,8 hPa 0,0 l/m 2,7 km/h (1 Bft) S 175 1 min 0,000 mm 2,1 UV-I 498 W/m -0,8 C 9,7 C 6,4 km/h (2 Bft) 100,00 %
28.04.2016 15:43 9,8 C 48 % 1015,8 hPa 0,0 l/m 3,4 km/h (1 Bft) SO 137 1 min 0,000 mm 2,2 UV-I 522 W/m -0,7 C 9,8 C 6,4 km/h (2 Bft) 100,00 %
28.04.2016 15:44 9,9 C 50 % 1015,8 hPa 0,0 l/m 4,4 km/h (1 Bft) S 178 1 min 0,000 mm 2,2 UV-I 744 W/m -0,0 C 9,9 C 6,4 km/h (2 Bft) 100,00 %
28.04.2016 15:45 10,1 C 50 % 1015,8 hPa 0,0 l/m 6,2 km/h (2 Bft) W-SW 254 1 min 0,000 mm 1,8 UV-I 642 W/m 0,2 C 10,1 C 12,9 km/h (3 Bft) 100,00 %
28.04.2016 15:46 10,2 C 49 % 1015,8 hPa 0,0 l/m 8,0 km/h (2 Bft) W-NW 283 1 min 0,000 mm 2,0 UV-I 408 W/m -0,0 C 9,1 C 14,5 km/h (3 Bft) 100,00 %
28.04.2016 15:47 10,1 C 45 % 1015,8 hPa 0,0 l/m 2,6 km/h (1 Bft) NW 312 1 min 0,000 mm 2,1 UV-I 408 W/m -1,3 C 10,1 C 4,8 km/h (1 Bft) 100,00 %
28.04.2016 15:48 10,0 C 48 % 1015,8 hPa 0,0 l/m 3,1 km/h (1 Bft) W 270 1 min 0,000 mm 2,1 UV-I 607 W/m -0,5 C 10,0 C 9,7 km/h (2 Bft) 100,00 %
28.04.2016 15:49 10,1 C 46 % 1015,8 hPa 0,0 l/m 7,4 km/h (2 Bft) W 279 1 min 0,000 mm 2,0 UV-I 587 W/m -1,0 C 9,4 C 9,7 km/h (2 Bft) 100,00 %
28.04.2016 15:50 10,0 C 46 % 1015,8 hPa 0,0 l/m 2,7 km/h (1 Bft) NW 304 1 min 0,000 mm 2,1 UV-I 645 W/m -1,1 C 10,0 C 4,8 km/h (1 Bft) 100,00 %
28.04.2016 15:51 10,1 C 46 % 1015,8 hPa 0,0 l/m 2,5 km/h (1 Bft) W 269 1 min 0,000 mm 2,2 UV-I 728 W/m -1,0 C 10,1 C 4,8 km/h (1 Bft) 100,00 %
28.04.2016 15:52 10,1 C 47 % 1015,8 hPa 0,0 l/m 3,2 km/h (1 Bft) W-SW 247 1 min 0,000 mm 2,2 UV-I 737 W/m -0,7 C 10,1 C 6,4 km/h (2 Bft) 91,30 %
28.04.2016 15:53 10,2 C 48 % 1015,8 hPa 0,0 l/m 3,2 km/h (1 Bft) W 265 1 min 0,000 mm 2,2 UV-I 732 W/m -0,3 C 10,2 C 4,8 km/h (1 Bft) 100,00 %
28.04.2016 15:54 10,3 C 48 % 1015,8 hPa 0,0 l/m 3,5 km/h (1 Bft) S 178 1 min 0,000 mm 2,1 UV-I 706 W/m -0,2 C 10,3 C 8,0 km/h (2 Bft) 100,00 %
28.04.2016 15:55 10,4 C 48 % 1015,8 hPa 0,0 l/m 10,9 km/h (2 Bft) S-SW 206 1 min 0,000 mm 2,1 UV-I 700 W/m -0,1 C 7,5 C 14,5 km/h (3 Bft) 100,00 %
28.04.2016 15:56 10,4 C 47 % 1015,8 hPa 0,0 l/m 8,5 km/h (2 Bft) S-SW 201 1 min 0,000 mm 2,1 UV-I 701 W/m -0,4 C 8,9 C 12,9 km/h (3 Bft) 100,00 %
28.04.2016 15:57 10,4 C 47 % 1015,8 hPa 0,0 l/m 13,1 km/h (3 Bft) S 186 1 min 0,000 mm 2,1 UV-I 678 W/m -0,4 C 6,4 C 14,5 km/h (3 Bft) 100,00 %
28.04.2016 15:58 10,3 C 46 % 1015,8 hPa 0,0 l/m 8,9 km/h (2 Bft) S 172 1 min 0,000 mm 2,1 UV-I 674 W/m -0,8 C 8,6 C 14,5 km/h (3 Bft) 95,65 %
28.04.2016 15:59 10,2 C 45 % 1015,8 hPa 0,0 l/m 3,2 km/h (1 Bft) S-SO 148 1 min 0,000 mm 2,1 UV-I 652 W/m -1,2 C 10,2 C 6,4 km/h (2 Bft) 100,00 %
28.04.2016 16:00 10,0 C 44 % 1015,7 hPa 0,0 l/m 2,8 km/h (1 Bft) S-SO 159 1 min 0,000 mm 2,0 UV-I 662 W/m -1,7 C 10,0 C 4,8 km/h (1 Bft) 100,00 %
28.04.2016 16:02 9,9 C 47 % 1015,8 hPa 0,0 l/m 2,7 km/h (1 Bft) W 267 2 min 0,279 mm 2,0 UV-I 682 W/m -0,9 C 9,9 C 6,4 km/h (2 Bft) 100,00 %
28.04.2016 16:03 10,0 C 49 % 1015,8 hPa 0,0 l/m 6,1 km/h (2 Bft) SW 221 1 min 0,000 mm 2,0 UV-I 684 W/m -0,2 C 10,0 C 9,7 km/h (2 Bft) 100,00 %
28.04.2016 16:04 10,2 C 50 % 1015,8 hPa 0,0 l/m 6,5 km/h (2 Bft) S-SW 194 1 min 0,000 mm 2,0 UV-I 679 W/m 0,3 C 10,2 C 8,0 km/h (2 Bft) 100,00 %
28.04.2016 16:05 10,3 C 48 % 1015,8 hPa 0,0 l/m 10,4 km/h (2 Bft) SW 229 1 min 0,000 mm 1,8 UV-I 659 W/m -0,2 C 7,7 C 12,9 km/h (3 Bft) 100,00 %
28.04.2016 16:06 10,3 C 49 % 1015,7 hPa 0,0 l/m 8,3 km/h (2 Bft) W-NW 296 1 min 0,000 mm 1,6 UV-I 659 W/m 0,1 C 9,0 C 12,9 km/h (3 Bft) 100,00 %
28.04.2016 16:07 10,3 C 48 % 1015,7 hPa 0,0 l/m 5,0 km/h (1 Bft) W-NW 296 1 min 0,000 mm 1,7 UV-I 641 W/m -0,2 C 10,3 C 6,4 km/h (2 Bft) 100,00 %
28.04.2016 16:08 10,3 C 46 % 1015,7 hPa 0,0 l/m 3,1 km/h (1 Bft) N-NW 327 1 min 0,000 mm 1,8 UV-I 441 W/m -0,8 C 10,3 C 4,8 km/h (1 Bft) 95,83 %
28.04.2016 16:09 10,3 C 50 % 1015,7 hPa 0,0 l/m 1,5 km/h (1 Bft) N 355 1 min 0,000 mm 1,9 UV-I 512 W/m 0,3 C 10,3 C 3,2 km/h (1 Bft) 100,00 %
28.04.2016 16:10 10,3 C 48 % 1015,7 hPa 0,0 l/m 2,4 km/h (1 Bft) W-SW 257 1 min 0,000 mm 1,9 UV-I 615 W/m -0,2 C 10,3 C 4,8 km/h (1 Bft) 100,00 %
28.04.2016 16:11 10,3 C 49 % 1015,7 hPa 0,0 l/m 5,1 km/h (1 Bft) W-NW 294 1 min 0,000 mm 1,8 UV-I 611 W/m 0,1 C 10,3 C 6,4 km/h (2 Bft) 100,00 %
28.04.2016 16:12 10,4 C 49 % 1015,7 hPa 0,0 l/m 4,7 km/h (1 Bft) W 262 1 min 0,000 mm 1,8 UV-I 580 W/m 0,2 C 10,4 C 6,4 km/h (2 Bft) 100,00 %
28.04.2016 16:13 10,5 C 49 % 1015,7 hPa 0,0 l/m 4,2 km/h (1 Bft) W-NW 285 1 min 0,000 mm 1,8 UV-I 574 W/m 0,2 C 10,5 C 6,4 km/h (2 Bft) 100,00 %
28.04.2016 16:14 10,4 C 46 % 1015,7 hPa 0,0 l/m 3,2 km/h (1 Bft) S 184 1 min 0,000 mm 1,8 UV-I 609 W/m -0,7 C 10,4 C 8,0 km/h (2 Bft) 100,00 %
28.04.2016 16:15 10,4 C 46 % 1015,8 hPa 0,0 l/m 6,0 km/h (2 Bft) S 187 1 min 0,000 mm 1,8 UV-I 580 W/m -0,7 C 10,4 C 9,7 km/h (2 Bft) 95,65 %
28.04.2016 16:16 10,3 C 43 % 1015,7 hPa 0,0 l/m 0,7 km/h (0 Bft) S 188 1 min 0,000 mm 1,7 UV-I 552 W/m -1,7 C 10,3 C 1,6 km/h (1 Bft) 93,33 %
28.04.2016 16:17 10,2 C 45 % 1015,7 hPa 0,0 l/m 3,7 km/h (1 Bft) W-SW 257 1 min 0,000 mm 1,7 UV-I 552 W/m -1,2 C 10,2 C 6,4 km/h (2 Bft) 100,00 %
28.04.2016 16:18 10,2 C 44 % 1015,7 hPa 0,0 l/m 7,4 km/h (2 Bft) S-SW 203 1 min 0,000 mm 1,9 UV-I 660 W/m -1,5 C 9,5 C 14,5 km/h (3 Bft) 95,83 %
28.04.2016 16:19 10,2 C 45 % 1015,7 hPa 0,0 l/m 8,9 km/h (2 Bft) S 189 1 min 0,000 mm 1,5 UV-I 682 W/m -1,2 C 8,5 C 12,9 km/h (3 Bft) 100,00 %
28.04.2016 16:20 10,2 C 45 % 1015,8 hPa 0,0 l/m 9,5 km/h (2 Bft) S-SW 192 1 min 0,000 mm 1,4 UV-I 682 W/m -1,2 C 8,1 C 12,9 km/h (3 Bft) 100,00 %
28.04.2016 16:21 10,1 C 44 % 1015,7 hPa 0,0 l/m 3,6 km/h (1 Bft) S-SW 196 1 min 0,000 mm 1,6 UV-I 682 W/m -1,6 C 10,1 C 6,4 km/h (2 Bft) 100,00 %
28.04.2016 16:22 10,1 C 45 % 1015,6 hPa 0,0 l/m 1,4 km/h (1 Bft) S-SW 196 1 min 0,000 mm 1,7 UV-I 656 W/m -1,3 C 10,1 C 3,2 km/h (1 Bft) 100,00 %
28.04.2016 16:23 10,2 C 45 % 1015,6 hPa 0,0 l/m 1,9 km/h (1 Bft) S-SO 167 1 min 0,000 mm 1,8 UV-I 638 W/m -1,2 C 10,2 C 4,8 km/h (1 Bft) 100,00 %
28.04.2016 16:24 10,2 C 45 % 1015,7 hPa 0,0 l/m 1,9 km/h (1 Bft) S-SO 165 1 min 0,000 mm 1,8 UV-I 632 W/m -1,2 C 10,2 C 4,8 km/h (1 Bft) 100,00 %
28.04.2016 16:25 10,3 C 45 % 1015,8 hPa 0,0 l/m 4,5 km/h (1 Bft) S 183 1 min 0,000 mm 1,7 UV-I 601 W/m -1,1 C 10,3 C 6,4 km/h (2 Bft) 100,00 %
28.04.2016 16:26 10,3 C 46 % 1015,7 hPa 0,0 l/m 5,6 km/h (1 Bft) S 180 1 min 0,000 mm 1,7 UV-I 617 W/m -0,8 C 10,3 C 6,4 km/h (2 Bft) 95,65 %
28.04.2016 16:27 10,4 C 47 % 1015,7 hPa 0,0 l/m 12,4 km/h (3 Bft) S-SW 200 1 min 0,000 mm 1,7 UV-I 582 W/m -0,4 C 6,8 C 17,7 km/h (3 Bft) 100,00 %
28.04.2016 16:28 10,6 C 46 % 1015,7 hPa 0,0 l/m 9,0 km/h (2 Bft) S-SO 161 1 min 0,000 mm 1,7 UV-I 585 W/m -0,5 C 8,8 C 16,1 km/h (3 Bft) 100,00 %
28.04.2016 16:29 10,6 C 47 % 1015,7 hPa 0,0 l/m 9,6 km/h (2 Bft) S 179 1 min 0,000 mm 1,7 UV-I 613 W/m -0,2 C 8,5 C 16,1 km/h (3 Bft) 96,30 %
28.04.2016 16:30 10,6 C 47 % 1015,7 hPa 0,0 l/m 6,2 km/h (2 Bft) S-SO 152 1 min 0,000 mm 1,7 UV-I 607 W/m -0,2 C 10,6 C 9,7 km/h (2 Bft) 100,00 %
28.04.2016 16:31 10,7 C 47 % 1015,7 hPa 0,0 l/m 8,5 km/h (2 Bft) S-SW 192 1 min 0,000 mm 1,7 UV-I 602 W/m -0,1 C 9,3 C 11,3 km/h (2 Bft) 100,00 %
28.04.2016 16:32 10,7 C 44 % 1015,7 hPa 0,0 l/m 9,3 km/h (2 Bft) S 171 1 min 0,000 mm 1,6 UV-I 594 W/m -1,0 C 8,8 C 12,9 km/h (3 Bft) 95,65 %
28.04.2016 16:33 10,5 C 43 % 1015,7 hPa 0,0 l/m 8,4 km/h (2 Bft) S-SO 160 1 min 0,000 mm 1,6 UV-I 586 W/m -1,5 C 9,1 C 12,9 km/h (3 Bft) 100,00 %
28.04.2016 16:34 10,4 C 46 % 1015,8 hPa 0,0 l/m 13,0 km/h (3 Bft) S 173 1 min 0,000 mm 1,6 UV-I 581 W/m -0,7 C 6,5 C 16,1 km/h (3 Bft) 100,00 %
28.04.2016 16:35 10,3 C 42 % 1015,8 hPa 0,0 l/m 4,0 km/h (1 Bft) S-SO 149 1 min 0,000 mm 1,6 UV-I 577 W/m -2,0 C 10,3 C 8,0 km/h (2 Bft) 96,30 %
28.04.2016 16:36 10,4 C 44 % 1015,7 hPa 0,0 l/m 2,8 km/h (1 Bft) S-SO 148 1 min 0,000 mm 1,6 UV-I 570 W/m -1,3 C 10,4 C 4,8 km/h (1 Bft) 100,00 %
28.04.2016 16:37 10,4 C 44 % 1015,7 hPa 0,0 l/m 1,6 km/h (1 Bft) S-SO 148 1 min 0,000 mm 1,5 UV-I 566 W/m -1,3 C 10,4 C 4,8 km/h (1 Bft) 95,83 %
28.04.2016 16:38 10,4 C 45 % 1015,7 hPa 0,0 l/m 5,2 km/h (1 Bft) W-SW 245 1 min 0,000 mm 1,5 UV-I 560 W/m -1,0 C 10,4 C 8,0 km/h (2 Bft) 100,00 %
28.04.2016 16:39 10,4 C 46 % 1015,7 hPa 0,0 l/m 6,0 km/h (2 Bft) SW 232 1 min 0,000 mm 1,5 UV-I 554 W/m -0,7 C 10,4 C 9,7 km/h (2 Bft) 95,83 %
28.04.2016 16:40 10,6 C 45 % 1015,7 hPa 0,0 l/m 5,7 km/h (1 Bft) W-SW 246 1 min 0,000 mm 1,5 UV-I 555 W/m -0,8 C 10,6 C 8,0 km/h (2 Bft) 100,00 %
28.04.2016 16:41 10,6 C 43 % 1015,7 hPa 0,0 l/m 4,3 km/h (1 Bft) W-SW 246 1 min 0,000 mm 1,5 UV-I 550 W/m -1,4 C 10,6 C 6,4 km/h (2 Bft) 96,30 %
28.04.2016 16:42 10,6 C 44 % 1015,7 hPa 0,0 l/m 5,4 km/h (1 Bft) W-SW 250 1 min 0,000 mm 1,5 UV-I 550 W/m -1,1 C 10,6 C 8,0 km/h (2 Bft) 100,00 %
28.04.2016 16:43 10,5 C 43 % 1015,7 hPa 0,0 l/m 2,7 km/h (1 Bft) W-SW 250 1 min 0,000 mm 1,5 UV-I 548 W/m -1,5 C 10,5 C 4,8 km/h (1 Bft) 95,83 %
28.04.2016 16:44 10,4 C 43 % 1015,7 hPa 0,0 l/m 0,7 km/h (0 Bft) W-SW 250 1 min 0,000 mm 1,5 UV-I 548 W/m -1,6 C 10,4 C 1,6 km/h (1 Bft) 96,15 %
28.04.2016 16:45 10,4 C 42 % 1015,6 hPa 0,0 l/m 2,1 km/h (1 Bft) W 261 1 min 0,000 mm 1,4 UV-I 545 W/m -1,9 C 10,4 C 3,2 km/h (1 Bft) 100,00 %
28.04.2016 16:46 10,3 C 45 % 1015,6 hPa 0,0 l/m 1,3 km/h (1 Bft) W 261 1 min 0,000 mm 1,4 UV-I 540 W/m -1,1 C 10,3 C 3,2 km/h (1 Bft) 100,00 %
28.04.2016 16:47 10,3 C 44 % 1015,6 hPa 0,0 l/m 2,7 km/h (1 Bft) S 169 1 min 0,000 mm 1,4 UV-I 536 W/m -1,4 C 10,3 C 8,0 km/h (2 Bft) 100,00 %
28.04.2016 16:48 10,4 C 48 % 1015,6 hPa 0,0 l/m 4,0 km/h (1 Bft) S-SO 166 1 min 0,000 mm 1,4 UV-I 534 W/m -0,1 C 10,4 C 9,7 km/h (2 Bft) 100,00 %
28.04.2016 16:49 10,6 C 46 % 1015,6 hPa 0,0 l/m 7,6 km/h (2 Bft) W-SW 241 1 min 0,000 mm 1,4 UV-I 531 W/m -0,5 C 9,8 C 12,9 km/h (3 Bft) 95,65 %
28.04.2016 16:50 10,6 C 46 % 1015,7 hPa 0,0 l/m 6,4 km/h (2 Bft) SW 218 1 min 0,000 mm 1,4 UV-I 530 W/m -0,5 C 10,6 C 12,9 km/h (3 Bft) 95,83 %
28.04.2016 16:51 10,7 C 47 % 1015,6 hPa 0,0 l/m 10,3 km/h (2 Bft) W-SW 257 1 min 0,000 mm 1,4 UV-I 525 W/m -0,1 C 8,2 C 14,5 km/h (3 Bft) 100,00 %
28.04.2016 16:52 10,7 C 42 % 1015,7 hPa 0,0 l/m 7,5 km/h (2 Bft) W-SW 249 1 min 0,000 mm 1,3 UV-I 521 W/m -1,7 C 9,9 C 12,9 km/h (3 Bft) 95,83 %
28.04.2016 16:53 10,7 C 45 % 1015,6 hPa 0,0 l/m 6,6 km/h (2 Bft) SW 232 1 min 0,000 mm 1,3 UV-I 517 W/m -0,7 C 10,6 C 11,3 km/h (2 Bft) 100,00 %
28.04.2016 16:54 10,6 C 43 % 1015,6 hPa 0,0 l/m 6,1 km/h (2 Bft) W 261 1 min 0,000 mm 1,3 UV-I 509 W/m -1,4 C 10,6 C 8,0 km/h (2 Bft) 100,00 %
28.04.2016 16:55 10,6 C 44 % 1015,6 hPa 0,0 l/m 6,0 km/h (2 Bft) SW 230 1 min 0,000 mm 1,3 UV-I 476 W/m -1,1 C 10,6 C 9,7 km/h (2 Bft) 95,65 %
28.04.2016 16:56 10,7 C 45 % 1015,6 hPa 0,0 l/m 4,3 km/h (1 Bft) W-SW 237 1 min 0,000 mm 1,3 UV-I 473 W/m -0,7 C 10,7 C 8,0 km/h (2 Bft) 100,00 %
28.04.2016 16:57 10,7 C 46 % 1015,5 hPa 0,0 l/m 8,9 km/h (2 Bft) W-SW 245 1 min 0,000 mm 1,3 UV-I 502 W/m -0,4 C 9,0 C 12,9 km/h (3 Bft) 100,00 %
28.04.2016 16:58 10,8 C 45 % 1015,5 hPa 0,0 l/m 7,5 km/h (2 Bft) S 188 1 min 0,000 mm 1,3 UV-I 498 W/m -0,6 C 10,0 C 12,9 km/h (3 Bft) 100,00 %
28.04.2016 16:59 10,7 C 43 % 1015,6 hPa 0,0 l/m 9,7 km/h (2 Bft) S 172 1 min 0,000 mm 1,3 UV-I 494 W/m -1,4 C 8,5 C 16,1 km/h (3 Bft) 100,00 %
28.04.2016 17:00 10,6 C 42 % 1015,5 hPa 0,0 l/m 3,0 km/h (1 Bft) SO 141 1 min 0,000 mm 1,3 UV-I 496 W/m -1,8 C 10,6 C 6,4 km/h (2 Bft) 95,83 %
28.04.2016 17:02 10,6 C 44 % 1015,5 hPa 0,0 l/m 2,3 km/h (1 Bft) S-SW 208 2 min 0,305 mm 1,2 UV-I 491 W/m -1,1 C 10,6 C 6,4 km/h (2 Bft) 97,87 %
28.04.2016 17:03 10,6 C 44 % 1015,5 hPa 0,0 l/m 2,1 km/h (1 Bft) S-SW 208 1 min 0,000 mm 1,2 UV-I 485 W/m -1,1 C 10,6 C 3,2 km/h (1 Bft) 95,83 %
28.04.2016 17:04 10,5 C 43 % 1015,5 hPa 0,0 l/m 0,3 km/h (0 Bft) S-SW 208 1 min 0,000 mm 1,2 UV-I 481 W/m -1,5 C 10,5 C 1,6 km/h (1 Bft) 95,65 %
28.04.2016 17:05 10,4 C 45 % 1015,5 hPa 0,0 l/m 1,9 km/h (1 Bft) SW 220 1 min 0,000 mm 1,2 UV-I 478 W/m -1,0 C 10,4 C 3,2 km/h (1 Bft) 95,83 %
28.04.2016 17:06 10,5 C 46 % 1015,5 hPa 0,0 l/m 2,0 km/h (1 Bft) SW 220 1 min 0,000 mm 1,2 UV-I 474 W/m -0,6 C 10,5 C 3,2 km/h (1 Bft) 100,00 %
28.04.2016 17:07 10,5 C 42 % 1015,5 hPa 0,0 l/m 0,9 km/h (0 Bft) SW 220 1 min 0,000 mm 1,2 UV-I 470 W/m -1,9 C 10,5 C 3,2 km/h (1 Bft) 91,67 %
28.04.2016 17:08 10,5 C 41 % 1015,5 hPa 0,0 l/m 1,0 km/h (0 Bft) SW 220 1 min 0,000 mm 1,1 UV-I 467 W/m -2,2 C 10,5 C 3,2 km/h (1 Bft) 95,65 %
28.04.2016 17:09 10,5 C 46 % 1015,5 hPa 0,0 l/m 0,4 km/h (0 Bft) SW 220 1 min 0,000 mm 1,1 UV-I 462 W/m -0,6 C 10,5 C 1,6 km/h (1 Bft) 96,30 %
28.04.2016 17:10 10,5 C 45 % 1015,5 hPa 0,0 l/m 1,1 km/h (1 Bft) S 174 1 min 0,000 mm 1,1 UV-I 460 W/m -0,9 C 10,5 C 3,2 km/h (1 Bft) 91,30 %
28.04.2016 17:11 10,5 C 45 % 1015,5 hPa 0,0 l/m 3,4 km/h (1 Bft) S-SO 151 1 min 0,000 mm 1,1 UV-I 455 W/m -0,9 C 10,5 C 6,4 km/h (2 Bft) 91,67 %
28.04.2016 17:12 10,6 C 45 % 1015,5 hPa 0,0 l/m 4,6 km/h (1 Bft) S-SO 167 1 min 0,000 mm 1,1 UV-I 454 W/m -0,8 C 10,6 C 9,7 km/h (2 Bft) 95,65 %
28.04.2016 17:13 10,6 C 44 % 1015,5 hPa 0,0 l/m 8,4 km/h (2 Bft) S 169 1 min 0,000 mm 1,1 UV-I 452 W/m -1,1 C 9,2 C 12,9 km/h (3 Bft) 100,00 %
28.04.2016 17:14 10,7 C 46 % 1015,5 hPa 0,0 l/m 8,2 km/h (2 Bft) S 169 1 min 0,000 mm 1,1 UV-I 450 W/m -0,4 C 9,5 C 14,5 km/h (3 Bft) 95,65 %
28.04.2016 17:15 10,7 C 42 % 1015,5 hPa 0,0 l/m 8,8 km/h (2 Bft) S-SO 161 1 min 0,000 mm 1,0 UV-I 447 W/m -1,7 C 9,1 C 11,3 km/h (2 Bft) 100,00 %
28.04.2016 17:16 10,7 C 42 % 1015,5 hPa 0,0 l/m 6,9 km/h (2 Bft) SW 221 1 min 0,000 mm 1,0 UV-I 444 W/m -1,7 C 10,4 C 11,3 km/h (2 Bft) 92,31 %
28.04.2016 17:17 10,6 C 44 % 1015,5 hPa 0,0 l/m 2,4 km/h (1 Bft) W 278 1 min 0,000 mm 1,0 UV-I 441 W/m -1,1 C 10,6 C 4,8 km/h (1 Bft) 100,00 %
28.04.2016 17:18 10,6 C 42 % 1015,5 hPa 0,0 l/m 4,3 km/h (1 Bft) W-NW 290 1 min 0,000 mm 1,0 UV-I 438 W/m -1,8 C 10,6 C 6,4 km/h (2 Bft) 95,65 %
28.04.2016 17:19 10,6 C 41 % 1015,5 hPa 0,0 l/m 2,8 km/h (1 Bft) W 265 1 min 0,000 mm 1,0 UV-I 434 W/m -2,1 C 10,6 C 4,8 km/h (1 Bft) 100,00 %
28.04.2016 17:20 10,6 C 41 % 1015,5 hPa 0,0 l/m 5,8 km/h (2 Bft) W 278 1 min 0,000 mm 1,0 UV-I 432 W/m -2,1 C 10,6 C 9,7 km/h (2 Bft) 91,30 %
28.04.2016 17:21 10,6 C 41 % 1015,5 hPa 0,0 l/m 4,7 km/h (1 Bft) W-SW 240 1 min 0,000 mm 1,0 UV-I 430 W/m -2,1 C 10,6 C 6,4 km/h (2 Bft) 95,83 %
28.04.2016 17:22 10,6 C 41 % 1015,5 hPa 0,0 l/m 1,7 km/h (1 Bft) W-SW 240 1 min 0,000 mm 0,9 UV-I 426 W/m -2,1 C 10,6 C 4,8 km/h (1 Bft) 100,00 %
28.04.2016 17:23 10,5 C 41 % 1015,5 hPa 0,0 l/m 0,4 km/h (0 Bft) W-SW 240 1 min 0,000 mm 0,9 UV-I 422 W/m -2,2 C 10,5 C 1,6 km/h (1 Bft) 91,67 %
28.04.2016 17:24 10,6 C 42 % 1015,5 hPa 0,0 l/m 1,5 km/h (1 Bft) NW 307 1 min 0,000 mm 0,9 UV-I 418 W/m -1,8 C 10,6 C 4,8 km/h (1 Bft) 95,83 %
28.04.2016 17:25 10,7 C 43 % 1015,6 hPa 0,0 l/m 3,4 km/h (1 Bft) W 259 1 min 0,000 mm 0,9 UV-I 415 W/m -1,4 C 10,7 C 4,8 km/h (1 Bft) 95,65 %
28.04.2016 17:26 10,8 C 45 % 1015,6 hPa 0,0 l/m 5,6 km/h (1 Bft) S-SW 192 1 min 0,000 mm 0,9 UV-I 411 W/m -0,6 C 10,8 C 8,0 km/h (2 Bft) 100,00 %
28.04.2016 17:27 10,8 C 44 % 1015,6 hPa 0,0 l/m 5,6 km/h (1 Bft) S-SO 151 1 min 0,000 mm 0,9 UV-I 410 W/m -1,0 C 10,8 C 9,7 km/h (2 Bft) 95,65 %
28.04.2016 17:28 10,9 C 41 % 1015,6 hPa 0,0 l/m 5,8 km/h (2 Bft) S 177 1 min 0,000 mm 0,9 UV-I 407 W/m -1,8 C 10,9 C 9,7 km/h (2 Bft) 91,67 %
28.04.2016 17:29 10,8 C 40 % 1015,6 hPa 0,0 l/m 5,2 km/h (1 Bft) S-SO 167 1 min 0,000 mm 0,9 UV-I 401 W/m -2,2 C 10,8 C 9,7 km/h (2 Bft) 100,00 %
28.04.2016 17:30 10,8 C 41 % 1015,6 hPa 0,0 l/m 7,4 km/h (2 Bft) S-SO 154 1 min 0,000 mm 0,8 UV-I 399 W/m -1,9 C 10,1 C 11,3 km/h (2 Bft) 96,30 %
28.04.2016 17:31 10,7 C 41 % 1015,6 hPa 0,0 l/m 7,8 km/h (2 Bft) S-SW 200 1 min 0,000 mm 0,8 UV-I 395 W/m -2,0 C 9,7 C 14,5 km/h (3 Bft) 95,65 %
28.04.2016 17:32 10,7 C 42 % 1015,6 hPa 0,0 l/m 4,4 km/h (1 Bft) S 173 1 min 0,000 mm 0,8 UV-I 391 W/m -1,7 C 10,7 C 9,7 km/h (2 Bft) 95,83 %
28.04.2016 17:33 10,7 C 41 % 1015,6 hPa 0,0 l/m 6,6 km/h (2 Bft) S-SW 209 1 min 0,000 mm 0,8 UV-I 388 W/m -2,0 C 10,6 C 9,7 km/h (2 Bft) 95,65 %
28.04.2016 17:34 10,8 C 44 % 1015,6 hPa 0,0 l/m 4,4 km/h (1 Bft) S-SW 200 1 min 0,000 mm 0,8 UV-I 385 W/m -1,0 C 10,8 C 6,4 km/h (2 Bft) 91,67 %
28.04.2016 17:35 10,8 C 43 % 1015,6 hPa 0,0 l/m 6,3 km/h (2 Bft) S-SW 212 1 min 0,000 mm 0,8 UV-I 383 W/m -1,3 C 10,8 C 14,5 km/h (3 Bft) 95,65 %
28.04.2016 17:36 10,8 C 41 % 1015,6 hPa 0,0 l/m 7,0 km/h (2 Bft) S-SW 206 1 min 0,000 mm 0,8 UV-I 380 W/m -1,9 C 10,4 C 12,9 km/h (3 Bft) 95,83 %
28.04.2016 17:37 10,8 C 39 % 1015,6 hPa 0,0 l/m 6,2 km/h (2 Bft) W-NW 302 1 min 0,000 mm 0,8 UV-I 381 W/m -2,6 C 10,8 C 9,7 km/h (2 Bft) 100,00 %
28.04.2016 17:38 10,8 C 44 % 1015,6 hPa 0,0 l/m 11,9 km/h (2 Bft) SW 233 1 min 0,000 mm 0,8 UV-I 380 W/m -1,0 C 7,5 C 14,5 km/h (3 Bft) 100,00 %
28.04.2016 17:39 10,9 C 41 % 1015,6 hPa 0,0 l/m 8,8 km/h (2 Bft) S 186 1 min 0,000 mm 0,7 UV-I 376 W/m -1,8 C 9,3 C 11,3 km/h (2 Bft) 96,15 %
28.04.2016 17:40 10,9 C 44 % 1015,6 hPa 0,0 l/m 6,5 km/h (2 Bft) SW 216 1 min 0,000 mm 0,7 UV-I 372 W/m -0,9 C 10,9 C 8,0 km/h (2 Bft) 100,00 %
28.04.2016 17:41 10,8 C 42 % 1015,6 hPa 0,0 l/m 11,3 km/h (2 Bft) W-SW 245 1 min 0,000 mm 0,7 UV-I 372 W/m -1,6 C 7,8 C 14,5 km/h (3 Bft) 100,00 %
28.04.2016 17:42 10,8 C 41 % 1015,6 hPa 0,0 l/m 6,8 km/h (2 Bft) W-SW 248 1 min 0,000 mm 0,7 UV-I 368 W/m -1,9 C 10,5 C 11,3 km/h (2 Bft) 100,00 %
28.04.2016 17:43 10,9 C 44 % 1015,7 hPa 0,0 l/m 9,8 km/h (2 Bft) W 265 1 min 0,000 mm 0,7 UV-I 364 W/m -0,9 C 8,7 C 12,9 km/h (3 Bft) 100,00 %
28.04.2016 17:44 10,8 C 41 % 1015,7 hPa 0,0 l/m 8,5 km/h (2 Bft) W-SW 244 1 min 0,000 mm 0,7 UV-I 332 W/m -1,9 C 9,4 C 12,9 km/h (3 Bft) 100,00 %
28.04.2016 17:45 10,8 C 44 % 1015,7 hPa 0,0 l/m 3,1 km/h (1 Bft) W-SW 244 1 min 0,000 mm 0,6 UV-I 309 W/m -1,0 C 10,8 C 4,8 km/h (1 Bft) 95,83 %
28.04.2016 17:46 10,7 C 46 % 1015,7 hPa 0,0 l/m 1,3 km/h (1 Bft) W-SW 244 0 min 0,000 mm 0,5 UV-I 112 W/m -0,4 C 10,7 C 3,2 km/h (1 Bft) 100,00 %
28.04.2016 17:47 10,6 C 41 % 1015,7 hPa 0,0 l/m 1,7 km/h (1 Bft) W-SW 254 0 min 0,000 mm 0,5 UV-I 74 W/m -2,1 C 10,6 C 3,2 km/h (1 Bft) 95,83 %
28.04.2016 17:48 10,5 C 45 % 1015,7 hPa 0,0 l/m 6,4 km/h (2 Bft) W-SW 254 0 min 0,000 mm 0,5 UV-I 89 W/m -0,9 C 10,5 C 12,9 km/h (3 Bft) 95,65 %
28.04.2016 17:49 10,4 C 43 % 1015,7 hPa 0,0 l/m 5,9 km/h (2 Bft) W-SW 255 0 min 0,000 mm 0,6 UV-I 121 W/m -1,6 C 10,4 C 9,7 km/h (2 Bft) 100,00 %
28.04.2016 17:50 10,3 C 42 % 1015,7 hPa 0,0 l/m 3,1 km/h (1 Bft) S-SW 197 1 min 0,000 mm 0,6 UV-I 281 W/m -2,0 C 10,3 C 6,4 km/h (2 Bft) 100,00 %
28.04.2016 17:51 10,4 C 45 % 1015,7 hPa 0,0 l/m 6,8 km/h (2 Bft) S-SW 204 1 min 0,000 mm 0,6 UV-I 348 W/m -1,0 C 10,1 C 8,0 km/h (2 Bft) 100,00 %
28.04.2016 17:52 10,4 C 44 % 1015,7 hPa 0,0 l/m 7,8 km/h (2 Bft) W 273 1 min 0,000 mm 0,6 UV-I 348 W/m -1,3 C 9,4 C 12,9 km/h (3 Bft) 95,65 %
28.04.2016 17:53 10,6 C 43 % 1015,7 hPa 0,0 l/m 8,4 km/h (2 Bft) W 271 1 min 0,000 mm 0,6 UV-I 345 W/m -1,4 C 9,2 C 9,7 km/h (2 Bft) 100,00 %
28.04.2016 17:54 10,7 C 43 % 1015,7 hPa 0,0 l/m 9,7 km/h (2 Bft) S-SW 212 1 min 0,000 mm 0,6 UV-I 341 W/m -1,4 C 8,5 C 12,9 km/h (3 Bft) 95,65 %
28.04.2016 17:55 10,8 C 45 % 1015,8 hPa 0,0 l/m 12,2 km/h (2 Bft) W-SW 255 1 min 0,000 mm 0,6 UV-I 335 W/m -0,6 C 7,3 C 14,5 km/h (3 Bft) 100,00 %
28.04.2016 17:56 10,8 C 41 % 1015,7 hPa 0,0 l/m 7,0 km/h (2 Bft) SW 234 1 min 0,000 mm 0,6 UV-I 331 W/m -1,9 C 10,4 C 9,7 km/h (2 Bft) 100,00 %
28.04.2016 17:57 10,8 C 42 % 1015,8 hPa 0,0 l/m 8,6 km/h (2 Bft) S-SW 194 1 min 0,000 mm 0,6 UV-I 329 W/m -1,6 C 9,3 C 11,3 km/h (2 Bft) 100,00 %
28.04.2016 17:58 10,8 C 42 % 1015,8 hPa 0,0 l/m 6,2 km/h (2 Bft) S-SW 206 1 min 0,000 mm 0,6 UV-I 329 W/m -1,6 C 10,8 C 9,7 km/h (2 Bft) 100,00 %
28.04.2016 17:59 10,7 C 42 % 1015,7 hPa 0,0 l/m 5,7 km/h (1 Bft) SW 232 1 min 0,000 mm 0,5 UV-I 326 W/m -1,7 C 10,7 C 8,0 km/h (2 Bft) 100,00 %
28.04.2016 18:00 10,7 C 40 % 1015,7 hPa 0,0 l/m 9,3 km/h (2 Bft) W 280 1 min 0,000 mm 0,5 UV-I 318 W/m -2,3 C 8,8 C 14,5 km/h (3 Bft) 96,15 %
28.04.2016 18:02 10,8 C 43 % 1015,7 hPa 0,0 l/m 7,1 km/h (2 Bft) SW 221 2 min 0,203 mm 0,5 UV-I 321 W/m -1,3 C 10,3 C 11,3 km/h (2 Bft) 100,00 %
28.04.2016 18:03 10,8 C 41 % 1015,8 hPa 0,0 l/m 7,4 km/h (2 Bft) S-SW 199 1 min 0,000 mm 0,5 UV-I 320 W/m -1,9 C 10,1 C 9,7 km/h (2 Bft) 95,65 %
28.04.2016 18:04 10,8 C 42 % 1015,8 hPa 0,0 l/m 7,7 km/h (2 Bft) W-SW 242 1 min 0,000 mm 0,5 UV-I 316 W/m -1,6 C 9,9 C 11,3 km/h (2 Bft) 100,00 %
28.04.2016 18:05 10,7 C 41 % 1015,8 hPa 0,0 l/m 7,5 km/h (2 Bft) SW 225 1 min 0,000 mm 0,5 UV-I 314 W/m -2,0 C 9,9 C 11,3 km/h (2 Bft) 95,65 %
28.04.2016 18:06 10,7 C 42 % 1015,7 hPa 0,0 l/m 6,2 km/h (2 Bft) SW 221 1 min 0,000 mm 0,5 UV-I 306 W/m -1,7 C 10,7 C 9,7 km/h (2 Bft) 100,00 %
28.04.2016 18:07 10,7 C 39 % 1015,7 hPa 0,0 l/m 4,1 km/h (1 Bft) S-SW 213 1 min 0,000 mm 0,5 UV-I 300 W/m -2,7 C 10,7 C 4,8 km/h (1 Bft) 95,65 %
28.04.2016 18:08 10,7 C 42 % 1015,7 hPa 0,0 l/m 5,7 km/h (1 Bft) S 190 1 min 0,000 mm 0,5 UV-I 290 W/m -1,7 C 10,7 C 9,7 km/h (2 Bft) 100,00 %
28.04.2016 18:09 10,7 C 42 % 1015,8 hPa 0,0 l/m 7,6 km/h (2 Bft) S-SW 211 1 min 0,000 mm 0,5 UV-I 288 W/m -1,7 C 9,9 C 11,3 km/h (2 Bft) 100,00 %
28.04.2016 18:10 10,7 C 44 % 1015,8 hPa 0,0 l/m 7,7 km/h (2 Bft) W-SW 253 1 min 0,000 mm 0,1 UV-I 285 W/m -1,0 C 9,8 C 9,7 km/h (2 Bft) 100,00 %
28.04.2016 18:11 10,7 C 42 % 1015,8 hPa 0,0 l/m 5,3 km/h (1 Bft) SW 232 1 min 0,000 mm 0,0 UV-I 285 W/m -1,7 C 10,7 C 8,0 km/h (2 Bft) 100,00 %
28.04.2016 18:12 10,7 C 42 % 1015,8 hPa 0,0 l/m 6,9 km/h (2 Bft) W-SW 244 1 min 0,000 mm 0,0 UV-I 281 W/m -1,7 C 10,4 C 9,7 km/h (2 Bft) 100,00 %
28.04.2016 18:13 10,7 C 43 % 1015,8 hPa 0,0 l/m 5,5 km/h (1 Bft) SW 214 1 min 0,000 mm 0,0 UV-I 272 W/m -1,4 C 10,7 C 9,7 km/h (2 Bft) 96,55 %
28.04.2016 18:14 10,7 C 41 % 1015,8 hPa 0,0 l/m 5,8 km/h (2 Bft) S 177 1 min 0,000 mm 0,0 UV-I 267 W/m -2,0 C 10,7 C 11,3 km/h (2 Bft) 98,20 %
28.04.2016 18:15 10,7 C 41 % 1015,8 hPa 0,0 l/m 5,3 km/h (1 Bft) S 175 1 min 0,000 mm 0,0 UV-I 265 W/m -2,0 C 10,7 C 11,3 km/h (2 Bft) 100,00 %
28.04.2016 18:16 10,7 C 42 % 1015,8 hPa 0,0 l/m 7,1 km/h (2 Bft) S 185 1 min 0,000 mm 0,0 UV-I 264 W/m -1,7 C 10,2 C 9,7 km/h (2 Bft) 100,00 %
28.04.2016 18:17 10,6 C 41 % 1015,8 hPa 0,0 l/m 6,0 km/h (2 Bft) S-SW 211 1 min 0,000 mm 0,0 UV-I 238 W/m -2,1 C 10,6 C 9,7 km/h (2 Bft) 100,00 %
28.04.2016 18:18 10,5 C 42 % 1015,8 hPa 0,0 l/m 4,8 km/h (1 Bft) S 176 0 min 0,000 mm 0,0 UV-I 133 W/m -1,9 C 10,5 C 8,0 km/h (2 Bft) 100,00 %
28.04.2016 18:19 10,4 C 41 % 1015,7 hPa 0,0 l/m 4,7 km/h (1 Bft) S-SW 192 0 min 0,000 mm 0,0 UV-I 95 W/m -2,3 C 10,4 C 8,0 km/h (2 Bft) 100,00 %
28.04.2016 18:20 10,3 C 42 % 1015,7 hPa 0,0 l/m 6,1 km/h (2 Bft) SW 234 0 min 0,000 mm 0,0 UV-I 105 W/m -2,0 C 10,3 C 9,7 km/h (2 Bft) 100,00 %
28.04.2016 18:21 10,3 C 41 % 1015,7 hPa 0,0 l/m 6,6 km/h (2 Bft) SW 219 1 min 0,000 mm 0,0 UV-I 226 W/m -2,4 C 10,2 C 11,3 km/h (2 Bft) 100,00 %
28.04.2016 18:22 10,3 C 44 % 1015,7 hPa 0,0 l/m 8,2 km/h (2 Bft) S 191 1 min 0,000 mm 0,0 UV-I 238 W/m -1,4 C 9,0 C 14,5 km/h (3 Bft) 100,00 %
28.04.2016 18:23 10,3 C 41 % 1015,8 hPa 0,0 l/m 9,9 km/h (2 Bft) S 178 1 min 0,000 mm 0,0 UV-I 174 W/m -2,4 C 8,0 C 12,9 km/h (3 Bft) 100,00 %
28.04.2016 18:24 10,3 C 41 % 1015,8 hPa 0,0 l/m 6,7 km/h (2 Bft) SW 226 1 min 0,000 mm 0,0 UV-I 205 W/m -2,4 C 10,1 C 9,7 km/h (2 Bft) 95,65 %
28.04.2016 18:25 10,3 C 43 % 1015,8 hPa 0,0 l/m 4,3 km/h (1 Bft) W-SW 248 1 min 0,000 mm 0,0 UV-I 163 W/m -1,7 C 10,3 C 4,8 km/h (1 Bft) 100,00 %
28.04.2016 18:26 10,3 C 43 % 1015,7 hPa 0,0 l/m 6,9 km/h (2 Bft) W-SW 254 1 min 0,000 mm 0,0 UV-I 206 W/m -1,7 C 9,9 C 11,3 km/h (2 Bft) 100,00 %
28.04.2016 18:27 10,3 C 42 % 1015,7 hPa 0,0 l/m 5,9 km/h (2 Bft) S-SW 197 1 min 0,000 mm 0,0 UV-I 230 W/m -2,0 C 10,3 C 8,0 km/h (2 Bft) 100,00 %
28.04.2016 18:28 10,4 C 42 % 1015,7 hPa 0,0 l/m 7,8 km/h (2 Bft) SW 228 1 min 0,000 mm 0,0 UV-I 228 W/m -1,9 C 9,4 C 9,7 km/h (2 Bft) 100,00 %
28.04.2016 18:29 10,4 C 42 % 1015,8 hPa 0,0 l/m 6,8 km/h (2 Bft) SW 227 1 min 0,000 mm 0,0 UV-I 224 W/m -1,9 C 10,1 C 9,7 km/h (2 Bft) 100,00 %
28.04.2016 18:30 10,4 C 42 % 1015,8 hPa 0,0 l/m 6,2 km/h (2 Bft) W-SW 238 1 min 0,000 mm 0,0 UV-I 222 W/m -1,9 C 10,4 C 8,0 km/h (2 Bft) 95,65 %
28.04.2016 18:31 10,4 C 42 % 1015,8 hPa 0,0 l/m 7,4 km/h (2 Bft) SW 232 1 min 0,000 mm 0,0 UV-I 219 W/m -1,9 C 9,7 C 9,7 km/h (2 Bft) 100,00 %
28.04.2016 18:32 10,4 C 45 % 1015,8 hPa 0,0 l/m 5,8 km/h (2 Bft) SW 234 1 min 0,000 mm 0,0 UV-I 218 W/m -1,0 C 10,4 C 8,0 km/h (2 Bft) 95,65 %
28.04.2016 18:33 10,5 C 42 % 1015,8 hPa 0,0 l/m 6,7 km/h (2 Bft) W-SW 238 1 min 0,000 mm 0,0 UV-I 213 W/m -1,9 C 10,3 C 9,7 km/h (2 Bft) 95,83 %
28.04.2016 18:34 10,6 C 43 % 1015,7 hPa 0,0 l/m 3,8 km/h (1 Bft) W-SW 238 1 min 0,000 mm 0,0 UV-I 208 W/m -1,4 C 10,6 C 6,4 km/h (2 Bft) 91,30 %
28.04.2016 18:35 10,6 C 44 % 1015,8 hPa 0,0 l/m 5,0 km/h (1 Bft) W-SW 241 1 min 0,000 mm 0,0 UV-I 205 W/m -1,1 C 10,6 C 9,7 km/h (2 Bft) 100,00 %
28.04.2016 18:36 10,6 C 42 % 1015,8 hPa 0,0 l/m 7,2 km/h (2 Bft) SW 223 1 min 0,000 mm 0,0 UV-I 202 W/m -1,8 C 10,0 C 9,7 km/h (2 Bft) 91,30 %
28.04.2016 18:37 10,6 C 41 % 1015,8 hPa 0,0 l/m 3,1 km/h (1 Bft) SW 223 1 min 0,000 mm 0,0 UV-I 198 W/m -2,1 C 10,6 C 4,8 km/h (1 Bft) 100,00 %
28.04.2016 18:38 10,5 C 40 % 1015,8 hPa 0,0 l/m 2,8 km/h (1 Bft) SW 223 1 min 0,000 mm 0,0 UV-I 193 W/m -2,5 C 10,5 C 3,2 km/h (1 Bft) 100,00 %
28.04.2016 18:39 10,4 C 40 % 1015,8 hPa 0,0 l/m 2,3 km/h (1 Bft) S-SW 193 1 min 0,000 mm 0,0 UV-I 190 W/m -2,6 C 10,4 C 6,4 km/h (2 Bft) 95,65 %
28.04.2016 18:40 10,4 C 40 % 1015,8 hPa 0,0 l/m 2,2 km/h (1 Bft) S-SW 192 1 min 0,000 mm 0,0 UV-I 188 W/m -2,6 C 10,4 C 4,8 km/h (1 Bft) 100,00 %
28.04.2016 18:41 10,3 C 40 % 1015,8 hPa 0,0 l/m 4,5 km/h (1 Bft) S-SW 205 1 min 0,000 mm 0,0 UV-I 185 W/m -2,7 C 10,3 C 8,0 km/h (2 Bft) 100,00 %
28.04.2016 18:42 10,3 C 40 % 1015,9 hPa 0,0 l/m 6,0 km/h (2 Bft) S-SW 196 1 min 0,000 mm 0,0 UV-I 184 W/m -2,7 C 10,3 C 8,0 km/h (2 Bft) 100,00 %
28.04.2016 18:43 10,3 C 39 % 1015,9 hPa 0,0 l/m 2,4 km/h (1 Bft) S 181 1 min 0,000 mm 0,0 UV-I 182 W/m -3,0 C 10,3 C 4,8 km/h (1 Bft) 95,65 %
28.04.2016 18:44 10,3 C 41 % 1015,9 hPa 0,0 l/m 1,6 km/h (1 Bft) S 180 1 min 0,000 mm 0,0 UV-I 179 W/m -2,4 C 10,3 C 4,8 km/h (1 Bft) 100,00 %
28.04.2016 18:45 10,3 C 41 % 1015,9 hPa 0,0 l/m 2,9 km/h (1 Bft) S 190 1 min 0,000 mm 0,0 UV-I 178 W/m -2,4 C 10,3 C 4,8 km/h (1 Bft) 100,00 %
28.04.2016 18:46 10,3 C 41 % 1015,9 hPa 0,0 l/m 2,0 km/h (1 Bft) S-SW 198 1 min 0,000 mm 0,0 UV-I 176 W/m -2,4 C 10,3 C 4,8 km/h (1 Bft) 100,00 %
28.04.2016 18:47 10,3 C 42 % 1015,9 hPa 0,0 l/m 4,4 km/h (1 Bft) W-SW 252 1 min 0,000 mm 0,0 UV-I 173 W/m -2,0 C 10,3 C 6,4 km/h (2 Bft) 100,00 %
28.04.2016 18:48 10,3 C 41 % 1015,9 hPa 0,0 l/m 3,2 km/h (1 Bft) S-SW 209 1 min 0,000 mm 0,0 UV-I 170 W/m -2,4 C 10,3 C 4,8 km/h (1 Bft) 100,00 %
28.04.2016 18:49 10,3 C 41 % 1015,9 hPa 0,0 l/m 2,7 km/h (1 Bft) S-SW 210 1 min 0,000 mm 0,0 UV-I 166 W/m -2,4 C 10,3 C 4,8 km/h (1 Bft) 95,65 %
28.04.2016 18:50 10,2 C 41 % 1015,9 hPa 0,0 l/m 1,2 km/h (1 Bft) S-SW 211 1 min 0,000 mm 0,0 UV-I 163 W/m -2,5 C 10,2 C 3,2 km/h (1 Bft) 100,00 %
28.04.2016 18:51 10,3 C 41 % 1015,9 hPa 0,0 l/m 2,9 km/h (1 Bft) W 276 1 min 0,000 mm 0,0 UV-I 160 W/m -2,4 C 10,3 C 4,8 km/h (1 Bft) 100,00 %
28.04.2016 18:52 10,3 C 42 % 1015,9 hPa 0,0 l/m 3,3 km/h (1 Bft) W 276 1 min 0,000 mm 0,0 UV-I 160 W/m -2,0 C 10,3 C 4,8 km/h (1 Bft) 100,00 %
28.04.2016 18:53 10,4 C 42 % 1015,9 hPa 0,0 l/m 2,1 km/h (1 Bft) W 276 1 min 0,000 mm 0,0 UV-I 157 W/m -1,9 C 10,4 C 3,2 km/h (1 Bft) 100,00 %
28.04.2016 18:54 10,4 C 43 % 1015,9 hPa 0,0 l/m 2,7 km/h (1 Bft) W-SW 244 1 min 0,000 mm 0,0 UV-I 155 W/m -1,6 C 10,4 C 6,4 km/h (2 Bft) 100,00 %
28.04.2016 18:55 10,4 C 41 % 1015,9 hPa 0,0 l/m 5,8 km/h (2 Bft) SW 234 1 min 0,000 mm 0,0 UV-I 154 W/m -2,3 C 10,4 C 6,4 km/h (2 Bft) 95,65 %
28.04.2016 18:56 10,4 C 40 % 1015,9 hPa 0,0 l/m 3,6 km/h (1 Bft) SW 234 1 min 0,000 mm 0,0 UV-I 151 W/m -2,6 C 10,4 C 4,8 km/h (1 Bft) 95,83 %
28.04.2016 18:57 10,4 C 41 % 1015,9 hPa 0,0 l/m 2,4 km/h (1 Bft) SW 234 1 min 0,000 mm 0,0 UV-I 149 W/m -2,3 C 10,4 C 4,8 km/h (1 Bft) 95,65 %
28.04.2016 18:58 10,3 C 40 % 1015,9 hPa 0,0 l/m 2,1 km/h (1 Bft) SW 234 1 min 0,000 mm 0,0 UV-I 148 W/m -2,7 C 10,3 C 4,8 km/h (1 Bft) 100,00 %
28.04.2016 18:59 10,3 C 40 % 1015,9 hPa 0,0 l/m 1,3 km/h (1 Bft) SW 235 1 min 0,000 mm 0,0 UV-I 145 W/m -2,7 C 10,3 C 3,2 km/h (1 Bft) 100,00 %
28.04.2016 19:00 10,4 C 41 % 1016,0 hPa 0,0 l/m 1,7 km/h (1 Bft) SW 235 1 min 0,000 mm 0,0 UV-I 143 W/m -2,3 C 10,4 C 3,2 km/h (1 Bft) 95,65 %
28.04.2016 19:02 10,4 C 42 % 1016,0 hPa 0,0 l/m 3,1 km/h (1 Bft) S-SW 195 2 min 0,127 mm 0,0 UV-I 139 W/m -1,9 C 10,4 C 6,4 km/h (2 Bft) 95,74 %
28.04.2016 19:03 10,3 C 41 % 1016,0 hPa 0,0 l/m 5,6 km/h (1 Bft) S-SW 196 1 min 0,000 mm 0,0 UV-I 135 W/m -2,4 C 10,3 C 8,0 km/h (2 Bft) 95,83 %
28.04.2016 19:04 10,3 C 41 % 1016,0 hPa 0,0 l/m 5,7 km/h (1 Bft) S-SW 209 1 min 0,000 mm 0,0 UV-I 134 W/m -2,4 C 10,3 C 6,4 km/h (2 Bft) 95,65 %
28.04.2016 19:05 10,3 C 40 % 1016,0 hPa 0,0 l/m 5,0 km/h (1 Bft) SW 214 1 min 0,000 mm 0,0 UV-I 129 W/m -2,7 C 10,3 C 6,4 km/h (2 Bft) 95,83 %
28.04.2016 19:06 10,3 C 41 % 1016,0 hPa 0,0 l/m 3,1 km/h (1 Bft) SW 214 1 min 0,000 mm 0,0 UV-I 126 W/m -2,4 C 10,3 C 4,8 km/h (1 Bft) 100,00 %
28.04.2016 19:07 10,3 C 42 % 1016,0 hPa 0,0 l/m 2,0 km/h (1 Bft) SW 214 1 min 0,000 mm 0,0 UV-I 124 W/m -2,0 C 10,3 C 3,2 km/h (1 Bft) 95,83 %
28.04.2016 19:08 10,3 C 43 % 1016,1 hPa 0,0 l/m 0,1 km/h (0 Bft) SW 214 1 min 0,000 mm 0,0 UV-I 118 W/m -1,7 C 10,3 C 1,6 km/h (1 Bft) 100,00 %
28.04.2016 19:09 10,3 C 42 % 1016,1 hPa 0,0 l/m 0,1 km/h (0 Bft) SW 214 1 min 0,000 mm 0,0 UV-I 112 W/m -2,0 C 10,3 C 1,6 km/h (1 Bft) 95,83 %
28.04.2016 19:10 10,3 C 40 % 1016,1 hPa 0,0 l/m 0,0 km/h (0 Bft) SW 214 1 min 0,000 mm 0,0 UV-I 108 W/m -2,7 C 10,3 C 0,0 km/h (0 Bft) 100,00 %
28.04.2016 19:11 10,3 C 41 % 1016,1 hPa 0,0 l/m 0,5 km/h (0 Bft) SW 214 1 min 0,000 mm 0,0 UV-I 101 W/m -2,4 C 10,3 C 1,6 km/h (1 Bft) 95,83 %
28.04.2016 19:12 10,4 C 42 % 1016,1 hPa 0,0 l/m 1,3 km/h (1 Bft) W-SW 238 1 min 0,000 mm 0,0 UV-I 96 W/m -1,9 C 10,4 C 3,2 km/h (1 Bft) 91,30 %
28.04.2016 19:13 10,4 C 45 % 1016,1 hPa 0,0 l/m 0,6 km/h (0 Bft) W-SW 240 1 min 0,000 mm 0,0 UV-I 92 W/m -1,0 C 10,4 C 1,6 km/h (1 Bft) 100,00 %
28.04.2016 19:14 10,3 C 45 % 1016,1 hPa 0,0 l/m 1,3 km/h (1 Bft) NO 36 1 min 0,000 mm 0,0 UV-I 88 W/m -1,1 C 10,3 C 4,8 km/h (1 Bft) 95,65 %
28.04.2016 19:15 10,1 C 51 % 1016,1 hPa 0,0 l/m 6,8 km/h (2 Bft) NO 35 1 min 0,000 mm 0,0 UV-I 82 W/m 0,4 C 9,8 C 16,1 km/h (3 Bft) 100,00 %
28.04.2016 19:16 9,8 C 53 % 1016,1 hPa 0,0 l/m 12,1 km/h (2 Bft) N-NO 26 0 min 0,000 mm 0,0 UV-I 73 W/m 0,7 C 6,2 C 17,7 km/h (3 Bft) 92,86 %
28.04.2016 19:17 9,7 C 54 % 1016,1 hPa 0,0 l/m 11,6 km/h (2 Bft) N-NO 22 0 min 0,000 mm 0,0 UV-I 74 W/m 0,9 C 6,4 C 19,3 km/h (3 Bft) 100,00 %
28.04.2016 19:18 9,4 C 55 % 1016,1 hPa 0,0 l/m 11,4 km/h (2 Bft) N-NO 20 0 min 0,000 mm 0,0 UV-I 75 W/m 0,8 C 6,1 C 14,5 km/h (3 Bft) 91,67 %
28.04.2016 19:19 9,2 C 56 % 1016,1 hPa 0,0 l/m 6,6 km/h (2 Bft) N-NW 331 0 min 0,000 mm 0,0 UV-I 72 W/m 0,9 C 9,1 C 14,5 km/h (3 Bft) 100,00 %
28.04.2016 19:20 9,1 C 57 % 1016,1 hPa 0,0 l/m 7,3 km/h (2 Bft) N 355 0 min 0,000 mm 0,0 UV-I 67 W/m 1,0 C 8,4 C 14,5 km/h (3 Bft) 91,67 %
28.04.2016 19:21 9,0 C 58 % 1016,1 hPa 0,0 l/m 7,1 km/h (2 Bft) N 5 0 min 0,000 mm 0,0 UV-I 65 W/m 1,2 C 8,5 C 14,5 km/h (3 Bft) 100,00 %
28.04.2016 19:22 8,9 C 58 % 1016,1 hPa 0,0 l/m 6,2 km/h (2 Bft) N-NO 28 0 min 0,000 mm 0,0 UV-I 57 W/m 1,1 C 8,9 C 9,7 km/h (2 Bft) 95,83 %
28.04.2016 19:23 8,7 C 58 % 1016,2 hPa 0,0 l/m 6,6 km/h (2 Bft) N 5 0 min 0,000 mm 0,0 UV-I 36 W/m 0,9 C 8,6 C 12,9 km/h (3 Bft) 95,65 %
28.04.2016 19:24 8,7 C 58 % 1016,1 hPa 0,0 l/m 5,6 km/h (1 Bft) N 355 0 min 0,000 mm 0,0 UV-I 30 W/m 0,9 C 8,7 C 11,3 km/h (2 Bft) 100,00 %
28.04.2016 19:25 8,6 C 59 % 1016,1 hPa 0,0 l/m 7,2 km/h (2 Bft) N-NO 28 0 min 0,000 mm 0,0 UV-I 30 W/m 1,0 C 8,0 C 12,9 km/h (3 Bft) 91,30 %
28.04.2016 19:26 8,4 C 59 % 1016,1 hPa 0,0 l/m 7,3 km/h (2 Bft) NO 48 0 min 0,000 mm 0,0 UV-I 48 W/m 0,9 C 7,7 C 14,5 km/h (3 Bft) 100,00 %
28.04.2016 19:27 8,4 C 59 % 1016,1 hPa 0,0 l/m 5,4 km/h (1 Bft) O-SO 120 0 min 0,000 mm 0,0 UV-I 52 W/m 0,9 C 8,4 C 9,7 km/h (2 Bft) 95,65 %
28.04.2016 19:28 8,3 C 60 % 1016,1 hPa 0,0 l/m 5,2 km/h (1 Bft) N-NO 17 0 min 0,000 mm 0,0 UV-I 49 W/m 1,0 C 8,3 C 11,3 km/h (2 Bft) 100,00 %
28.04.2016 19:29 8,3 C 60 % 1016,2 hPa 0,0 l/m 7,3 km/h (2 Bft) N-NO 22 0 min 0,000 mm 0,0 UV-I 48 W/m 1,0 C 7,6 C 14,5 km/h (3 Bft) 95,65 %
28.04.2016 19:30 8,2 C 59 % 1016,2 hPa 0,0 l/m 7,0 km/h (2 Bft) N 5 0 min 0,000 mm 0,0 UV-I 46 W/m 0,7 C 7,7 C 11,3 km/h (2 Bft) 95,83 %
28.04.2016 19:31 8,2 C 60 % 1016,2 hPa 0,0 l/m 5,0 km/h (1 Bft) N-NO 17 0 min 0,000 mm 0,0 UV-I 44 W/m 0,9 C 8,2 C 11,3 km/h (2 Bft) 95,65 %
28.04.2016 19:32 8,2 C 60 % 1016,2 hPa 0,0 l/m 3,4 km/h (1 Bft) N-NO 30 0 min 0,000 mm 0,0 UV-I 42 W/m 0,9 C 8,2 C 6,4 km/h (2 Bft) 95,83 %
28.04.2016 19:33 8,1 C 61 % 1016,2 hPa 0,0 l/m 3,7 km/h (1 Bft) N-NO 26 0 min 0,000 mm 0,0 UV-I 41 W/m 1,0 C 8,1 C 8,0 km/h (2 Bft) 100,00 %
28.04.2016 19:34 8,1 C 62 % 1016,2 hPa 0,0 l/m 2,4 km/h (1 Bft) N 9 0 min 0,000 mm 0,0 UV-I 40 W/m 1,3 C 8,1 C 4,8 km/h (1 Bft) 95,83 %
28.04.2016 19:35 8,0 C 62 % 1016,2 hPa 0,0 l/m 4,4 km/h (1 Bft) N-NO 26 0 min 0,000 mm 0,0 UV-I 38 W/m 1,2 C 8,0 C 11,3 km/h (2 Bft) 100,00 %
28.04.2016 19:36 8,0 C 62 % 1016,2 hPa 0,0 l/m 4,7 km/h (1 Bft) N-NO 20 0 min 0,000 mm 0,0 UV-I 36 W/m 1,2 C 8,0 C 6,4 km/h (2 Bft) 95,83 %
28.04.2016 19:37 7,9 C 63 % 1016,2 hPa 0,0 l/m 2,9 km/h (1 Bft) N 5 0 min 0,000 mm 0,0 UV-I 33 W/m 1,3 C 7,9 C 6,4 km/h (2 Bft) 100,00 %
28.04.2016 19:38 7,8 C 63 % 1016,2 hPa 0,0 l/m 2,1 km/h (1 Bft) O 80 0 min 0,000 mm 0,0 UV-I 28 W/m 1,2 C 7,8 C 4,8 km/h (1 Bft) 95,83 %
28.04.2016 19:39 7,8 C 64 % 1016,3 hPa 0,0 l/m 1,3 km/h (1 Bft) N 350 0 min 0,000 mm 0,0 UV-I 23 W/m 1,4 C 7,8 C 3,2 km/h (1 Bft) 100,00 %
28.04.2016 19:40 7,7 C 64 % 1016,3 hPa 0,0 l/m 1,2 km/h (1 Bft) N 11 0 min 0,000 mm 0,0 UV-I 22 W/m 1,3 C 7,7 C 1,6 km/h (1 Bft) 100,00 %
28.04.2016 19:41 7,6 C 65 % 1016,3 hPa 0,0 l/m 1,2 km/h (1 Bft) N 11 0 min 0,000 mm 0,0 UV-I 21 W/m 1,5 C 7,6 C 3,2 km/h (1 Bft) 96,43 %
28.04.2016 19:42 7,6 C 65 % 1016,3 hPa 0,0 l/m 2,8 km/h (1 Bft) N-NO 32 0 min 0,000 mm 0,0 UV-I 21 W/m 1,5 C 7,6 C 6,4 km/h (2 Bft) 100,00 %
28.04.2016 19:43 7,5 C 65 % 1016,3 hPa 0,0 l/m 1,5 km/h (1 Bft) N-NO 32 0 min 0,000 mm 0,0 UV-I 19 W/m 1,4 C 7,5 C 6,4 km/h (2 Bft) 95,83 %
28.04.2016 19:44 7,4 C 66 % 1016,3 hPa 0,0 l/m 2,1 km/h (1 Bft) N-NO 15 0 min 0,000 mm 0,0 UV-I 19 W/m 1,5 C 7,4 C 4,8 km/h (1 Bft) 95,65 %
28.04.2016 19:45 7,4 C 65 % 1016,3 hPa 0,0 l/m 3,4 km/h (1 Bft) N-NO 16 0 min 0,000 mm 0,0 UV-I 17 W/m 1,3 C 7,4 C 6,4 km/h (2 Bft) 95,83 %
28.04.2016 19:46 7,4 C 66 % 1016,3 hPa 0,0 l/m 2,6 km/h (1 Bft) N-NO 25 0 min 0,000 mm 0,0 UV-I 15 W/m 1,5 C 7,4 C 4,8 km/h (1 Bft) 100,00 %
28.04.2016 19:47 7,3 C 65 % 1016,3 hPa 0,0 l/m 1,9 km/h (1 Bft) N-NO 24 0 min 0,000 mm 0,0 UV-I 19 W/m 1,2 C 7,3 C 4,8 km/h (1 Bft) 100,00 %
28.04.2016 19:48 7,3 C 66 % 1016,3 hPa 0,0 l/m 1,9 km/h (1 Bft) N-NO 16 0 min 0,000 mm 0,0 UV-I 18 W/m 1,4 C 7,3 C 3,2 km/h (1 Bft) 100,00 %
28.04.2016 19:49 7,3 C 65 % 1016,3 hPa 0,0 l/m 0,8 km/h (0 Bft) N-NO 13 0 min 0,000 mm 0,0 UV-I 18 W/m 1,2 C 7,3 C 1,6 km/h (1 Bft) 95,83 %
28.04.2016 19:50 7,3 C 66 % 1016,3 hPa 0,0 l/m 0,4 km/h (0 Bft) N 11 0 min 0,000 mm 0,0 UV-I 18 W/m 1,4 C 7,3 C 1,6 km/h (1 Bft) 91,30 %
28.04.2016 19:51 7,3 C 67 % 1016,4 hPa 0,0 l/m 1,4 km/h (1 Bft) N 355 0 min 0,000 mm 0,0 UV-I 17 W/m 1,6 C 7,3 C 3,2 km/h (1 Bft) 100,00 %
28.04.2016 19:52 7,2 C 68 % 1016,4 hPa 0,0 l/m 1,1 km/h (1 Bft) N 5 0 min 0,000 mm 0,0 UV-I 16 W/m 1,7 C 7,2 C 1,6 km/h (1 Bft) 95,65 %
28.04.2016 19:53 7,2 C 67 % 1016,4 hPa 0,0 l/m 0,3 km/h (0 Bft) N 5 0 min 0,000 mm 0,0 UV-I 16 W/m 1,5 C 7,2 C 1,6 km/h (1 Bft) 100,00 %
28.04.2016 19:54 7,2 C 67 % 1016,4 hPa 0,0 l/m 0,4 km/h (0 Bft) N 355 0 min 0,000 mm 0,0 UV-I 16 W/m 1,5 C 7,2 C 1,6 km/h (1 Bft) 100,00 %
28.04.2016 19:55 7,1 C 67 % 1016,4 hPa 0,0 l/m 0,3 km/h (0 Bft) N 11 0 min 0,000 mm 0,0 UV-I 14 W/m 1,4 C 7,1 C 1,6 km/h (1 Bft) 100,00 %
28.04.2016 19:56 7,1 C 67 % 1016,4 hPa 0,0 l/m 0,3 km/h (0 Bft) N 10 0 min 0,000 mm 0,0 UV-I 14 W/m 1,4 C 7,1 C 1,6 km/h (1 Bft) 95,65 %
28.04.2016 19:57 7,1 C 66 % 1016,4 hPa 0,0 l/m 0,7 km/h (0 Bft) N-NO 13 0 min 0,000 mm 0,0 UV-I 13 W/m 1,2 C 7,1 C 3,2 km/h (1 Bft) 100,00 %
28.04.2016 19:58 7,1 C 67 % 1016,5 hPa 0,0 l/m 1,8 km/h (1 Bft) N 11 0 min 0,000 mm 0,0 UV-I 12 W/m 1,4 C 7,1 C 3,2 km/h (1 Bft) 100,00 %
28.04.2016 19:59 7,1 C 66 % 1016,5 hPa 0,0 l/m 1,3 km/h (1 Bft) N 11 0 min 0,000 mm 0,0 UV-I 12 W/m 1,2 C 7,1 C 3,2 km/h (1 Bft) 100,00 %
28.04.2016 20:00 7,1 C 65 % 1016,5 hPa 0,0 l/m 0,7 km/h (0 Bft) N 11 1 min 0,000 mm 0,0 UV-I 12 W/m 1,0 C 7,1 C 3,2 km/h (1 Bft) 100,00 %
28.04.2016 20:02 7,2 C 65 % 1016,5 hPa 0,0 l/m 1,5 km/h (1 Bft) N 5 2 min 0,051 mm 0,0 UV-I 11 W/m 1,1 C 7,2 C 3,2 km/h (1 Bft) 97,44 %
28.04.2016 20:03 7,2 C 66 % 1016,5 hPa 0,0 l/m 0,8 km/h (0 Bft) N-NO 24 0 min 0,000 mm 0,0 UV-I 11 W/m 1,3 C 7,2 C 3,2 km/h (1 Bft) 100,00 %
28.04.2016 20:04 7,2 C 66 % 1016,5 hPa 0,0 l/m 3,1 km/h (1 Bft) N-NO 20 0 min 0,000 mm 0,0 UV-I 10 W/m 1,3 C 7,2 C 6,4 km/h (2 Bft) 95,83 %
28.04.2016 20:05 7,2 C 65 % 1016,5 hPa 0,0 l/m 0,5 km/h (0 Bft) N-NO 17 0 min 0,000 mm 0,0 UV-I 9 W/m 1,1 C 7,2 C 1,6 km/h (1 Bft) 100,00 %
28.04.2016 20:06 7,1 C 66 % 1016,5 hPa 0,0 l/m 0,9 km/h (0 Bft) N-NO 17 0 min 0,000 mm 0,0 UV-I 9 W/m 1,2 C 7,1 C 3,2 km/h (1 Bft) 100,00 %
28.04.2016 20:07 7,1 C 66 % 1016,5 hPa 0,0 l/m 1,1 km/h (1 Bft) N-NO 17 0 min 0,000 mm 0,0 UV-I 9 W/m 1,2 C 7,1 C 3,2 km/h (1 Bft) 100,00 %
28.04.2016 20:08 7,0 C 66 % 1016,5 hPa 0,0 l/m 3,4 km/h (1 Bft) N-NO 23 0 min 0,000 mm 0,0 UV-I 7 W/m 1,1 C 7,0 C 6,4 km/h (2 Bft) 100,00 %
28.04.2016 20:09 7,0 C 65 % 1016,5 hPa 0,0 l/m 0,9 km/h (0 Bft) N-NO 19 0 min 0,000 mm 0,0 UV-I 7 W/m 0,9 C 7,0 C 3,2 km/h (1 Bft) 95,65 %
28.04.2016 20:10 6,9 C 66 % 1016,5 hPa 0,0 l/m 1,9 km/h (1 Bft) N-NO 18 0 min 0,000 mm 0,0 UV-I 7 W/m 1,0 C 6,9 C 4,8 km/h (1 Bft) 100,00 %
28.04.2016 20:11 6,9 C 66 % 1016,5 hPa 0,0 l/m 3,0 km/h (1 Bft) N-NO 21 0 min 0,000 mm 0,0 UV-I 7 W/m 1,0 C 6,9 C 4,8 km/h (1 Bft) 100,00 %
28.04.2016 20:12 6,9 C 66 % 1016,6 hPa 0,0 l/m 2,5 km/h (1 Bft) N-NO 15 0 min 0,000 mm 0,0 UV-I 5 W/m 1,0 C 6,9 C 4,8 km/h (1 Bft) 100,00 %
28.04.2016 20:13 6,9 C 66 % 1016,6 hPa 0,0 l/m 3,6 km/h (1 Bft) N-NO 15 0 min 0,000 mm 0,0 UV-I 5 W/m 1,0 C 6,9 C 4,8 km/h (1 Bft) 100,00 %
28.04.2016 20:14 6,8 C 66 % 1016,6 hPa 0,0 l/m 3,1 km/h (1 Bft) N-NO 26 0 min 0,000 mm 0,0 UV-I 5 W/m 0,9 C 6,8 C 4,8 km/h (1 Bft) 100,00 %
28.04.2016 20:15 6,8 C 66 % 1016,6 hPa 0,0 l/m 3,9 km/h (1 Bft) N-NO 21 0 min 0,000 mm 0,0 UV-I 5 W/m 0,9 C 6,8 C 4,8 km/h (1 Bft) 100,00 %
28.04.2016 20:16 6,8 C 67 % 1016,5 hPa 0,0 l/m 4,1 km/h (1 Bft) N-NO 26 0 min 0,000 mm 0,0 UV-I 5 W/m 1,1 C 6,8 C 4,8 km/h (1 Bft) 100,00 %
28.04.2016 20:17 6,8 C 67 % 1016,5 hPa 0,0 l/m 3,7 km/h (1 Bft) N-NO 23 0 min 0,000 mm 0,0 UV-I 5 W/m 1,1 C 6,8 C 4,8 km/h (1 Bft) 95,65 %
28.04.2016 20:18 6,8 C 66 % 1016,6 hPa 0,0 l/m 4,6 km/h (1 Bft) N-NO 24 0 min 0,000 mm 0,0 UV-I 1 W/m 0,9 C 6,8 C 6,4 km/h (2 Bft) 100,00 %
28.04.2016 20:19 6,8 C 67 % 1016,5 hPa 0,0 l/m 4,6 km/h (1 Bft) N-NO 29 0 min 0,000 mm 0,0 UV-I 0 W/m 1,1 C 6,8 C 4,8 km/h (1 Bft) 95,65 %
28.04.2016 20:20 6,8 C 67 % 1016,6 hPa 0,0 l/m 4,7 km/h (1 Bft) N-NO 33 0 min 0,000 mm 0,0 UV-I 0 W/m 1,1 C 6,8 C 6,4 km/h (2 Bft) 100,00 %
28.04.2016 20:21 6,8 C 67 % 1016,6 hPa 0,0 l/m 4,4 km/h (1 Bft) N-NO 26 0 min 0,000 mm 0,0 UV-I 0 W/m 1,1 C 6,8 C 6,4 km/h (2 Bft) 100,00 %
28.04.2016 20:22 6,8 C 67 % 1016,6 hPa 0,0 l/m 4,2 km/h (1 Bft) NO 38 0 min 0,000 mm 0,0 UV-I 0 W/m 1,1 C 6,8 C 4,8 km/h (1 Bft) 95,65 %
28.04.2016 20:23 6,8 C 67 % 1016,6 hPa 0,0 l/m 4,2 km/h (1 Bft) N-NO 30 0 min 0,000 mm 0,0 UV-I 0 W/m 1,1 C 6,8 C 4,8 km/h (1 Bft) 100,00 %
28.04.2016 20:24 6,8 C 67 % 1016,6 hPa 0,0 l/m 3,0 km/h (1 Bft) N-NO 30 0 min 0,000 mm 0,0 UV-I 0 W/m 1,1 C 6,8 C 3,2 km/h (1 Bft) 100,00 %
28.04.2016 20:25 6,8 C 67 % 1016,6 hPa 0,0 l/m 3,3 km/h (1 Bft) N-NO 30 0 min 0,000 mm 0,0 UV-I 0 W/m 1,1 C 6,8 C 4,8 km/h (1 Bft) 96,67 %
28.04.2016 20:26 6,8 C 67 % 1016,6 hPa 0,0 l/m 2,3 km/h (1 Bft) N-NO 30 0 min 0,000 mm 0,0 UV-I 0 W/m 1,1 C 6,8 C 4,8 km/h (1 Bft) 95,65 %
28.04.2016 20:27 6,8 C 68 % 1016,6 hPa 0,0 l/m 2,6 km/h (1 Bft) N-NO 30 0 min 0,000 mm 0,0 UV-I 0 W/m 1,3 C 6,8 C 4,8 km/h (1 Bft) 100,00 %
28.04.2016 20:28 6,8 C 69 % 1016,6 hPa 0,0 l/m 2,6 km/h (1 Bft) N-NO 30 0 min 0,000 mm 0,0 UV-I 0 W/m 1,5 C 6,8 C 3,2 km/h (1 Bft) 96,15 %
28.04.2016 20:29 6,8 C 69 % 1016,6 hPa 0,0 l/m 2,7 km/h (1 Bft) N-NO 30 0 min 0,000 mm 0,0 UV-I 0 W/m 1,5 C 6,8 C 3,2 km/h (1 Bft) 100,00 %
28.04.2016 20:30 6,7 C 70 % 1016,7 hPa 0,0 l/m 2,7 km/h (1 Bft) N-NO 30 0 min 0,000 mm 0,0 UV-I 0 W/m 1,6 C 6,7 C 3,2 km/h (1 Bft) 100,00 %
28.04.2016 20:31 6,6 C 70 % 1016,7 hPa 0,0 l/m 2,4 km/h (1 Bft) N-NO 30 0 min 0,000 mm 0,0 UV-I 0 W/m 1,5 C 6,6 C 3,2 km/h (1 Bft) 100,00 %
28.04.2016 20:32 6,5 C 70 % 1016,7 hPa 0,0 l/m 2,1 km/h (1 Bft) N-NO 30 0 min 0,000 mm 0,0 UV-I 0 W/m 1,4 C 6,5 C 3,2 km/h (1 Bft) 100,00 %
28.04.2016 20:33 6,3 C 71 % 1016,7 hPa 0,0 l/m 2,0 km/h (1 Bft) N-NO 30 0 min 0,000 mm 0,0 UV-I 0 W/m 1,4 C 6,3 C 3,2 km/h (1 Bft) 100,00 %
28.04.2016 20:34 6,1 C 72 % 1016,7 hPa 0,0 l/m 2,3 km/h (1 Bft) N-NO 30 0 min 0,000 mm 0,0 UV-I 0 W/m 1,4 C 6,1 C 3,2 km/h (1 Bft) 100,00 %
28.04.2016 20:35 5,9 C 72 % 1016,7 hPa 0,0 l/m 2,1 km/h (1 Bft) N-NO 30 0 min 0,000 mm 0,0 UV-I 0 W/m 1,2 C 5,9 C 3,2 km/h (1 Bft) 100,00 %
28.04.2016 20:36 5,8 C 73 % 1016,7 hPa 0,0 l/m 1,9 km/h (1 Bft) N-NO 30 0 min 0,000 mm 0,0 UV-I 0 W/m 1,3 C 5,8 C 3,2 km/h (1 Bft) 100,00 %
28.04.2016 20:37 5,7 C 73 % 1016,8 hPa 0,0 l/m 2,2 km/h (1 Bft) N-NO 30 0 min 0,000 mm 0,0 UV-I 0 W/m 1,2 C 5,7 C 3,2 km/h (1 Bft) 100,00 %
28.04.2016 20:38 5,6 C 73 % 1016,8 hPa 0,0 l/m 1,8 km/h (1 Bft) N-NO 30 0 min 0,000 mm 0,0 UV-I 0 W/m 1,2 C 5,6 C 3,2 km/h (1 Bft) 100,00 %
28.04.2016 20:39 5,5 C 73 % 1016,8 hPa 0,0 l/m 2,0 km/h (1 Bft) N-NO 30 0 min 0,000 mm 0,0 UV-I 0 W/m 1,1 C 5,5 C 3,2 km/h (1 Bft) 100,00 %
28.04.2016 20:40 5,4 C 74 % 1016,8 hPa 0,0 l/m 1,1 km/h (1 Bft) N-NO 30 0 min 0,000 mm 0,0 UV-I 0 W/m 1,1 C 5,4 C 1,6 km/h (1 Bft) 100,00 %
28.04.2016 20:41 5,4 C 74 % 1016,8 hPa 0,0 l/m 1,4 km/h (1 Bft) N-NO 30 0 min 0,000 mm 0,0 UV-I 0 W/m 1,1 C 5,4 C 1,6 km/h (1 Bft) 100,00 %
28.04.2016 20:42 5,4 C 74 % 1016,8 hPa 0,0 l/m 1,7 km/h (1 Bft) N-NO 30 0 min 0,000 mm 0,0 UV-I 0 W/m 1,1 C 5,4 C 3,2 km/h (1 Bft) 100,00 %
28.04.2016 20:43 5,4 C 74 % 1016,9 hPa 0,0 l/m 1,6 km/h (1 Bft) N-NO 30 0 min 0,000 mm 0,0 UV-I 0 W/m 1,1 C 5,4 C 3,2 km/h (1 Bft) 100,00 %
28.04.2016 20:44 5,4 C 74 % 1016,9 hPa 0,0 l/m 1,9 km/h (1 Bft) N-NO 30 0 min 0,000 mm 0,0 UV-I 0 W/m 1,1 C 5,4 C 3,2 km/h (1 Bft) 100,00 %
28.04.2016 20:45 5,4 C 74 % 1016,9 hPa 0,0 l/m 2,1 km/h (1 Bft) N-NO 30 0 min 0,000 mm 0,0 UV-I 0 W/m 1,1 C 5,4 C 3,2 km/h (1 Bft) 100,00 %
28.04.2016 20:46 5,5 C 74 % 1016,9 hPa 0,0 l/m 2,4 km/h (1 Bft) N-NO 30 0 min 0,000 mm 0,0 UV-I 0 W/m 1,2 C 5,5 C 3,2 km/h (1 Bft) 100,00 %
28.04.2016 20:47 5,6 C 74 % 1017,0 hPa 0,0 l/m 2,4 km/h (1 Bft) N-NO 30 0 min 0,000 mm 0,0 UV-I 0 W/m 1,3 C 5,6 C 3,2 km/h (1 Bft) 100,00 %
28.04.2016 20:48 5,7 C 73 % 1017,0 hPa 0,0 l/m 2,1 km/h (1 Bft) N-NO 30 0 min 0,000 mm 0,0 UV-I 0 W/m 1,2 C 5,7 C 3,2 km/h (1 Bft) 100,00 %
28.04.2016 20:49 5,8 C 73 % 1017,0 hPa 0,0 l/m 2,0 km/h (1 Bft) N-NO 30 0 min 0,000 mm 0,0 UV-I 0 W/m 1,3 C 5,8 C 3,2 km/h (1 Bft) 100,00 %
28.04.2016 20:50 5,8 C 73 % 1017,0 hPa 0,0 l/m 1,9 km/h (1 Bft) N-NO 30 0 min 0,000 mm 0,0 UV-I 0 W/m 1,3 C 5,8 C 3,2 km/h (1 Bft) 100,00 %
28.04.2016 20:51 5,9 C 72 % 1017,0 hPa 0,0 l/m 2,2 km/h (1 Bft) N-NO 30 0 min 0,000 mm 0,0 UV-I 0 W/m 1,2 C 5,9 C 3,2 km/h (1 Bft) 100,00 %
28.04.2016 20:52 5,8 C 72 % 1017,0 hPa 0,0 l/m 1,7 km/h (1 Bft) N-NO 30 0 min 0,000 mm 0,0 UV-I 0 W/m 1,2 C 5,8 C 3,2 km/h (1 Bft) 100,00 %
28.04.2016 20:53 5,8 C 72 % 1017,0 hPa 0,0 l/m 1,9 km/h (1 Bft) N-NO 30 0 min 0,000 mm 0,0 UV-I 0 W/m 1,2 C 5,8 C 3,2 km/h (1 Bft) 100,00 %
28.04.2016 20:54 5,8 C 72 % 1017,0 hPa 0,0 l/m 1,9 km/h (1 Bft) N-NO 30 0 min 0,000 mm 0,0 UV-I 0 W/m 1,2 C 5,8 C 3,2 km/h (1 Bft) 100,00 %
28.04.2016 20:55 5,7 C 73 % 1017,0 hPa 0,0 l/m 1,7 km/h (1 Bft) N-NO 30 0 min 0,000 mm 0,0 UV-I 0 W/m 1,2 C 5,7 C 3,2 km/h (1 Bft) 95,65 %
28.04.2016 20:56 5,6 C 73 % 1017,0 hPa 0,0 l/m 1,6 km/h (1 Bft) N-NO 30 0 min 0,000 mm 0,0 UV-I 0 W/m 1,2 C 5,6 C 1,6 km/h (1 Bft) 95,83 %
28.04.2016 20:57 5,6 C 73 % 1017,1 hPa 0,0 l/m 1,5 km/h (1 Bft) N-NO 30 0 min 0,000 mm 0,0 UV-I 0 W/m 1,2 C 5,6 C 1,6 km/h (1 Bft) 100,00 %
28.04.2016 20:58 5,6 C 73 % 1017,0 hPa 0,0 l/m 1,4 km/h (1 Bft) N-NO 30 0 min 0,000 mm 0,0 UV-I 0 W/m 1,2 C 5,6 C 1,6 km/h (1 Bft) 100,00 %
28.04.2016 20:59 5,6 C 73 % 1017,1 hPa 0,0 l/m 1,1 km/h (1 Bft) N-NO 30 0 min 0,000 mm 0,0 UV-I 0 W/m 1,2 C 5,6 C 1,6 km/h (1 Bft) 95,65 %
28.04.2016 21:00 5,6 C 73 % 1017,1 hPa 0,0 l/m 1,5 km/h (1 Bft) N-NO 30 0 min 0,000 mm 0,0 UV-I 0 W/m 1,2 C 5,6 C 1,6 km/h (1 Bft) 100,00 %
28.04.2016 21:02 5,4 C 74 % 1017,1 hPa 0,0 l/m 1,1 km/h (1 Bft) N-NO 30 0 min 0,000 mm 0,0 UV-I 0 W/m 1,1 C 5,4 C 3,2 km/h (1 Bft) 100,00 %
28.04.2016 21:03 5,4 C 74 % 1017,1 hPa 0,0 l/m 0,2 km/h (0 Bft) N-NO 30 0 min 0,000 mm 0,0 UV-I 0 W/m 1,1 C 5,4 C 1,6 km/h (1 Bft) 100,00 %
28.04.2016 21:04 5,4 C 76 % 1017,1 hPa 0,0 l/m 0,0 km/h (0 Bft) N-NO 30 0 min 0,000 mm 0,0 UV-I 0 W/m 1,5 C 5,4 C 0,0 km/h (0 Bft) 95,65 %
28.04.2016 21:05 5,3 C 76 % 1017,2 hPa 0,0 l/m 0,0 km/h (0 Bft) N-NO 30 0 min 0,000 mm 0,0 UV-I 0 W/m 1,4 C 5,3 C 0,0 km/h (0 Bft) 100,00 %
28.04.2016 21:06 5,3 C 77 % 1017,1 hPa 0,0 l/m 0,0 km/h (0 Bft) N-NO 30 0 min 0,000 mm 0,0 UV-I 0 W/m 1,6 C 5,3 C 0,0 km/h (0 Bft) 96,15 %
28.04.2016 21:07 5,2 C 77 % 1017,2 hPa 0,0 l/m 0,0 km/h (0 Bft) N-NO 30 0 min 0,000 mm 0,0 UV-I 0 W/m 1,5 C 5,2 C 0,0 km/h (0 Bft) 100,00 %
28.04.2016 21:08 5,2 C 77 % 1017,2 hPa 0,0 l/m 0,0 km/h (0 Bft) N-NO 30 0 min 0,000 mm 0,0 UV-I 0 W/m 1,5 C 5,2 C 0,0 km/h (0 Bft) 100,00 %
28.04.2016 21:09 5,2 C 76 % 1017,2 hPa 0,0 l/m 0,0 km/h (0 Bft) N-NO 30 0 min 0,000 mm 0,0 UV-I 0 W/m 1,3 C 5,2 C 0,0 km/h (0 Bft) 100,00 %
28.04.2016 21:10 5,2 C 76 % 1017,2 hPa 0,0 l/m 0,0 km/h (0 Bft) N-NO 30 0 min 0,000 mm 0,0 UV-I 0 W/m 1,3 C 5,2 C 0,0 km/h (0 Bft) 100,00 %
28.04.2016 21:11 5,1 C 76 % 1017,2 hPa 0,0 l/m 0,0 km/h (0 Bft) N-NO 30 0 min 0,000 mm 0,0 UV-I 0 W/m 1,2 C 5,1 C 0,0 km/h (0 Bft) 100,00 %
28.04.2016 21:12 5,1 C 76 % 1017,2 hPa 0,0 l/m 0,0 km/h (0 Bft) N-NO 30 0 min 0,000 mm 0,0 UV-I 0 W/m 1,2 C 5,1 C 0,0 km/h (0 Bft) 100,00 %
28.04.2016 21:13 5,1 C 77 % 1017,2 hPa 0,0 l/m 0,0 km/h (0 Bft) N-NO 30 0 min 0,000 mm 0,0 UV-I 0 W/m 1,4 C 5,1 C 0,0 km/h (0 Bft) 100,00 %
28.04.2016 21:14 5,0 C 77 % 1017,2 hPa 0,0 l/m 0,0 km/h (0 Bft) N-NO 30 0 min 0,000 mm 0,0 UV-I 0 W/m 1,3 C 5,0 C 0,0 km/h (0 Bft) 100,00 %
28.04.2016 21:15 5,0 C 78 % 1017,3 hPa 0,0 l/m 0,0 km/h (0 Bft) N-NO 30 0 min 0,000 mm 0,0 UV-I 0 W/m 1,5 C 5,0 C 0,0 km/h (0 Bft) 100,00 %
28.04.2016 21:16 5,0 C 78 % 1017,3 hPa 0,0 l/m 0,0 km/h (0 Bft) N-NO 30 0 min 0,000 mm 0,0 UV-I 0 W/m 1,5 C 5,0 C 0,0 km/h (0 Bft) 100,00 %
28.04.2016 21:17 4,9 C 79 % 1017,3 hPa 0,0 l/m 0,0 km/h (0 Bft) N-NO 30 0 min 0,000 mm 0,0 UV-I 0 W/m 1,6 C 4,9 C 0,0 km/h (0 Bft) 100,00 %
28.04.2016 21:18 4,9 C 79 % 1017,3 hPa 0,0 l/m 0,0 km/h (0 Bft) N-NO 30 0 min 0,000 mm 0,0 UV-I 0 W/m 1,6 C 4,9 C 0,0 km/h (0 Bft) 100,00 %
28.04.2016 21:19 4,9 C 79 % 1017,3 hPa 0,0 l/m 0,0 km/h (0 Bft) N-NO 30 0 min 0,000 mm 0,0 UV-I 0 W/m 1,6 C 4,9 C 0,0 km/h (0 Bft) 100,00 %
28.04.2016 21:20 4,9 C 80 % 1017,3 hPa 0,0 l/m 0,0 km/h (0 Bft) N-NO 30 0 min 0,000 mm 0,0 UV-I 0 W/m 1,7 C 4,9 C 0,0 km/h (0 Bft) 100,00 %
28.04.2016 21:21 4,8 C 80 % 1017,3 hPa 0,0 l/m 0,0 km/h (0 Bft) N-NO 30 0 min 0,000 mm 0,0 UV-I 0 W/m 1,6 C 4,8 C 0,0 km/h (0 Bft) 95,65 %
28.04.2016 21:22 4,8 C 80 % 1017,4 hPa 0,0 l/m 0,0 km/h (0 Bft) N-NO 30 0 min 0,000 mm 0,0 UV-I 0 W/m 1,6 C 4,8 C 0,0 km/h (0 Bft) 100,00 %
28.04.2016 21:23 4,8 C 80 % 1017,3 hPa 0,0 l/m 0,0 km/h (0 Bft) N-NO 30 0 min 0,000 mm 0,0 UV-I 0 W/m 1,6 C 4,8 C 0,0 km/h (0 Bft) 100,00 %
28.04.2016 21:24 4,8 C 80 % 1017,3 hPa 0,0 l/m 0,1 km/h (0 Bft) N-NO 30 0 min 0,000 mm 0,0 UV-I 0 W/m 1,6 C 4,8 C 1,6 km/h (1 Bft) 95,83 %
28.04.2016 21:25 4,8 C 80 % 1017,4 hPa 0,0 l/m 0,3 km/h (0 Bft) N-NO 30 0 min 0,000 mm 0,0 UV-I 0 W/m 1,6 C 4,8 C 1,6 km/h (1 Bft) 95,65 %
28.04.2016 21:26 4,9 C 80 % 1017,4 hPa 0,0 l/m 0,1 km/h (0 Bft) N-NO 30 0 min 0,000 mm 0,0 UV-I 0 W/m 1,7 C 4,9 C 1,6 km/h (1 Bft) 100,00 %
28.04.2016 21:27 4,9 C 80 % 1017,4 hPa 0,0 l/m 0,2 km/h (0 Bft) N-NO 30 0 min 0,000 mm 0,0 UV-I 0 W/m 1,7 C 4,9 C 1,6 km/h (1 Bft) 95,65 %
28.04.2016 21:28 4,8 C 80 % 1017,4 hPa 0,0 l/m 0,4 km/h (0 Bft) N-NO 30 0 min 0,000 mm 0,0 UV-I 0 W/m 1,6 C 4,8 C 1,6 km/h (1 Bft) 95,83 %
28.04.2016 21:29 4,8 C 80 % 1017,4 hPa 0,0 l/m 0,8 km/h (0 Bft) N-NO 30 0 min 0,000 mm 0,0 UV-I 0 W/m 1,6 C 4,8 C 1,6 km/h (1 Bft) 95,65 %
28.04.2016 21:30 4,8 C 79 % 1017,5 hPa 0,0 l/m 0,5 km/h (0 Bft) N-NO 30 0 min 0,000 mm 0,0 UV-I 0 W/m 1,5 C 4,8 C 1,6 km/h (1 Bft) 100,00 %
28.04.2016 21:31 4,8 C 79 % 1017,5 hPa 0,0 l/m 0,9 km/h (0 Bft) N-NO 30 0 min 0,000 mm 0,0 UV-I 0 W/m 1,5 C 4,8 C 1,6 km/h (1 Bft) 91,30 %
28.04.2016 21:32 4,8 C 80 % 1017,5 hPa 0,0 l/m 1,6 km/h (1 Bft) N-NO 30 0 min 0,000 mm 0,0 UV-I 0 W/m 1,6 C 4,8 C 1,6 km/h (1 Bft) 100,00 %
28.04.2016 21:33 4,8 C 80 % 1017,5 hPa 0,0 l/m 1,9 km/h (1 Bft) N-NO 30 0 min 0,000 mm 0,0 UV-I 0 W/m 1,6 C 4,8 C 3,2 km/h (1 Bft) 96,15 %
28.04.2016 21:34 4,8 C 81 % 1017,5 hPa 0,0 l/m 1,8 km/h (1 Bft) N-NO 30 0 min 0,000 mm 0,0 UV-I 0 W/m 1,8 C 4,8 C 3,2 km/h (1 Bft) 95,83 %
28.04.2016 21:35 4,7 C 81 % 1017,5 hPa 0,0 l/m 1,8 km/h (1 Bft) N-NO 30 0 min 0,000 mm 0,0 UV-I 0 W/m 1,7 C 4,7 C 3,2 km/h (1 Bft) 100,00 %
28.04.2016 21:36 4,7 C 81 % 1017,5 hPa 0,0 l/m 2,2 km/h (1 Bft) N-NO 30 0 min 0,000 mm 0,0 UV-I 0 W/m 1,7 C 4,7 C 3,2 km/h (1 Bft) 95,83 %
28.04.2016 21:37 4,7 C 81 % 1017,5 hPa 0,0 l/m 2,0 km/h (1 Bft) N-NO 30 0 min 0,000 mm 0,0 UV-I 0 W/m 1,7 C 4,7 C 3,2 km/h (1 Bft) 100,00 %
28.04.2016 21:38 4,7 C 80 % 1017,5 hPa 0,0 l/m 2,3 km/h (1 Bft) N-NO 30 0 min 0,000 mm 0,0 UV-I 0 W/m 1,6 C 4,7 C 3,2 km/h (1 Bft) 91,67 %
28.04.2016 21:39 4,7 C 81 % 1017,5 hPa 0,0 l/m 1,3 km/h (1 Bft) N-NO 30 0 min 0,000 mm 0,0 UV-I 0 W/m 1,7 C 4,7 C 1,6 km/h (1 Bft) 97,37 %
28.04.2016 21:40 4,8 C 82 % 1017,5 hPa 0,0 l/m 1,4 km/h (1 Bft) N-NO 30 0 min 0,000 mm 0,0 UV-I 0 W/m 2,0 C 4,8 C 1,6 km/h (1 Bft) 100,00 %
28.04.2016 21:41 4,7 C 82 % 1017,5 hPa 0,0 l/m 1,6 km/h (1 Bft) N-NO 30 0 min 0,000 mm 0,0 UV-I 0 W/m 1,9 C 4,7 C 1,6 km/h (1 Bft) 86,96 %
28.04.2016 21:42 4,7 C 82 % 1017,5 hPa 0,0 l/m 1,4 km/h (1 Bft) N-NO 30 0 min 0,000 mm 0,0 UV-I 0 W/m 1,9 C 4,7 C 1,6 km/h (1 Bft) 100,00 %
28.04.2016 21:43 4,7 C 82 % 1017,6 hPa 0,0 l/m 1,3 km/h (1 Bft) N-NO 30 0 min 0,000 mm 0,0 UV-I 0 W/m 1,9 C 4,7 C 1,6 km/h (1 Bft) 95,65 %
28.04.2016 21:44 4,6 C 82 % 1017,5 hPa 0,0 l/m 1,9 km/h (1 Bft) N-NO 30 0 min 0,000 mm 0,0 UV-I 0 W/m 1,8 C 4,6 C 3,2 km/h (1 Bft) 100,00 %
28.04.2016 21:45 4,6 C 83 % 1017,6 hPa 0,0 l/m 2,4 km/h (1 Bft) N-NO 30 0 min 0,000 mm 0,0 UV-I 0 W/m 2,0 C 4,6 C 3,2 km/h (1 Bft) 95,83 %
28.04.2016 21:46 4,6 C 83 % 1017,5 hPa 0,0 l/m 2,3 km/h (1 Bft) N-NO 30 0 min 0,000 mm 0,0 UV-I 0 W/m 2,0 C 4,6 C 3,2 km/h (1 Bft) 100,00 %
28.04.2016 21:47 4,5 C 83 % 1017,6 hPa 0,0 l/m 2,3 km/h (1 Bft) N-NO 30 0 min 0,000 mm 0,0 UV-I 0 W/m 1,9 C 4,5 C 3,2 km/h (1 Bft) 91,67 %
28.04.2016 21:48 4,4 C 83 % 1017,6 hPa 0,0 l/m 1,8 km/h (1 Bft) N-NO 30 0 min 0,000 mm 0,0 UV-I 0 W/m 1,8 C 4,4 C 3,2 km/h (1 Bft) 100,00 %
28.04.2016 21:49 4,4 C 82 % 1017,6 hPa 0,0 l/m 1,7 km/h (1 Bft) N-NO 30 0 min 0,000 mm 0,0 UV-I 0 W/m 1,6 C 4,4 C 3,2 km/h (1 Bft) 95,83 %
28.04.2016 21:50 4,3 C 81 % 1017,6 hPa 0,0 l/m 0,7 km/h (0 Bft) N-NO 30 0 min 0,000 mm 0,0 UV-I 0 W/m 1,3 C 4,3 C 1,6 km/h (1 Bft) 100,00 %
28.04.2016 21:51 4,2 C 81 % 1017,6 hPa 0,0 l/m 0,0 km/h (0 Bft) N-NO 30 0 min 0,000 mm 0,0 UV-I 0 W/m 1,2 C 4,2 C 0,0 km/h (0 Bft) 95,83 %
28.04.2016 21:52 4,2 C 81 % 1017,6 hPa 0,0 l/m 0,0 km/h (0 Bft) N-NO 30 0 min 0,000 mm 0,0 UV-I 0 W/m 1,2 C 4,2 C 0,0 km/h (0 Bft) 95,65 %
28.04.2016 21:53 4,1 C 81 % 1017,6 hPa 0,0 l/m 0,0 km/h (0 Bft) N-NO 30 0 min 0,000 mm 0,0 UV-I 0 W/m 1,1 C 4,1 C 0,0 km/h (0 Bft) 100,00 %
28.04.2016 21:54 4,1 C 81 % 1017,6 hPa 0,0 l/m 0,0 km/h (0 Bft) N-NO 30 0 min 0,000 mm 0,0 UV-I 0 W/m 1,1 C 4,1 C 0,0 km/h (0 Bft) 95,83 %
28.04.2016 21:55 4,1 C 81 % 1017,6 hPa 0,0 l/m 0,1 km/h (0 Bft) N-NO 30 0 min 0,000 mm 0,0 UV-I 0 W/m 1,1 C 4,1 C 1,6 km/h (1 Bft) 95,65 %
28.04.2016 21:56 4,1 C 80 % 1017,6 hPa 0,0 l/m 0,0 km/h (0 Bft) N-NO 30 0 min 0,000 mm 0,0 UV-I 0 W/m 1,0 C 4,1 C 0,0 km/h (0 Bft) 95,83 %
28.04.2016 21:57 4,2 C 80 % 1017,6 hPa 0,0 l/m 0,0 km/h (0 Bft) N-NO 30 0 min 0,000 mm 0,0 UV-I 0 W/m 1,1 C 4,2 C 0,0 km/h (0 Bft) 95,65 %
28.04.2016 21:58 4,3 C 80 % 1017,7 hPa 0,0 l/m 0,0 km/h (0 Bft) N-NO 30 0 min 0,000 mm 0,0 UV-I 0 W/m 1,2 C 4,3 C 0,0 km/h (0 Bft) 95,83 %
28.04.2016 21:59 4,3 C 80 % 1017,6 hPa 0,0 l/m 0,3 km/h (0 Bft) N-NO 30 0 min 0,000 mm 0,0 UV-I 0 W/m 1,2 C 4,3 C 1,6 km/h (1 Bft) 100,00 %
28.04.2016 22:00 4,4 C 80 % 1017,7 hPa 0,0 l/m 0,1 km/h (0 Bft) N-NO 30 0 min 0,000 mm 0,0 UV-I 0 W/m 1,3 C 4,4 C 1,6 km/h (1 Bft) 95,83 %
28.04.2016 22:02 4,3 C 81 % 1017,7 hPa 0,0 l/m 0,0 km/h (0 Bft) N-NO 30 0 min 0,000 mm 0,0 UV-I 0 W/m 1,3 C 4,3 C 0,0 km/h (0 Bft) 97,87 %
28.04.2016 22:03 4,3 C 81 % 1017,7 hPa 0,0 l/m 0,0 km/h (0 Bft) N-NO 30 0 min 0,000 mm 0,0 UV-I 0 W/m 1,3 C 4,3 C 0,0 km/h (0 Bft) 100,00 %
28.04.2016 22:04 4,3 C 80 % 1017,7 hPa 0,0 l/m 0,0 km/h (0 Bft) N-NO 30 0 min 0,000 mm 0,0 UV-I 0 W/m 1,2 C 4,3 C 0,0 km/h (0 Bft) 100,00 %
28.04.2016 22:05 4,3 C 80 % 1017,7 hPa 0,0 l/m 0,1 km/h (0 Bft) N-NO 30 0 min 0,000 mm 0,0 UV-I 0 W/m 1,2 C 4,3 C 1,6 km/h (1 Bft) 86,96 %
28.04.2016 22:06 4,3 C 81 % 1017,7 hPa 0,0 l/m 0,0 km/h (0 Bft) N-NO 30 0 min 0,000 mm 0,0 UV-I 0 W/m 1,3 C 4,3 C 0,0 km/h (0 Bft) 100,00 %
28.04.2016 22:07 4,2 C 82 % 1017,7 hPa 0,0 l/m 0,0 km/h (0 Bft) N-NO 30 0 min 0,000 mm 0,0 UV-I 0 W/m 1,4 C 4,2 C 0,0 km/h (0 Bft) 95,65 %
28.04.2016 22:08 4,2 C 83 % 1017,8 hPa 0,0 l/m 1,0 km/h (0 Bft) N-NO 30 0 min 0,000 mm 0,0 UV-I 0 W/m 1,6 C 4,2 C 1,6 km/h (1 Bft) 100,00 %
28.04.2016 22:09 4,1 C 83 % 1017,8 hPa 0,0 l/m 0,4 km/h (0 Bft) N-NO 30 0 min 0,000 mm 0,0 UV-I 0 W/m 1,5 C 4,1 C 1,6 km/h (1 Bft) 100,00 %
28.04.2016 22:10 4,0 C 83 % 1017,7 hPa 0,0 l/m 0,8 km/h (0 Bft) N-NO 30 0 min 0,000 mm 0,0 UV-I 0 W/m 1,4 C 4,0 C 1,6 km/h (1 Bft) 95,83 %
28.04.2016 22:11 3,9 C 83 % 1017,8 hPa 0,0 l/m 1,7 km/h (1 Bft) N-NO 30 0 min 0,000 mm 0,0 UV-I 0 W/m 1,3 C 3,9 C 3,2 km/h (1 Bft) 95,65 %
28.04.2016 22:12 3,8 C 83 % 1017,8 hPa 0,0 l/m 1,9 km/h (1 Bft) N-NO 30 0 min 0,000 mm 0,0 UV-I 0 W/m 1,2 C 3,8 C 3,2 km/h (1 Bft) 100,00 %
28.04.2016 22:13 3,6 C 84 % 1017,8 hPa 0,0 l/m 1,7 km/h (1 Bft) N-NO 30 0 min 0,000 mm 0,0 UV-I 0 W/m 1,2 C 3,6 C 3,2 km/h (1 Bft) 100,00 %
28.04.2016 22:14 3,6 C 84 % 1017,9 hPa 0,0 l/m 0,5 km/h (0 Bft) NO 38 0 min 0,000 mm 0,0 UV-I 0 W/m 1,2 C 3,6 C 1,6 km/h (1 Bft) 95,83 %
28.04.2016 22:15 3,5 C 84 % 1017,8 hPa 0,0 l/m 0,9 km/h (0 Bft) O-NO 58 0 min 0,000 mm 0,0 UV-I 0 W/m 1,1 C 3,5 C 1,6 km/h (1 Bft) 100,00 %
28.04.2016 22:16 3,4 C 84 % 1017,9 hPa 0,0 l/m 2,9 km/h (1 Bft) O 89 0 min 0,000 mm 0,0 UV-I 0 W/m 1,0 C 3,4 C 3,2 km/h (1 Bft) 100,00 %
28.04.2016 22:17 3,4 C 85 % 1017,9 hPa 0,0 l/m 3,2 km/h (1 Bft) O 94 0 min 0,000 mm 0,0 UV-I 0 W/m 1,1 C 3,4 C 4,8 km/h (1 Bft) 100,00 %
28.04.2016 22:18 3,4 C 84 % 1017,9 hPa 0,0 l/m 3,2 km/h (1 Bft) O 94 0 min 0,000 mm 0,0 UV-I 0 W/m 1,0 C 3,4 C 3,2 km/h (1 Bft) 95,83 %
28.04.2016 22:19 3,3 C 84 % 1017,9 hPa 0,0 l/m 3,3 km/h (1 Bft) O 94 0 min 0,000 mm 0,0 UV-I 0 W/m 0,9 C 3,3 C 4,8 km/h (1 Bft) 100,00 %
28.04.2016 22:20 3,3 C 84 % 1017,9 hPa 0,0 l/m 3,6 km/h (1 Bft) O 94 0 min 0,000 mm 0,0 UV-I 0 W/m 0,9 C 3,3 C 4,8 km/h (1 Bft) 100,00 %
28.04.2016 22:21 3,3 C 84 % 1017,9 hPa 0,0 l/m 3,1 km/h (1 Bft) O 94 0 min 0,000 mm 0,0 UV-I 0 W/m 0,9 C 3,3 C 3,2 km/h (1 Bft) 100,00 %
28.04.2016 22:22 3,3 C 84 % 1017,9 hPa 0,0 l/m 3,2 km/h (1 Bft) O 94 0 min 0,000 mm 0,0 UV-I 0 W/m 0,9 C 3,3 C 3,2 km/h (1 Bft) 91,30 %
28.04.2016 22:23 3,3 C 84 % 1017,9 hPa 0,0 l/m 3,8 km/h (1 Bft) O 94 0 min 0,000 mm 0,0 UV-I 0 W/m 0,9 C 3,3 C 4,8 km/h (1 Bft) 100,00 %
28.04.2016 22:24 3,2 C 84 % 1017,9 hPa 0,0 l/m 2,7 km/h (1 Bft) O 94 0 min 0,000 mm 0,0 UV-I 0 W/m 0,8 C 3,2 C 3,2 km/h (1 Bft) 95,65 %
28.04.2016 22:25 3,2 C 84 % 1017,9 hPa 0,0 l/m 3,0 km/h (1 Bft) O 94 0 min 0,000 mm 0,0 UV-I 0 W/m 0,8 C 3,2 C 3,2 km/h (1 Bft) 100,00 %
28.04.2016 22:26 3,1 C 84 % 1017,9 hPa 0,0 l/m 2,1 km/h (1 Bft) O 94 0 min 0,000 mm 0,0 UV-I 0 W/m 0,7 C 3,1 C 3,2 km/h (1 Bft) 95,65 %
28.04.2016 22:27 3,1 C 84 % 1017,9 hPa 0,0 l/m 2,7 km/h (1 Bft) O 94 0 min 0,000 mm 0,0 UV-I 0 W/m 0,7 C 3,1 C 3,2 km/h (1 Bft) 100,00 %
28.04.2016 22:28 3,0 C 84 % 1017,9 hPa 0,0 l/m 3,8 km/h (1 Bft) S-SO 153 0 min 0,000 mm 0,0 UV-I 0 W/m 0,6 C 3,0 C 4,8 km/h (1 Bft) 100,00 %
28.04.2016 22:29 3,0 C 85 % 1017,9 hPa 0,0 l/m 3,7 km/h (1 Bft) S-SO 157 0 min 0,000 mm 0,0 UV-I 0 W/m 0,7 C 3,0 C 4,8 km/h (1 Bft) 100,00 %
28.04.2016 22:30 3,0 C 84 % 1017,9 hPa 0,0 l/m 2,9 km/h (1 Bft) S-SO 157 0 min 0,000 mm 0,0 UV-I 0 W/m 0,6 C 3,0 C 3,2 km/h (1 Bft) 100,00 %
28.04.2016 22:31 3,0 C 84 % 1017,9 hPa 0,0 l/m 2,9 km/h (1 Bft) S-SO 157 0 min 0,000 mm 0,0 UV-I 0 W/m 0,6 C 3,0 C 4,8 km/h (1 Bft) 100,00 %
28.04.2016 22:32 3,1 C 85 % 1017,9 hPa 0,0 l/m 4,2 km/h (1 Bft) S 178 0 min 0,000 mm 0,0 UV-I 0 W/m 0,8 C 3,1 C 6,4 km/h (2 Bft) 95,65 %
28.04.2016 22:33 3,1 C 85 % 1017,9 hPa 0,0 l/m 3,9 km/h (1 Bft) S 178 0 min 0,000 mm 0,0 UV-I 0 W/m 0,8 C 3,1 C 4,8 km/h (1 Bft) 100,00 %
28.04.2016 22:34 3,1 C 85 % 1018,0 hPa 0,0 l/m 3,6 km/h (1 Bft) S 178 0 min 0,000 mm 0,0 UV-I 0 W/m 0,8 C 3,1 C 4,8 km/h (1 Bft) 100,00 %
28.04.2016 22:35 3,1 C 86 % 1018,0 hPa 0,0 l/m 2,7 km/h (1 Bft) S 178 0 min 0,000 mm 0,0 UV-I 0 W/m 1,0 C 3,1 C 4,8 km/h (1 Bft) 100,00 %
28.04.2016 22:36 3,1 C 85 % 1018,0 hPa 0,0 l/m 4,0 km/h (1 Bft) SW 218 0 min 0,000 mm 0,0 UV-I 0 W/m 0,8 C 3,1 C 4,8 km/h (1 Bft) 100,00 %
28.04.2016 22:37 3,1 C 85 % 1018,0 hPa 0,0 l/m 5,0 km/h (1 Bft) SW 236 0 min 0,000 mm 0,0 UV-I 0 W/m 0,8 C 3,1 C 6,4 km/h (2 Bft) 100,00 %
28.04.2016 22:38 3,0 C 86 % 1018,0 hPa 0,0 l/m 6,6 km/h (2 Bft) W-SW 254 0 min 0,000 mm 0,0 UV-I 0 W/m 0,9 C 2,8 C 8,0 km/h (2 Bft) 100,00 %
28.04.2016 22:39 3,0 C 86 % 1018,0 hPa 0,0 l/m 6,9 km/h (2 Bft) W-SW 254 0 min 0,000 mm 0,0 UV-I 0 W/m 0,9 C 2,5 C 8,0 km/h (2 Bft) 96,15 %
28.04.2016 22:40 3,0 C 86 % 1018,0 hPa 0,0 l/m 6,1 km/h (2 Bft) W-SW 254 0 min 0,000 mm 0,0 UV-I 0 W/m 0,9 C 3,0 C 6,4 km/h (2 Bft) 100,00 %
28.04.2016 22:41 3,0 C 86 % 1018,1 hPa 0,0 l/m 5,7 km/h (1 Bft) W-SW 255 0 min 0,000 mm 0,0 UV-I 0 W/m 0,9 C 3,0 C 6,4 km/h (2 Bft) 100,00 %
28.04.2016 22:42 3,1 C 87 % 1018,1 hPa 0,0 l/m 3,8 km/h (1 Bft) W-SW 255 0 min 0,000 mm 0,0 UV-I 0 W/m 1,2 C 3,1 C 4,8 km/h (1 Bft) 100,00 %
28.04.2016 22:43 3,1 C 86 % 1018,1 hPa 0,0 l/m 3,2 km/h (1 Bft) W-SW 257 0 min 0,000 mm 0,0 UV-I 0 W/m 1,0 C 3,1 C 4,8 km/h (1 Bft) 100,00 %
28.04.2016 22:44 3,1 C 86 % 1018,1 hPa 0,0 l/m 2,7 km/h (1 Bft) W-SW 257 0 min 0,000 mm 0,0 UV-I 0 W/m 1,0 C 3,1 C 3,2 km/h (1 Bft) 100,00 %
28.04.2016 22:45 3,2 C 85 % 1018,1 hPa 0,0 l/m 3,3 km/h (1 Bft) W-SW 257 0 min 0,000 mm 0,0 UV-I 0 W/m 0,9 C 3,2 C 4,8 km/h (1 Bft) 100,00 %
28.04.2016 22:46 3,3 C 85 % 1018,1 hPa 0,0 l/m 3,3 km/h (1 Bft) W-SW 253 0 min 0,000 mm 0,0 UV-I 0 W/m 1,0 C 3,3 C 4,8 km/h (1 Bft) 100,00 %
28.04.2016 22:47 3,4 C 84 % 1018,1 hPa 0,0 l/m 2,4 km/h (1 Bft) W-SW 253 0 min 0,000 mm 0,0 UV-I 0 W/m 1,0 C 3,4 C 4,8 km/h (1 Bft) 100,00 %
28.04.2016 22:48 3,4 C 83 % 1018,0 hPa 0,0 l/m 2,2 km/h (1 Bft) W-SW 253 0 min 0,000 mm 0,0 UV-I 0 W/m 0,8 C 3,4 C 4,8 km/h (1 Bft) 100,00 %
28.04.2016 22:49 3,6 C 83 % 1018,1 hPa 0,0 l/m 2,1 km/h (1 Bft) W-SW 253 0 min 0,000 mm 0,0 UV-I 0 W/m 1,0 C 3,6 C 3,2 km/h (1 Bft) 95,65 %
28.04.2016 22:50 3,6 C 83 % 1018,1 hPa 0,0 l/m 1,7 km/h (1 Bft) SW 228 0 min 0,000 mm 0,0 UV-I 0 W/m 1,0 C 3,6 C 3,2 km/h (1 Bft) 100,00 %
28.04.2016 22:51 3,6 C 82 % 1018,1 hPa 0,0 l/m 1,5 km/h (1 Bft) SW 217 0 min 0,000 mm 0,0 UV-I 0 W/m 0,8 C 3,6 C 3,2 km/h (1 Bft) 100,00 %
28.04.2016 22:52 3,6 C 82 % 1018,0 hPa 0,0 l/m 1,7 km/h (1 Bft) SW 215 0 min 0,000 mm 0,0 UV-I 0 W/m 0,8 C 3,6 C 3,2 km/h (1 Bft) 100,00 %
28.04.2016 22:53 3,4 C 82 % 1018,0 hPa 0,0 l/m 1,9 km/h (1 Bft) SW 215 0 min 0,000 mm 0,0 UV-I 0 W/m 0,6 C 3,4 C 3,2 km/h (1 Bft) 95,65 %
28.04.2016 22:54 3,3 C 82 % 1018,0 hPa 0,0 l/m 1,7 km/h (1 Bft) SW 215 0 min 0,000 mm 0,0 UV-I 0 W/m 0,5 C 3,3 C 3,2 km/h (1 Bft) 100,00 %
28.04.2016 22:55 3,2 C 83 % 1018,0 hPa 0,0 l/m 1,1 km/h (1 Bft) SW 215 0 min 0,000 mm 0,0 UV-I 0 W/m 0,6 C 3,2 C 3,2 km/h (1 Bft) 100,00 %
28.04.2016 22:56 3,1 C 83 % 1018,0 hPa 0,0 l/m 0,0 km/h (0 Bft) SW 215 0 min 0,000 mm 0,0 UV-I 0 W/m 0,5 C 3,1 C 0,0 km/h (0 Bft) 100,00 %
28.04.2016 22:57 3,0 C 83 % 1018,0 hPa 0,0 l/m 0,8 km/h (0 Bft) SW 215 0 min 0,000 mm 0,0 UV-I 0 W/m 0,4 C 3,0 C 3,2 km/h (1 Bft) 95,65 %
28.04.2016 22:58 2,9 C 84 % 1018,0 hPa 0,0 l/m 1,6 km/h (1 Bft) SW 215 0 min 0,000 mm 0,0 UV-I 0 W/m 0,5 C 2,9 C 3,2 km/h (1 Bft) 100,00 %
28.04.2016 22:59 3,0 C 84 % 1018,0 hPa 0,0 l/m 0,0 km/h (0 Bft) SW 215 0 min 0,000 mm 0,0 UV-I 0 W/m 0,6 C 3,0 C 0,0 km/h (0 Bft) 100,00 %
28.04.2016 23:00 3,1 C 84 % 1018,0 hPa 0,0 l/m 0,0 km/h (0 Bft) SW 215 0 min 0,000 mm 0,0 UV-I 0 W/m 0,7 C 3,1 C 0,0 km/h (0 Bft) 100,00 %
28.04.2016 23:02 3,2 C 84 % 1018,0 hPa 0,0 l/m 0,1 km/h (0 Bft) SW 215 0 min 0,000 mm 0,0 UV-I 0 W/m 0,8 C 3,2 C 1,6 km/h (1 Bft) 97,87 %
28.04.2016 23:03 3,3 C 84 % 1018,0 hPa 0,0 l/m 0,1 km/h (0 Bft) SW 215 0 min 0,000 mm 0,0 UV-I 0 W/m 0,9 C 3,3 C 1,6 km/h (1 Bft) 100,00 %
28.04.2016 23:04 3,3 C 84 % 1018,0 hPa 0,0 l/m 0,6 km/h (0 Bft) SW 215 0 min 0,000 mm 0,0 UV-I 0 W/m 0,9 C 3,3 C 1,6 km/h (1 Bft) 91,30 %
28.04.2016 23:05 3,3 C 84 % 1018,1 hPa 0,0 l/m 1,3 km/h (1 Bft) SW 215 0 min 0,000 mm 0,0 UV-I 0 W/m 0,9 C 3,3 C 3,2 km/h (1 Bft) 100,00 %
28.04.2016 23:06 3,3 C 84 % 1018,0 hPa 0,0 l/m 1,1 km/h (1 Bft) SW 215 0 min 0,000 mm 0,0 UV-I 0 W/m 0,9 C 3,3 C 1,6 km/h (1 Bft) 100,00 %
28.04.2016 23:07 3,3 C 84 % 1018,0 hPa 0,0 l/m 0,7 km/h (0 Bft) SW 215 0 min 0,000 mm 0,0 UV-I 0 W/m 0,9 C 3,3 C 1,6 km/h (1 Bft) 96,30 %
28.04.2016 23:08 3,3 C 85 % 1018,0 hPa 0,0 l/m 0,2 km/h (0 Bft) SW 215 0 min 0,000 mm 0,0 UV-I 0 W/m 1,0 C 3,3 C 1,6 km/h (1 Bft) 96,15 %
28.04.2016 23:09 3,2 C 84 % 1018,1 hPa 0,0 l/m 0,0 km/h (0 Bft) SW 215 0 min 0,000 mm 0,0 UV-I 0 W/m 0,8 C 3,2 C 0,0 km/h (0 Bft) 100,00 %
28.04.2016 23:10 3,2 C 85 % 1018,1 hPa 0,0 l/m 0,0 km/h (0 Bft) SW 215 0 min 0,000 mm 0,0 UV-I 0 W/m 0,9 C 3,2 C 0,0 km/h (0 Bft) 100,00 %
28.04.2016 23:11 3,2 C 85 % 1018,0 hPa 0,0 l/m 0,1 km/h (0 Bft) SW 215 0 min 0,000 mm 0,0 UV-I 0 W/m 0,9 C 3,2 C 1,6 km/h (1 Bft) 100,00 %
28.04.2016 23:12 3,2 C 84 % 1018,1 hPa 0,0 l/m 0,1 km/h (0 Bft) SW 215 0 min 0,000 mm 0,0 UV-I 0 W/m 0,8 C 3,2 C 1,6 km/h (1 Bft) 100,00 %
28.04.2016 23:13 3,2 C 84 % 1018,0 hPa 0,0 l/m 0,7 km/h (0 Bft) SW 215 0 min 0,000 mm 0,0 UV-I 0 W/m 0,8 C 3,2 C 1,6 km/h (1 Bft) 100,00 %
28.04.2016 23:14 3,2 C 84 % 1018,0 hPa 0,0 l/m 0,3 km/h (0 Bft) SW 215 0 min 0,000 mm 0,0 UV-I 0 W/m 0,8 C 3,2 C 1,6 km/h (1 Bft) 95,65 %
28.04.2016 23:15 3,1 C 84 % 1018,0 hPa 0,0 l/m 0,5 km/h (0 Bft) SW 215 0 min 0,000 mm 0,0 UV-I 0 W/m 0,7 C 3,1 C 1,6 km/h (1 Bft) 100,00 %
28.04.2016 23:16 3,1 C 84 % 1018,1 hPa 0,0 l/m 1,0 km/h (0 Bft) SW 215 0 min 0,000 mm 0,0 UV-I 0 W/m 0,7 C 3,1 C 1,6 km/h (1 Bft) 100,00 %
28.04.2016 23:17 3,0 C 84 % 1018,0 hPa 0,0 l/m 0,7 km/h (0 Bft) SW 215 0 min 0,000 mm 0,0 UV-I 0 W/m 0,6 C 3,0 C 1,6 km/h (1 Bft) 95,83 %
28.04.2016 23:18 2,9 C 84 % 1018,0 hPa 0,0 l/m 0,1 km/h (0 Bft) SW 215 0 min 0,000 mm 0,0 UV-I 0 W/m 0,5 C 2,9 C 1,6 km/h (1 Bft) 95,65 %
28.04.2016 23:19 2,9 C 85 % 1018,0 hPa 0,0 l/m 0,0 km/h (0 Bft) SW 215 0 min 0,000 mm 0,0 UV-I 0 W/m 0,6 C 2,9 C 0,0 km/h (0 Bft) 100,00 %
28.04.2016 23:20 2,8 C 85 % 1018,1 hPa 0,0 l/m 0,0 km/h (0 Bft) SW 215 0 min 0,000 mm 0,0 UV-I 0 W/m 0,5 C 2,8 C 0,0 km/h (0 Bft) 100,00 %
28.04.2016 23:21 2,8 C 85 % 1018,0 hPa 0,0 l/m 0,0 km/h (0 Bft) SW 215 0 min 0,000 mm 0,0 UV-I 0 W/m 0,5 C 2,8 C 0,0 km/h (0 Bft) 100,00 %
28.04.2016 23:22 2,8 C 85 % 1018,1 hPa 0,0 l/m 0,0 km/h (0 Bft) SW 215 0 min 0,000 mm 0,0 UV-I 0 W/m 0,5 C 2,8 C 0,0 km/h (0 Bft) 100,00 %
28.04.2016 23:23 2,8 C 85 % 1018,1 hPa 0,0 l/m 0,3 km/h (0 Bft) SW 215 0 min 0,000 mm 0,0 UV-I 0 W/m 0,5 C 2,8 C 1,6 km/h (1 Bft) 100,00 %
28.04.2016 23:24 2,8 C 86 % 1018,1 hPa 0,0 l/m 0,9 km/h (0 Bft) SW 215 0 min 0,000 mm 0,0 UV-I 0 W/m 0,7 C 2,8 C 1,6 km/h (1 Bft) 100,00 %
28.04.2016 23:25 2,8 C 86 % 1018,1 hPa 0,0 l/m 0,9 km/h (0 Bft) SW 215 0 min 0,000 mm 0,0 UV-I 0 W/m 0,7 C 2,8 C 1,6 km/h (1 Bft) 100,00 %
28.04.2016 23:26 2,8 C 85 % 1018,1 hPa 0,0 l/m 0,3 km/h (0 Bft) SW 215 0 min 0,000 mm 0,0 UV-I 0 W/m 0,5 C 2,8 C 1,6 km/h (1 Bft) 100,00 %
28.04.2016 23:27 2,8 C 85 % 1018,1 hPa 0,0 l/m 0,0 km/h (0 Bft) SW 215 0 min 0,000 mm 0,0 UV-I 0 W/m 0,5 C 2,8 C 0,0 km/h (0 Bft) 95,65 %
28.04.2016 23:28 2,8 C 85 % 1018,1 hPa 0,0 l/m 0,2 km/h (0 Bft) SW 215 0 min 0,000 mm 0,0 UV-I 0 W/m 0,5 C 2,8 C 1,6 km/h (1 Bft) 100,00 %
28.04.2016 23:29 2,7 C 85 % 1018,1 hPa 0,0 l/m 1,3 km/h (1 Bft) SW 215 0 min 0,000 mm 0,0 UV-I 0 W/m 0,4 C 2,7 C 1,6 km/h (1 Bft) 95,65 %
28.04.2016 23:30 2,7 C 85 % 1018,1 hPa 0,0 l/m 0,1 km/h (0 Bft) SW 215 0 min 0,000 mm 0,0 UV-I 0 W/m 0,4 C 2,7 C 1,6 km/h (1 Bft) 95,83 %
28.04.2016 23:31 2,7 C 85 % 1018,0 hPa 0,0 l/m 0,7 km/h (0 Bft) SW 215 0 min 0,000 mm 0,0 UV-I 0 W/m 0,4 C 2,7 C 1,6 km/h (1 Bft) 95,65 %
28.04.2016 23:32 2,6 C 86 % 1018,1 hPa 0,0 l/m 0,9 km/h (0 Bft) SW 215 0 min 0,000 mm 0,0 UV-I 0 W/m 0,5 C 2,6 C 1,6 km/h (1 Bft) 100,00 %
28.04.2016 23:33 2,6 C 86 % 1018,1 hPa 0,0 l/m 0,0 km/h (0 Bft) SW 215 0 min 0,000 mm 0,0 UV-I 0 W/m 0,5 C 2,6 C 0,0 km/h (0 Bft) 91,67 %
28.04.2016 23:34 2,6 C 86 % 1018,1 hPa 0,0 l/m 0,0 km/h (0 Bft) SW 215 0 min 0,000 mm 0,0 UV-I 0 W/m 0,5 C 2,6 C 0,0 km/h (0 Bft) 100,00 %
28.04.2016 23:35 2,6 C 86 % 1018,1 hPa 0,0 l/m 0,0 km/h (0 Bft) SW 215 0 min 0,000 mm 0,0 UV-I 0 W/m 0,5 C 2,6 C 0,0 km/h (0 Bft) 95,83 %
28.04.2016 23:36 2,5 C 87 % 1018,1 hPa 0,0 l/m 0,7 km/h (0 Bft) SW 215 0 min 0,000 mm 0,0 UV-I 0 W/m 0,6 C 2,5 C 1,6 km/h (1 Bft) 91,30 %
28.04.2016 23:37 2,4 C 87 % 1018,2 hPa 0,0 l/m 0,3 km/h (0 Bft) SW 215 0 min 0,000 mm 0,0 UV-I 0 W/m 0,5 C 2,4 C 1,6 km/h (1 Bft) 100,00 %
28.04.2016 23:38 2,4 C 87 % 1018,1 hPa 0,0 l/m 0,2 km/h (0 Bft) SW 215 0 min 0,000 mm 0,0 UV-I 0 W/m 0,5 C 2,4 C 1,6 km/h (1 Bft) 96,15 %
28.04.2016 23:39 2,4 C 87 % 1018,2 hPa 0,0 l/m 0,7 km/h (0 Bft) SW 215 0 min 0,000 mm 0,0 UV-I 0 W/m 0,5 C 2,4 C 1,6 km/h (1 Bft) 100,00 %
28.04.2016 23:40 2,3 C 88 % 1018,1 hPa 0,0 l/m 0,5 km/h (0 Bft) SW 215 0 min 0,000 mm 0,0 UV-I 0 W/m 0,5 C 2,3 C 1,6 km/h (1 Bft) 91,30 %
28.04.2016 23:41 2,3 C 87 % 1018,2 hPa 0,0 l/m 1,5 km/h (1 Bft) SW 215 0 min 0,000 mm 0,0 UV-I 0 W/m 0,4 C 2,3 C 3,2 km/h (1 Bft) 95,83 %
28.04.2016 23:42 2,3 C 87 % 1018,2 hPa 0,0 l/m 2,3 km/h (1 Bft) SW 215 0 min 0,000 mm 0,0 UV-I 0 W/m 0,4 C 2,3 C 3,2 km/h (1 Bft) 95,65 %
28.04.2016 23:43 2,3 C 87 % 1018,2 hPa 0,0 l/m 2,4 km/h (1 Bft) SW 215 0 min 0,000 mm 0,0 UV-I 0 W/m 0,4 C 2,3 C 3,2 km/h (1 Bft) 95,83 %
28.04.2016 23:44 2,3 C 87 % 1018,2 hPa 0,0 l/m 2,3 km/h (1 Bft) SW 215 0 min 0,000 mm 0,0 UV-I 0 W/m 0,4 C 2,3 C 3,2 km/h (1 Bft) 100,00 %
28.04.2016 23:45 2,3 C 87 % 1018,2 hPa 0,0 l/m 2,9 km/h (1 Bft) SW 215 0 min 0,000 mm 0,0 UV-I 0 W/m 0,4 C 2,3 C 3,2 km/h (1 Bft) 95,83 %
28.04.2016 23:46 2,3 C 87 % 1018,2 hPa 0,0 l/m 2,8 km/h (1 Bft) SW 215 0 min 0,000 mm 0,0 UV-I 0 W/m 0,4 C 2,3 C 3,2 km/h (1 Bft) 100,00 %
28.04.2016 23:47 2,3 C 87 % 1018,3 hPa 0,0 l/m 3,9 km/h (1 Bft) SW 215 0 min 0,000 mm 0,0 UV-I 0 W/m 0,4 C 2,3 C 4,8 km/h (1 Bft) 95,83 %
28.04.2016 23:48 2,3 C 87 % 1018,3 hPa 0,0 l/m 4,4 km/h (1 Bft) S-SW 211 0 min 0,000 mm 0,0 UV-I 0 W/m 0,4 C 2,3 C 4,8 km/h (1 Bft) 95,65 %
28.04.2016 23:49 2,3 C 87 % 1018,3 hPa 0,0 l/m 3,5 km/h (1 Bft) S-SW 201 0 min 0,000 mm 0,0 UV-I 0 W/m 0,4 C 2,3 C 4,8 km/h (1 Bft) 92,59 %
28.04.2016 23:50 2,2 C 87 % 1018,3 hPa 0,0 l/m 3,3 km/h (1 Bft) S-SW 199 0 min 0,000 mm 0,0 UV-I 0 W/m 0,3 C 2,2 C 4,8 km/h (1 Bft) 92,31 %
28.04.2016 23:51 2,2 C 87 % 1018,3 hPa 0,0 l/m 2,7 km/h (1 Bft) S-SW 198 0 min 0,000 mm 0,0 UV-I 0 W/m 0,3 C 2,2 C 3,2 km/h (1 Bft) 100,00 %
28.04.2016 23:52 2,2 C 87 % 1018,3 hPa 0,0 l/m 3,9 km/h (1 Bft) S-SW 198 0 min 0,000 mm 0,0 UV-I 0 W/m 0,3 C 2,2 C 4,8 km/h (1 Bft) 86,96 %
28.04.2016 23:53 2,2 C 87 % 1018,3 hPa 0,0 l/m 4,8 km/h (1 Bft) S-SW 194 0 min 0,000 mm 0,0 UV-I 0 W/m 0,3 C 2,2 C 6,4 km/h (2 Bft) 100,00 %
28.04.2016 23:54 2,2 C 88 % 1018,3 hPa 0,0 l/m 4,9 km/h (1 Bft) S 184 0 min 0,000 mm 0,0 UV-I 0 W/m 0,4 C 2,2 C 6,4 km/h (2 Bft) 91,30 %
28.04.2016 23:55 2,2 C 88 % 1018,3 hPa 0,0 l/m 5,8 km/h (2 Bft) S 184 0 min 0,000 mm 0,0 UV-I 0 W/m 0,4 C 2,2 C 8,0 km/h (2 Bft) 100,00 %
28.04.2016 23:56 2,2 C 87 % 1018,3 hPa 0,0 l/m 7,4 km/h (2 Bft) S 172 0 min 0,000 mm 0,0 UV-I 0 W/m 0,3 C 1,2 C 9,7 km/h (2 Bft) 95,65 %
28.04.2016 23:57 2,2 C 88 % 1018,4 hPa 0,0 l/m 6,4 km/h (2 Bft) S 179 0 min 0,000 mm 0,0 UV-I 0 W/m 0,4 C 2,2 C 8,0 km/h (2 Bft) 95,83 %
28.04.2016 23:58 2,2 C 87 % 1018,4 hPa 0,0 l/m 5,6 km/h (1 Bft) S 190 0 min 0,000 mm 0,0 UV-I 0 W/m 0,3 C 2,2 C 8,0 km/h (2 Bft) 100,00 %
28.04.2016 23:59 2,2 C 87 % 1018,4 hPa 0,0 l/m 3,6 km/h (1 Bft) S 184 0 min 0,000 mm 0,0 UV-I 0 W/m 0,3 C 2,2 C 4,8 km/h (1 Bft) 100,00 %
_ Min-Zeit 05:42 17:37 01:33 - 01:52 - - - - - - 14:25 05:42 01:52 13:12
Minimum _ -2,6 C 39 % 1015,2 hPa - 0,0 km/h (0 Bft) - - - - - - -3,7 C -2,6 C 0,0 km/h (0 Bft) 83,33 %
_ Max-Zeit 17:28 07:19 23:57 07:22 15:57 - - 12:08 17:02 12:14 12:09 11:05 17:28 19:17 00:00
Maximum _ 10,9 C 97 % 1018,4 hPa 0,2 l/m 13,1 km/h
S (3 Bft)
- - 3 min 0,305 mm 3,8 UV-I 887 W/m 4,2 C 10,9 C 19,3 km/h
N-NO (3 Bft)
100,00 %
Durchschnitt _ 4,2 C 76 % 1016,2 hPa #0,2 l/m 2,9 km/h (1 Bft) N-NO - #9:39 h #2,489 mm 1,8 UV-I 368 W/m -0,3 C 4,1 C 4,9 km/h (1 Bft) 98,13 %